GFSNGP_850_dewp_000.txt.gz
Dewpoint
5 5 5 7 7 6 8 6 6 4 4 3 2 -1 -1 1 2 2 3 3 3 3 4 3 3 2 2 1 -0 -2 -3 -3 -4 -3 -3 -2 -2 -4 -7 -15 -21 -19 -15 -15
6 6 6 8 7 7 7 6 6 6 7 -0 -2 -1 1 2 2 2 3 3 3 3 4 4 3 3 2 1 0 -1 -2 -4 -4 -4 -2 -2 -4 -6 -13 -19 -20 -15 -14 -14
9 9 8 10 7 8 6 5 5 7 5 -0 -1 -1 1 2 2 2 3 3 3 3 4 4 3 2 1 1 -0 -1 -3 -4 -4 -3 -3 -5 -7 -12 -19 -20 -16 -14 -13 -14
9 9 8 2 4 6 7 6 6 1 -0 -0 0 1 1 2 2 2 2 3 3 3 4 3 3 2 1 -0 -2 -3 -4 -4 -3 -3 -5 -7 -11 -18 -21 -19 -14 -13 -13 -14
7 7 4 1 -0 4 5 5 1 0 1 1 1 1 2 1 2 2 2 2 3 3 3 3 2 0 -1 -2 -2 -3 -4 -3 -3 -4 -6 -9 -17 -21 -21 -15 -14 -13 -13 -15
7 6 6 1 -1 -2 -1 4 -1 0 1 1 0 2 2 2 2 2 2 2 3 3 2 1 0 -1 -1 -2 -3 -4 -2 -3 -4 -6 -8 -16 -20 -23 -17 -15 -14 -13 -15 -18
6 8 5 2 -1 -1 4 3 -1 0 0 0 0 -0 2 2 2 2 2 2 2 2 1 0 -1 -1 -2 -3 -3 -2 -2 -4 -5 -7 -16 -19 -24 -20 -16 -14 -13 -14 -18 -21
6 7 6 1 -1 -1 -1 -0 1 0 0 0 1 1 2 1 1 1 1 1 1 0 -0 -1 -2 -2 -2 -3 -2 -2 -3 -5 -8 -15 -18 -23 -23 -18 -15 -13 -14 -18 -21 -23
6 5 2 0 0 1 -1 0 0 0 0 -0 1 1 1 1 0 -1 -3 -4 -3 -4 -3 -3 -3 -4 -3 -2 -2 -3 -5 -7 -13 -17 -22 -24 -19 -15 -13 -14 -18 -21 -21 -17
4 2 1 0 1 1 -0 0 0 -0 0 0 0 -1 -3 -5 -6 -7 -6 -6 -6 -6 -5 -5 -5 -4 -3 -2 -3 -5 -7 -12 -16 -22 -25 -19 -15 -13 -14 -18 -21 -21 -17 -14
2 0 -0 0 1 1 -0 0 -0 -0 -0 -0 -2 -5 -7 -7 -7 -7 -6 -6 -5 -5 -5 -4 -4 -3 -3 -3 -5 -8 -12 -16 -21 -23 -20 -15 -13 -15 -17 -21 -21 -14 -13 -12
4 0 0 -0 0 0 -0 -0 -0 -0 -1 -3 -6 -7 -7 -6 -6 -6 -5 -5 -5 -4 -4 -4 -4 -3 -4 -6 -8 -12 -16 -20 -21 -18 -15 -13 -15 -17 -21 -22 -22 -21 -19 -13
1 0 -1 -1 0 0 -0 -1 -1 -2 -4 -6 -6 -7 -6 -6 -5 -6 -6 -6 -5 -5 -4 -4 -4 -4 -6 -8 -14 -17 -20 -20 -17 -14 -13 -15 -17 -20 -21 -24 -22 -22 -20 -18
-0 -0 -0 0 -0 -0 -1 -1 -2 -4 -4 -5 -5 -6 -8 -9 -8 -7 -7 -6 -5 -4 -4 -4 -5 -7 -10 -15 -17 -19 -19 -16 -14 -13 -15 -18 -20 -21 -21 -20 -20 -21 -19 -17
-0 -1 -1 -0 -0 -1 -1 -2 -3 -4 -5 -6 -9 -11 -12 -12 -10 -8 -7 -6 -5 -5 -5 -5 -7 -11 -15 -17 -18 -18 -16 -14 -13 -15 -18 -20 -21 -22 -21 -20 -20 -19 -18 -18
-0 -0 -0 -0 -1 -1 -2 -4 -6 -8 -9 -10 -12 -13 -12 -12 -10 -8 -7 -6 -6 -6 -6 -7 -13 -16 -17 -18 -17 -16 -14 -12 -15 -18 -22 -22 -22 -22 -21 -20 -19 -18 -18 -16
-1 -1 -1 -1 -2 -3 -4 -6 -8 -9 -10 -12 -13 -12 -11 -10 -9 -7 -7 -6 -6 -6 -8 -16 -17 -17 -17 -17 -16 -14 -12 -15 -18 -23 -22 -22 -22 -22 -20 -19 -18 -17 -17 -16
-1 -1 -1 -1 -2 -4 -6 -8 -9 -10 -13 -14 -12 -11 -10 -9 -9 -7 -6 -6 -7 -10 -16 -16 -16 -17 -17 -15 -14 -12 -15 -19 -24 -24 -23 -23 -22 -21 -19 -18 -18 -17 -16 -16
-1 -1 -1 -2 -3 -5 -8 -9 -11 -14 -13 -12 -11 -9 -8 -8 -8 -7 -7 -8 -11 -14 -15 -16 -16 -16 -15 -13 -12 -16 -19 -24 -24 -24 -23 -22 -21 -20 -19 -18 -17 -16 -15 -15
-1 -1 -1 -2 -5 -6 -9 -12 -14 -13 -11 -10 -9 -9 -8 -8 -8 -8 -9 -11 -13 -15 -15 -15 -15 -14 -12 -12 -17 -20 -24 -24 -24 -23 -23 -21 -21 -19 -18 -17 -16 -15 -15 -15
-1 -1 -2 -4 -7 -9 -12 -14 -13 -12 -10 -9 -10 -9 -9 -9 -9 -9 -10 -12 -14 -14 -15 -14 -12 -11 -16 -18 -23 -24 -24 -24 -24 -23 -23 -21 -20 -19 -17 -16 -16 -15 -15 -15
-2 -3 -4 -7 -10 -12 -12 -11 -11 -11 -10 -9 -10 -10 -10 -10 -10 -12 -14 -14 -14 -14 -12 -11 -14 -17 -20 -24 -24 -24 -24 -24 -24 -24 -23 -20 -19 -17 -16 -16 -15 -15 -14 -15
-4 -5 -8 -11 -12 -11 -10 -10 -11 -11 -10 -10 -10 -10 -10 -11 -13 -13 -13 -13 -11 -11 -13 -17 -19 -23 -24 -24 -24 -24 -24 -25 -24 -22 -20 -18 -17 -16 -15 -15 -14 -14 -15 -15
-6 -9 -11 -11 -11 -10 -10 -9 -9 -10 -10 -10 -11 -11 -12 -12 -12 -11 -10 -10 -13 -16 -18 -23 -24 -24 -24 -24 -24 -25 -25 -23 -21 -19 -18 -17 -15 -15 -14 -14 -15 -14 -14 -14
-9 -11 -10 -11 -11 -10 -10 -9 -9 -10 -10 -11 -12 -12 -11 -10 -9 -10 -14 -16 -18 -22 -24 -24 -24 -24 -24 -25 -25 -25 -22 -19 -18 -17 -16 -15 -15 -15 -15 -14 -14 -14 -14 -14
-10 -10 -10 -11 -10 -9 -9 -9 -10 -10 -10 -10 -10 -10 -9 -10 -14 -15 -17 -21 -24 -24 -24 -24 -24 -25 -26 -26 -24 -21 -18 -17 -16 -16 -15 -15 -15 -14 -15 -15 -15 -15 -14 -14
-9 -10 -9 -9 -8 -8 -9 -9 -9 -10 -9 -9 -9 -10 -13 -15 -16 -19 -23 -25 -24 -24 -24 -25 -26 -27 -27 -23 -19 -17 -17 -16 -15 -15 -15 -15 -15 -17 -19 -17 -15 -14 -14 -14

GFSNGP_850_dewp_003.txt.gz
Dewpoint
5 4 6 6 5 4 4 2 3 1 4 2 1 1 -0 1 3 3 4 4 4 3 3 2 1 1 0 -0 -1 -2 -2 -3 -4 -3 -3 -4 -3 -3 -4 -7 -13 -18 -16 -14
6 5 5 6 5 6 3 3 3 5 4 2 1 1 -0 1 2 3 3 4 4 4 3 2 2 1 1 0 -0 -1 -3 -4 -4 -4 -4 -3 -3 -5 -6 -11 -18 -16 -14 -14
7 7 7 7 5 6 5 4 5 7 4 2 2 -1 0 1 2 2 3 3 3 3 3 3 2 2 2 1 -0 -2 -3 -4 -5 -4 -3 -3 -5 -6 -11 -18 -18 -16 -15 -14
7 8 9 5 5 4 5 5 4 5 5 4 2 0 1 1 2 2 2 3 3 3 3 3 3 2 2 1 -0 -2 -3 -5 -5 -4 -3 -4 -6 -11 -17 -19 -18 -17 -16 -14
9 7 5 5 8 7 8 6 5 6 5 1 0 1 2 1 2 2 2 2 2 3 3 3 3 2 1 -0 -1 -3 -5 -5 -3 -3 -3 -6 -11 -16 -19 -21 -20 -18 -14 -14
7 7 5 1 3 2 5 6 4 5 5 1 1 3 4 1 2 2 2 2 2 3 3 3 2 1 0 -1 -3 -4 -5 -3 -2 -4 -7 -9 -14 -19 -22 -22 -19 -14 -14 -17
7 7 5 1 -1 -0 7 4 -1 3 2 1 1 1 1 1 1 2 2 3 3 3 3 2 1 -1 -1 -3 -4 -4 -2 -3 -4 -6 -8 -14 -17 -23 -25 -20 -15 -14 -17 -21
5 7 5 1 -1 1 -0 0 -1 -0 0 0 1 1 1 1 1 2 2 2 2 2 1 -1 -1 -2 -2 -3 -3 -2 -3 -4 -6 -9 -13 -16 -23 -28 -19 -14 -14 -18 -22 -24
4 4 1 0 1 1 -0 0 0 0 -0 -0 1 0 0 0 0 0 1 0 0 0 -1 -2 -3 -3 -2 -3 -2 -3 -4 -6 -8 -12 -16 -23 -26 -19 -14 -14 -19 -22 -23 -22
4 2 2 0 1 0 0 -0 0 0 -0 -0 1 0 0 -0 -1 -1 -1 -2 -2 -3 -4 -4 -4 -5 -4 -2 -3 -4 -6 -7 -11 -16 -22 -23 -17 -14 -15 -19 -22 -23 -22 -20
3 1 -0 0 1 -0 -0 -0 0 0 0 0 0 -0 -1 -3 -5 -7 -7 -7 -7 -7 -6 -6 -5 -4 -3 -3 -4 -6 -7 -11 -16 -21 -20 -15 -13 -16 -19 -21 -22 -20 -18 -16
5 1 1 0 1 0 -0 -0 -0 -0 -0 -0 -1 -5 -8 -8 -8 -8 -7 -7 -6 -6 -5 -5 -4 -4 -3 -5 -7 -8 -12 -17 -20 -18 -14 -13 -16 -19 -22 -24 -25 -23 -22 -19
2 1 -0 0 1 -0 -0 -0 -0 -1 -1 -4 -8 -9 -9 -8 -7 -7 -7 -6 -6 -5 -5 -4 -4 -4 -5 -7 -9 -13 -18 -19 -16 -13 -13 -16 -20 -22 -25 -28 -26 -25 -22 -20
1 0 0 0 0 -0 -0 -1 -1 -3 -6 -8 -8 -8 -8 -7 -7 -7 -7 -6 -5 -5 -5 -5 -4 -5 -7 -11 -15 -18 -18 -16 -13 -13 -16 -20 -23 -24 -25 -24 -23 -23 -21 -20
0 -0 -0 -0 -0 -0 -1 -1 -4 -6 -7 -7 -6 -8 -8 -9 -8 -8 -7 -6 -5 -5 -5 -5 -6 -8 -12 -16 -17 -18 -16 -13 -12 -15 -20 -23 -24 -25 -24 -23 -22 -20 -19 -19
-0 -0 -0 -0 -1 -1 -2 -4 -5 -5 -6 -7 -9 -10 -10 -11 -10 -8 -6 -6 -6 -6 -6 -7 -8 -14 -16 -17 -17 -16 -14 -12 -15 -19 -24 -25 -25 -24 -23 -22 -21 -19 -19 -17
-1 -1 -1 -1 -1 -2 -3 -4 -6 -7 -9 -11 -12 -12 -11 -10 -9 -8 -7 -6 -7 -7 -8 -10 -17 -16 -17 -17 -16 -14 -12 -14 -18 -24 -25 -25 -24 -23 -22 -20 -19 -19 -18 -17
-0 -1 -1 -1 -1 -2 -3 -5 -8 -10 -11 -12 -13 -12 -11 -10 -10 -8 -8 -8 -7 -8 -14 -17 -16 -16 -16 -16 -14 -12 -13 -18 -24 -25 -25 -24 -24 -22 -21 -20 -19 -18 -17 -17
-1 -1 -1 -1 -2 -3 -5 -8 -10 -11 -12 -13 -12 -11 -10 -9 -9 -8 -8 -8 -9 -13 -15 -15 -16 -16 -15 -14 -12 -14 -19 -24 -25 -25 -24 -24 -23 -23 -21 -20 -18 -17 -16 -15
-1 -1 -1 -1 -3 -5 -8 -9 -10 -12 -13 -12 -11 -10 -9 -9 -8 -8 -8 -10 -14 -14 -15 -15 -15 -15 -13 -12 -16 -20 -24 -24 -25 -24 -24 -24 -23 -22 -20 -18 -17 -17 -16 -15
-1 -1 -2 -3 -5 -8 -9 -10 -14 -13 -11 -11 -11 -11 -10 -9 -9 -9 -10 -12 -13 -14 -14 -14 -13 -12 -13 -18 -22 -24 -24 -24 -24 -24 -24 -22 -21 -20 -19 -17 -16 -15 -15 -15
-1 -2 -3 -5 -7 -9 -11 -14 -14 -13 -11 -10 -9 -9 -9 -9 -10 -11 -12 -13 -13 -14 -13 -12 -13 -18 -19 -24 -24 -24 -24 -25 -24 -23 -22 -20 -19 -18 -17 -16 -15 -15 -15 -15
-2 -3 -5 -7 -9 -11 -12 -12 -12 -12 -11 -10 -10 -10 -10 -11 -11 -12 -13 -13 -13 -11 -12 -17 -19 -23 -24 -24 -24 -25 -25 -24 -23 -21 -19 -18 -17 -16 -15 -15 -15 -15 -15 -14
-3 -5 -7 -9 -12 -13 -11 -10 -10 -10 -10 -10 -11 -11 -11 -12 -13 -13 -12 -11 -11 -16 -18 -21 -25 -24 -24 -24 -25 -25 -25 -23 -20 -18 -17 -16 -15 -15 -15 -15 -15 -15 -15 -15
-5 -7 -10 -12 -12 -11 -11 -10 -10 -10 -11 -11 -11 -12 -13 -12 -11 -10 -11 -15 -17 -20 -24 -25 -24 -24 -25 -26 -26 -25 -22 -19 -17 -17 -16 -15 -15 -15 -15 -16 -18 -17 -15 -14
-7 -10 -11 -12 -13 -12 -11 -10 -11 -11 -11 -12 -12 -11 -10 -10 -11 -15 -16 -18 -23 -25 -24 -24 -24 -26 -27 -27 -24 -21 -18 -17 -17 -16 -15 -15 -15 -15 -18 -19 -18 -16 -14 -14
-10 -11 -11 -11 -11 -11 -11 -11 -11 -11 -11 -11 -10 -9 -11 -14 -15 -17 -20 -24 -24 -24 -24 -25 -27 -28 -27 -24 -21 -18 -17 -16 -15 -15 -16 -15 -15 -16 -18 -18 -17 -16 -14 -14

GFSNGP_850_dewp_006.txt.gz
Dewpoint
5 3 5 6 5 4 5 3 3 -0 -1 -0 0 2 2 1 3 5 5 4 4 5 4 4 3 2 1 1 -0 -1 -2 -3 -4 -4 -4 -4 -4 -4 -3 -4 -6 -11 -15 -16
5 6 5 6 6 6 5 3 2 1 1 -1 1 1 1 1 3 4 5 4 4 4 3 3 2 1 0 -1 -2 -2 -3 -4 -4 -4 -4 -5 -4 -4 -4 -7 -11 -15 -17 -17
6 6 7 6 5 4 4 4 2 3 1 -1 2 2 0 1 3 3 4 4 4 3 3 2 1 0 -0 -1 -1 -2 -3 -4 -5 -5 -5 -5 -4 -5 -7 -10 -14 -17 -19 -19
6 7 9 6 4 3 3 4 2 1 4 3 3 1 1 1 2 3 4 4 4 3 3 2 1 1 0 -0 -1 -2 -4 -5 -6 -6 -5 -4 -5 -7 -9 -13 -17 -20 -22 -19
8 8 6 6 7 4 5 5 2 2 2 3 1 1 1 1 2 2 3 3 4 4 3 2 2 1 1 0 -1 -3 -5 -6 -6 -5 -4 -5 -7 -8 -11 -16 -21 -25 -21 -15
7 8 5 2 6 6 5 8 4 3 3 4 1 4 3 1 2 2 3 3 3 3 3 3 2 2 1 -1 -2 -4 -5 -6 -5 -4 -5 -6 -8 -11 -16 -21 -27 -21 -15 -15
6 7 5 2 1 4 8 5 1 4 4 1 2 1 1 1 2 2 2 3 3 3 3 3 2 1 -0 -2 -4 -5 -5 -4 -4 -5 -6 -7 -11 -15 -22 -27 -20 -14 -16 -21
5 7 4 1 1 4 1 -0 -0 3 3 2 0 -0 0 1 2 2 2 2 3 3 2 1 1 -0 -2 -3 -5 -5 -4 -4 -4 -5 -7 -11 -15 -22 -24 -17 -14 -17 -22 -26
4 3 0 1 0 1 -0 0 0 0 1 1 -0 -0 0 0 1 1 2 2 2 2 1 -1 -2 -2 -2 -4 -4 -4 -4 -4 -6 -7 -11 -15 -22 -20 -14 -14 -18 -23 -25 -25
4 2 2 1 1 0 0 0 0 -0 -0 -1 0 0 -0 0 1 1 1 1 1 0 -1 -3 -4 -4 -3 -4 -4 -4 -4 -5 -7 -10 -16 -21 -17 -13 -14 -19 -23 -25 -23 -21
3 2 0 0 1 0 0 0 0 0 -0 0 0 -1 -0 -0 -0 -1 -1 -1 -1 -1 -3 -4 -5 -5 -4 -3 -3 -4 -6 -7 -11 -18 -19 -15 -13 -14 -19 -23 -24 -21 -22 -20
5 2 1 0 1 -0 0 0 0 0 0 -0 0 -0 -1 -1 -2 -2 -3 -4 -4 -5 -6 -6 -5 -4 -3 -3 -5 -6 -8 -12 -18 -18 -14 -12 -14 -19 -23 -25 -25 -24 -23 -20
2 1 -0 0 0 -0 -0 -0 -0 0 0 -0 -1 -2 -6 -8 -7 -7 -7 -7 -7 -6 -6 -6 -5 -4 -4 -5 -7 -9 -14 -18 -17 -14 -12 -14 -19 -24 -26 -27 -25 -24 -22 -21
1 0 0 0 0 -0 -0 -0 -0 -0 -0 -2 -6 -9 -9 -9 -7 -7 -7 -6 -6 -5 -5 -5 -4 -4 -5 -8 -11 -15 -17 -17 -14 -12 -14 -19 -24 -24 -24 -24 -24 -24 -24 -21
0 0 -0 0 0 -0 -1 -1 -1 -3 -6 -8 -9 -9 -8 -7 -7 -7 -6 -6 -6 -5 -5 -5 -5 -6 -8 -13 -16 -17 -17 -14 -13 -13 -18 -24 -24 -24 -24 -23 -23 -22 -21 -21
0 -0 -0 -0 -0 -1 -1 -2 -4 -7 -7 -8 -7 -6 -7 -8 -7 -7 -7 -6 -7 -6 -6 -6 -7 -8 -14 -16 -17 -17 -15 -13 -13 -17 -23 -25 -24 -24 -24 -23 -22 -21 -20 -19
-0 -1 -1 -0 -1 -1 -2 -4 -6 -7 -7 -6 -7 -8 -9 -9 -9 -8 -6 -6 -6 -6 -7 -8 -9 -16 -16 -17 -17 -15 -13 -13 -17 -23 -25 -25 -24 -24 -23 -22 -21 -21 -19 -18
-0 -0 -1 -1 -1 -1 -3 -5 -6 -6 -7 -9 -10 -11 -12 -11 -11 -9 -8 -8 -7 -8 -8 -13 -17 -16 -16 -16 -15 -13 -13 -18 -22 -24 -25 -24 -24 -23 -23 -22 -21 -19 -18 -17
-0 -1 -1 -1 -1 -2 -4 -5 -6 -8 -10 -12 -14 -13 -12 -11 -10 -9 -9 -8 -8 -9 -15 -16 -16 -16 -16 -15 -13 -13 -18 -23 -24 -25 -24 -25 -24 -24 -22 -20 -19 -17 -16 -16
-1 -1 -1 -1 -1 -2 -4 -6 -9 -10 -12 -14 -13 -12 -11 -10 -9 -9 -9 -9 -11 -15 -15 -15 -15 -15 -14 -12 -15 -19 -24 -24 -25 -25 -25 -24 -23 -22 -20 -18 -17 -16 -15 -15
-1 -1 -1 -1 -2 -4 -6 -9 -10 -12 -14 -13 -13 -12 -11 -9 -9 -9 -10 -11 -13 -14 -14 -14 -14 -13 -12 -18 -22 -24 -24 -24 -25 -25 -24 -22 -20 -19 -17 -16 -16 -15 -15 -15
-1 -2 -2 -2 -3 -7 -9 -10 -12 -14 -13 -12 -10 -10 -10 -10 -9 -10 -11 -12 -13 -14 -14 -13 -12 -15 -19 -24 -24 -24 -25 -26 -26 -24 -21 -18 -17 -17 -16 -15 -15 -15 -15 -15
-2 -2 -3 -4 -6 -8 -9 -12 -13 -14 -12 -11 -11 -10 -10 -10 -10 -12 -13 -13 -13 -13 -11 -14 -18 -22 -24 -24 -24 -26 -27 -27 -23 -19 -17 -17 -16 -15 -15 -15 -15 -17 -18 -17
-2 -3 -4 -7 -8 -10 -12 -11 -11 -11 -11 -10 -10 -10 -11 -11 -12 -13 -13 -12 -11 -12 -17 -20 -24 -25 -24 -24 -27 -28 -26 -22 -18 -17 -16 -16 -15 -15 -15 -15 -19 -19 -17 -15
-3 -4 -7 -8 -10 -12 -13 -11 -10 -10 -10 -10 -10 -11 -12 -13 -13 -12 -11 -11 -15 -18 -23 -25 -24 -24 -25 -28 -28 -25 -21 -18 -17 -17 -16 -16 -16 -15 -15 -17 -18 -18 -16 -14
-4 -6 -8 -10 -12 -13 -12 -10 -11 -11 -11 -11 -12 -13 -12 -11 -10 -11 -14 -17 -20 -24 -24 -24 -24 -27 -29 -28 -25 -21 -18 -17 -17 -16 -16 -16 -16 -15 -15 -16 -16 -17 -17 -14
-6 -8 -10 -11 -12 -12 -12 -11 -12 -12 -11 -12 -12 -11 -10 -11 -14 -15 -18 -22 -24 -24 -23 -25 -27 -28 -28 -25 -21 -18 -17 -17 -16 -16 -16 -16 -15 -15 -15 -16 -16 -16 -16 -14

GFSNGP_850_dewp_009.txt.gz
Dewpoint
4 3 4 5 5 5 5 3 3 -0 -0 -2 -3 -2 1 1 1 3 4 4 4 5 7 8 9 10 9 8 6 4 1 -0 -2 -3 -4 -4 -4 -5 -4 -4 -4 -6 -8 -11
5 5 5 5 5 5 4 3 2 1 1 -2 -3 -2 2 3 3 3 5 4 3 5 6 7 7 7 6 5 3 2 0 -2 -3 -4 -5 -5 -5 -5 -4 -5 -6 -8 -11 -15
6 4 6 7 6 5 5 4 3 4 2 -0 0 3 4 3 2 3 5 4 4 5 5 6 5 4 3 2 0 -2 -3 -4 -5 -5 -5 -6 -5 -5 -5 -6 -7 -10 -15 -20
6 6 8 8 5 4 4 2 3 2 1 -0 1 2 2 2 1 3 4 4 4 4 3 2 1 1 0 -1 -3 -4 -4 -5 -6 -6 -6 -5 -5 -5 -5 -7 -11 -16 -21 -24
7 8 7 3 4 5 5 4 2 3 2 0 2 2 2 1 2 3 4 4 4 3 2 1 1 -1 -1 -3 -3 -5 -5 -6 -6 -6 -6 -5 -5 -5 -7 -11 -15 -22 -23 -15
7 8 8 2 4 2 4 7 2 1 2 1 2 5 4 1 2 3 3 4 4 3 2 1 -0 -1 -1 -3 -4 -5 -6 -6 -6 -6 -5 -4 -5 -7 -10 -14 -24 -21 -14 -16
7 7 5 2 1 4 7 5 0 3 2 2 4 3 1 2 2 3 3 4 4 3 1 0 -0 -1 -2 -3 -5 -5 -6 -6 -5 -5 -4 -5 -7 -10 -16 -23 -17 -14 -17 -23
5 6 4 1 4 6 2 0 0 3 3 2 2 -0 1 1 2 3 3 3 3 2 1 -0 -1 -2 -2 -4 -5 -6 -6 -5 -4 -4 -5 -7 -11 -18 -21 -15 -14 -18 -24 -27
4 3 -0 1 1 0 1 0 0 1 3 2 -0 -1 -0 0 1 2 2 2 2 2 0 -2 -3 -2 -2 -4 -5 -5 -4 -3 -4 -5 -8 -12 -20 -18 -13 -14 -20 -25 -27 -26
4 2 2 2 1 1 0 0 0 0 2 0 -0 -1 -1 -0 -0 1 1 1 0 -0 -2 -3 -4 -3 -3 -4 -4 -3 -3 -4 -6 -9 -14 -20 -16 -13 -15 -20 -25 -26 -26 -25
3 2 1 1 0 0 0 0 0 0 -0 -0 0 0 1 0 0 -0 -0 -1 -1 -1 -2 -3 -4 -4 -4 -4 -4 -4 -5 -7 -10 -16 -19 -14 -12 -15 -20 -25 -26 -25 -24 -23
5 2 1 0 1 0 0 0 -0 -0 -0 0 1 1 0 -0 -1 -1 -1 -2 -2 -2 -3 -4 -4 -4 -4 -4 -5 -6 -7 -11 -17 -17 -14 -12 -14 -19 -24 -26 -25 -24 -24 -22
2 1 0 0 0 0 -0 0 0 -0 0 0 -0 1 -0 -1 -2 -2 -2 -3 -4 -5 -6 -5 -5 -4 -4 -5 -7 -8 -13 -17 -16 -14 -12 -14 -18 -25 -26 -25 -25 -24 -24 -24
2 1 0 0 0 -0 -0 -0 0 -0 -0 -0 -1 -2 -4 -4 -5 -6 -6 -7 -7 -7 -6 -5 -5 -4 -6 -7 -10 -15 -17 -16 -14 -12 -13 -18 -24 -25 -24 -24 -24 -27 -27 -24
1 1 0 0 -0 -0 -1 -0 -0 -1 -1 -3 -5 -8 -8 -8 -8 -7 -7 -7 -6 -6 -5 -5 -5 -6 -8 -12 -16 -17 -16 -15 -13 -13 -18 -24 -25 -24 -24 -24 -25 -25 -25 -23
0 0 0 0 -0 -1 -1 -1 -1 -3 -6 -8 -8 -8 -8 -8 -8 -7 -7 -7 -7 -6 -6 -6 -7 -9 -14 -16 -17 -16 -15 -13 -12 -18 -23 -25 -24 -24 -24 -25 -25 -24 -22 -19
0 -0 -0 -0 -0 -1 -1 -1 -4 -7 -8 -8 -8 -7 -8 -8 -8 -7 -6 -6 -6 -6 -7 -8 -9 -15 -16 -16 -16 -15 -13 -12 -18 -23 -24 -24 -24 -25 -25 -25 -23 -21 -20 -18
1 0 -0 -0 -0 -1 -2 -4 -7 -8 -8 -7 -8 -8 -9 -10 -9 -7 -7 -7 -7 -8 -9 -10 -16 -16 -16 -16 -15 -13 -13 -19 -24 -24 -24 -24 -25 -25 -24 -22 -20 -18 -18 -17
-0 -0 -0 -0 -0 -1 -3 -6 -7 -7 -7 -8 -10 -10 -10 -9 -9 -8 -8 -8 -8 -9 -12 -16 -16 -15 -15 -14 -12 -15 -20 -24 -24 -24 -25 -27 -26 -24 -21 -19 -18 -17 -16 -16
-0 -1 -1 -1 -1 -2 -4 -6 -6 -7 -9 -11 -12 -11 -10 -9 -9 -9 -9 -9 -10 -14 -15 -15 -15 -15 -14 -12 -17 -22 -24 -24 -24 -26 -27 -26 -22 -19 -18 -17 -16 -16 -16 -16
-1 -1 -1 -1 -1 -3 -5 -6 -7 -10 -11 -13 -13 -12 -11 -10 -10 -10 -9 -11 -13 -14 -14 -14 -14 -12 -13 -19 -24 -24 -24 -25 -28 -28 -25 -20 -19 -18 -17 -16 -16 -16 -16 -17
-1 -1 -1 -1 -2 -4 -5 -7 -10 -12 -14 -13 -12 -12 -11 -10 -10 -10 -11 -12 -13 -13 -14 -13 -12 -16 -21 -25 -24 -24 -26 -29 -28 -23 -20 -18 -17 -17 -16 -16 -15 -16 -19 -18
-1 -1 -1 -2 -3 -5 -8 -10 -12 -15 -14 -12 -12 -12 -11 -11 -10 -11 -12 -13 -13 -13 -12 -13 -18 -23 -24 -24 -24 -27 -30 -28 -23 -20 -18 -17 -16 -16 -16 -15 -16 -18 -18 -17
-2 -2 -2 -3 -5 -8 -10 -11 -13 -12 -12 -11 -11 -11 -11 -12 -12 -12 -13 -13 -12 -11 -16 -19 -24 -24 -23 -25 -29 -30 -27 -23 -20 -18 -17 -16 -16 -16 -15 -15 -16 -17 -17 -17
-2 -3 -3 -5 -8 -9 -11 -13 -11 -10 -10 -10 -10 -10 -11 -12 -13 -13 -12 -11 -14 -17 -21 -24 -23 -23 -26 -29 -30 -27 -22 -19 -18 -18 -17 -16 -16 -16 -15 -15 -16 -16 -17 -17
-3 -4 -5 -7 -9 -11 -12 -12 -11 -10 -10 -11 -11 -11 -12 -12 -11 -11 -12 -16 -19 -23 -23 -23 -24 -26 -29 -29 -26 -22 -19 -18 -18 -17 -16 -16 -16 -16 -15 -15 -16 -16 -16 -16
-4 -5 -7 -8 -10 -11 -13 -12 -12 -11 -11 -12 -12 -13 -12 -10 -11 -14 -17 -20 -23 -23 -23 -24 -27 -28 -28 -25 -22 -19 -18 -17 -16 -16 -16 -16 -16 -15 -15 -15 -16 -16 -16 -15

GFSNGP_850_dewp_012.txt.gz
Dewpoint
3 2 3 5 4 5 5 4 4 1 -0 -2 -4 -4 -4 -3 -1 2 2 3 4 4 4 5 4 8 10 10 9 9 7 5 1 -2 -3 -3 -5 -6 -6 -5 -5 -5 -6 -7
5 4 4 6 5 5 6 5 3 2 2 -1 -2 -0 1 2 3 3 3 3 4 3 3 3 7 9 10 9 8 5 3 -0 -2 -2 -4 -5 -6 -6 -5 -5 -5 -6 -7 -10
5 3 4 7 6 6 6 5 3 4 2 -0 3 3 3 4 3 3 3 4 3 2 2 5 7 9 8 6 4 1 -0 -1 -2 -4 -5 -6 -6 -6 -5 -5 -6 -7 -11 -15
6 6 9 7 5 5 5 5 3 2 1 0 1 3 3 3 3 2 5 4 3 1 2 4 6 6 6 3 0 -0 -2 -4 -5 -6 -6 -6 -6 -6 -5 -6 -7 -12 -16 -23
8 8 5 5 5 7 5 4 1 2 1 1 2 2 2 1 1 3 4 3 2 4 4 4 4 3 2 0 -1 -3 -4 -5 -6 -6 -6 -6 -6 -5 -6 -8 -12 -18 -22 -15
7 8 9 5 2 2 2 5 1 1 1 2 2 3 4 1 3 4 4 3 4 3 3 2 1 0 -1 -3 -5 -6 -6 -6 -7 -7 -6 -5 -5 -6 -9 -13 -20 -19 -14 -16
7 7 5 2 1 4 6 4 1 2 1 1 2 2 -0 2 3 3 3 3 2 1 -0 -1 -2 -3 -4 -6 -6 -6 -6 -6 -6 -6 -5 -5 -7 -10 -14 -21 -15 -14 -17 -23
6 5 7 1 3 4 2 1 0 2 3 2 1 -0 0 1 2 3 3 2 1 1 -1 -2 -3 -4 -4 -5 -6 -6 -6 -6 -5 -5 -6 -7 -10 -17 -19 -14 -14 -18 -25 -26
4 4 1 1 2 1 1 1 1 2 3 2 1 -0 0 0 1 0 -0 0 0 0 -2 -4 -5 -3 -3 -5 -6 -6 -5 -5 -5 -6 -8 -12 -19 -16 -13 -14 -19 -26 -26 -25
4 2 2 2 1 1 0 1 0 1 2 1 -1 -0 -0 0 0 1 1 -0 -1 -1 -2 -4 -5 -5 -4 -5 -6 -5 -4 -5 -7 -9 -14 -18 -14 -13 -15 -20 -25 -25 -22 -21
4 3 2 1 1 0 0 0 0 2 1 -1 -0 -1 -1 -1 -1 -0 0 -1 -1 -2 -3 -4 -5 -5 -5 -5 -4 -5 -5 -7 -10 -15 -17 -14 -12 -14 -19 -24 -26 -25 -24 -23
3 2 2 1 1 0 0 -0 -0 -0 -1 -1 -0 -1 -0 -1 -1 -0 -1 -2 -2 -3 -3 -5 -5 -5 -5 -5 -6 -5 -7 -10 -17 -16 -14 -12 -14 -18 -24 -25 -25 -25 -25 -25
2 1 1 0 0 -0 -0 -0 -1 -1 -0 -0 -1 0 1 -1 -1 -2 -2 -2 -3 -4 -4 -5 -5 -5 -5 -6 -7 -8 -13 -17 -16 -14 -12 -13 -17 -24 -25 -24 -24 -25 -27 -26
2 2 1 0 0 -0 -0 -0 -1 -0 -0 -0 0 -1 0 -0 -2 -2 -3 -4 -5 -5 -5 -5 -5 -5 -6 -8 -10 -15 -17 -16 -14 -13 -13 -18 -23 -25 -25 -25 -26 -28 -25 -24
2 1 0 0 -0 -0 -0 -0 -1 -1 -1 -1 -1 -1 -2 -2 -3 -5 -6 -7 -7 -6 -5 -5 -5 -6 -8 -11 -16 -17 -16 -15 -13 -13 -18 -23 -25 -25 -24 -26 -26 -25 -24 -23
1 1 0 0 -0 -1 -0 -1 -0 -1 -1 -2 -3 -5 -6 -7 -7 -7 -7 -7 -7 -6 -6 -6 -6 -9 -12 -16 -17 -16 -15 -13 -13 -19 -23 -24 -24 -25 -27 -26 -25 -22 -19 -18
0 -0 0 -0 -0 -1 -0 -0 -1 -1 -4 -7 -8 -8 -8 -8 -7 -7 -7 -7 -6 -6 -6 -7 -9 -14 -16 -16 -16 -15 -13 -13 -19 -24 -24 -24 -26 -28 -27 -24 -21 -19 -18 -17
1 1 1 0 -0 -1 -1 -1 -2 -6 -8 -8 -8 -8 -8 -8 -8 -7 -7 -7 -7 -7 -8 -10 -15 -16 -16 -16 -14 -12 -14 -20 -24 -24 -24 -28 -28 -26 -23 -20 -18 -18 -17 -17
1 -0 -0 -0 -0 -1 -1 -2 -6 -8 -8 -8 -8 -9 -9 -9 -8 -8 -8 -7 -8 -9 -11 -16 -16 -15 -15 -14 -12 -16 -21 -24 -24 -25 -29 -29 -26 -21 -19 -18 -17 -16 -16 -16
0 -0 -0 -0 -0 -1 -1 -5 -7 -8 -8 -8 -9 -10 -9 -9 -9 -9 -8 -9 -10 -12 -16 -15 -15 -15 -13 -12 -18 -23 -24 -24 -26 -30 -29 -24 -20 -19 -18 -17 -17 -16 -16 -18
-0 -1 -1 -1 -1 -2 -3 -7 -7 -7 -8 -9 -12 -11 -11 -9 -9 -10 -9 -10 -13 -15 -14 -14 -14 -12 -13 -19 -24 -24 -24 -27 -30 -29 -24 -20 -19 -18 -17 -17 -16 -16 -18 -19
-1 -1 -1 -1 -1 -3 -6 -7 -6 -8 -10 -11 -11 -11 -11 -10 -10 -10 -11 -13 -14 -14 -14 -13 -12 -15 -20 -24 -23 -24 -27 -30 -28 -23 -20 -19 -18 -17 -17 -16 -16 -16 -17 -17
-1 -1 -1 -1 -2 -4 -6 -6 -8 -11 -13 -12 -12 -12 -11 -11 -10 -11 -13 -13 -13 -13 -12 -12 -17 -22 -24 -23 -24 -28 -30 -27 -23 -20 -19 -18 -17 -17 -17 -16 -16 -16 -16 -17
-1 -2 -2 -2 -4 -5 -6 -8 -10 -12 -13 -12 -12 -12 -12 -12 -11 -12 -13 -13 -13 -11 -14 -18 -23 -23 -23 -25 -28 -30 -27 -23 -20 -19 -18 -17 -17 -17 -17 -16 -16 -16 -16 -16
-2 -2 -2 -3 -5 -6 -9 -10 -12 -12 -12 -11 -11 -11 -11 -12 -13 -13 -13 -12 -12 -15 -19 -23 -23 -23 -25 -28 -29 -26 -23 -20 -19 -18 -17 -17 -17 -17 -16 -16 -15 -16 -16 -16
-2 -3 -3 -5 -6 -9 -10 -12 -13 -11 -11 -11 -10 -11 -11 -12 -13 -12 -11 -13 -17 -20 -23 -22 -23 -25 -28 -28 -25 -22 -20 -19 -18 -17 -17 -17 -16 -16 -16 -16 -15 -15 -16 -17
-3 -3 -4 -6 -8 -10 -11 -12 -13 -11 -11 -11 -11 -12 -12 -12 -11 -12 -15 -18 -21 -22 -22 -23 -25 -28 -27 -25 -21 -19 -18 -18 -17 -17 -16 -16 -16 -16 -15 -15 -15 -15 -16 -17

GFSNGP_850_dewp_018.txt.gz
Dewpoint
3 2 2 3 3 3 5 6 6 4 5 3 2 3 3 2 2 1 2 2 2 3 3 5 6 8 7 8 6 6 6 5 4 4 2 2 -1 -2 -3 -5 -5 -6 -5 -4
4 3 3 4 3 3 4 7 7 7 7 4 3 2 2 2 2 2 3 4 3 2 4 6 7 7 6 5 5 5 3 1 1 -1 -4 -2 -4 -5 -6 -6 -6 -5 -3 -2
5 3 3 6 5 7 6 5 6 8 6 4 3 3 3 3 3 3 4 4 3 3 5 6 4 4 4 3 1 -1 -1 -1 -3 -4 -2 -4 -4 -3 -7 -5 -3 -4 -4 -3
6 5 6 6 4 4 6 6 5 3 5 5 4 4 4 3 3 2 3 3 3 3 3 3 3 3 2 -1 -2 -2 -1 -2 -1 2 1 -3 -5 -5 -4 -4 -5 -3 -2 -4
7 6 3 4 6 5 6 6 3 2 3 2 3 4 3 4 3 3 4 3 2 2 2 1 -1 -1 -2 -3 -2 -1 -0 2 1 -3 -3 -3 -1 -3 -5 -4 -3 -1 -6 -15
7 7 6 5 3 4 3 8 2 2 4 2 2 4 3 3 1 0 1 0 0 -1 -1 -2 -3 -3 -1 1 3 3 2 -0 1 0 -4 -7 -6 -5 -3 -2 -4 -10 -16 -14
6 7 5 1 1 2 8 5 2 1 4 2 1 1 1 2 2 -0 -3 -3 -1 -1 -1 -1 -0 1 2 2 4 4 2 -1 -2 -5 -7 -5 -4 -3 -4 -8 -15 -14 -14 -17
6 7 6 1 2 5 3 2 2 1 3 1 1 1 1 -1 -2 -0 1 0 0 1 1 1 2 1 -4 -3 -2 -4 -7 -8 -7 -7 -5 -3 -4 -7 -13 -15 -13 -15 -17 -22
4 4 1 1 2 2 2 1 1 1 2 1 0 -0 -0 -1 -3 -6 -7 -7 -7 -7 -6 -5 -2 -5 -6 -8 -9 -8 -8 -7 -6 -4 -3 -7 -11 -16 -13 -13 -15 -19 -22 -21
3 2 2 2 2 1 1 1 1 2 2 1 -0 0 -1 -3 -4 -5 -6 -8 -8 -7 -7 -8 -8 -8 -9 -9 -7 -6 -4 -3 -4 -6 -10 -16 -14 -13 -13 -15 -20 -24 -24 -24
4 3 2 1 1 1 0 1 2 1 0 0 -1 -1 -1 -3 -4 -5 -7 -7 -6 -6 -7 -8 -8 -7 -7 -6 -5 -4 -4 -6 -9 -13 -16 -14 -13 -13 -15 -20 -23 -23 -24 -24
5 2 2 1 1 0 0 0 -0 -0 -1 -1 -2 -2 -2 -3 -5 -6 -6 -6 -6 -6 -5 -7 -6 -6 -6 -5 -4 -5 -7 -9 -14 -16 -14 -13 -13 -15 -20 -22 -23 -23 -25 -31
1 2 2 1 1 0 -0 -1 -1 -1 -1 -1 -2 -3 -4 -5 -4 -5 -5 -6 -4 -3 -5 -6 -6 -5 -5 -5 -5 -7 -10 -16 -15 -14 -13 -13 -16 -21 -23 -23 -22 -23 -22 -22
2 2 2 1 1 0 -1 -1 -1 -2 -2 -2 -2 -2 -3 -5 -5 -5 -5 -4 -5 -5 -5 -5 -4 -5 -5 -6 -8 -12 -16 -15 -15 -13 -13 -17 -22 -23 -23 -25 -29 -31 -26 -22
3 2 2 1 1 0 -1 -1 -1 -2 -2 -2 -2 -2 -3 -4 -4 -4 -5 -5 -5 -4 -5 -5 -5 -6 -7 -9 -12 -16 -15 -15 -13 -13 -19 -22 -23 -23 -27 -30 -29 -25 -22 -20
3 2 2 1 0 -0 -1 -2 -1 -2 -1 -2 -2 -2 -3 -3 -4 -4 -5 -5 -4 -5 -5 -6 -6 -7 -9 -14 -16 -15 -14 -13 -14 -20 -23 -23 -24 -29 -31 -28 -23 -21 -19 -18
2 2 1 0 0 -0 -1 -1 -1 -0 -1 -1 -1 -2 -2 -3 -4 -5 -5 -6 -6 -6 -6 -6 -8 -10 -15 -16 -15 -14 -12 -14 -20 -23 -23 -24 -30 -32 -27 -22 -21 -20 -19 -18
3 2 2 1 1 -0 -1 -2 -1 -0 -1 -1 -2 -3 -3 -4 -5 -7 -7 -7 -7 -7 -7 -8 -10 -16 -16 -15 -14 -12 -15 -20 -23 -23 -25 -30 -31 -26 -23 -21 -20 -19 -18 -18
2 2 1 1 0 -0 -1 -2 -1 -1 -1 -2 -3 -4 -6 -7 -8 -8 -8 -7 -7 -8 -9 -11 -16 -16 -15 -14 -12 -16 -20 -23 -22 -24 -29 -31 -26 -23 -21 -20 -19 -18 -17 -17
1 1 0 1 1 -0 -1 -1 -1 -2 -3 -4 -6 -7 -8 -8 -8 -8 -8 -8 -8 -9 -11 -15 -16 -15 -14 -12 -16 -21 -23 -22 -24 -29 -30 -26 -23 -21 -20 -19 -18 -17 -17 -17
-0 -0 -0 1 1 -0 -1 1 -0 -2 -5 -7 -8 -9 -9 -9 -8 -9 -9 -9 -10 -11 -14 -15 -14 -14 -12 -16 -21 -22 -22 -24 -29 -29 -26 -23 -21 -20 -19 -18 -17 -17 -17 -16
-1 -1 -1 -0 1 1 0 -1 -2 -5 -8 -8 -8 -9 -9 -9 -9 -9 -9 -11 -12 -14 -15 -14 -14 -12 -16 -21 -22 -22 -24 -28 -28 -25 -23 -21 -19 -18 -18 -17 -17 -17 -17 -16
-2 -2 -1 -1 -1 -1 -2 -2 -4 -8 -8 -8 -9 -9 -10 -10 -10 -11 -11 -12 -14 -14 -14 -14 -12 -16 -21 -22 -22 -24 -28 -27 -25 -22 -20 -19 -18 -17 -17 -17 -17 -17 -16 -16
-2 -2 -2 -2 -2 -2 -3 -4 -7 -8 -8 -8 -9 -11 -11 -11 -10 -11 -12 -14 -14 -14 -13 -13 -16 -21 -22 -22 -24 -28 -27 -24 -21 -19 -18 -17 -17 -17 -17 -16 -16 -16 -16 -16
-2 -2 -2 -2 -3 -3 -4 -6 -7 -8 -8 -9 -10 -10 -11 -11 -13 -13 -14 -14 -14 -13 -13 -17 -20 -21 -21 -24 -28 -26 -23 -20 -19 -18 -17 -17 -17 -16 -16 -16 -16 -16 -17 -17
-2 -2 -3 -3 -3 -4 -5 -6 -7 -7 -8 -10 -11 -11 -11 -11 -12 -13 -14 -13 -13 -13 -17 -21 -21 -22 -25 -28 -26 -22 -20 -19 -18 -17 -16 -15 -14 -14 -14 -15 -16 -16 -17 -17
-3 -3 -3 -3 -4 -4 -5 -6 -7 -7 -9 -11 -12 -11 -12 -12 -13 -13 -13 -12 -14 -17 -21 -21 -22 -26 -28 -25 -22 -20 -18 -18 -16 -15 -15 -15 -15 -16 -16 -16 -17 -17 -18 -18

GFSNGP_850_dewp_021.txt.gz
Dewpoint
3 2 3 2 3 3 4 3 6 3 3 3 3 4 4 3 2 2 3 2 2 2 3 4 4 4 5 6 7 8 9 8 8 7 5 2 2 1 -1 -0 -0 -1 -5 -5
2 2 3 4 3 3 3 3 4 4 5 3 4 4 3 3 2 3 2 3 3 2 3 5 6 6 6 5 4 6 7 6 5 2 1 -1 -3 -2 1 -4 -5 -4 -6 -5
2 3 3 5 3 3 5 5 6 7 5 4 5 5 4 3 4 4 4 3 3 3 4 4 5 5 4 4 3 2 4 3 1 -1 -2 -2 -1 -3 -4 -4 -6 -6 -4 -4
5 3 5 5 4 4 5 5 5 5 3 1 3 4 3 3 -0 4 2 3 3 3 3 3 3 3 3 3 0 2 1 -0 -0 -1 -1 -1 -1 -0 -1 0 -2 -1 -4 -4
7 6 3 3 5 5 6 5 3 2 2 3 2 4 3 3 -1 -1 -0 0 1 2 3 2 1 0 1 -0 -0 -1 -4 -5 -3 -1 1 2 3 1 -1 0 -1 -4 -6 -13
6 7 6 3 3 4 3 7 2 2 3 3 1 4 3 2 -2 -1 -1 -0 0 0 -0 0 -1 -1 -1 -1 -0 -0 1 2 2 3 3 2 -1 -1 -5 -7 -5 -9 -16 -14
6 7 5 1 0 3 7 4 2 2 3 1 1 1 1 2 -1 -2 -1 -1 -1 -1 -1 -1 -1 -1 1 1 2 2 2 2 1 0 -0 -2 -6 -7 -6 -5 -14 -14 -14 -16
6 7 5 -1 2 5 2 2 1 2 2 1 1 0 -0 1 1 0 0 -0 -0 -0 -0 0 2 3 3 2 2 3 2 1 -1 -6 -8 -8 -6 -8 -13 -15 -13 -14 -16 -20
4 3 -1 1 1 2 2 1 1 1 2 2 1 0 -1 -3 -2 -1 1 1 1 1 1 1 2 2 3 2 1 1 -4 -7 -8 -8 -7 -7 -12 -15 -14 -13 -14 -17 -22 -22
3 2 1 2 1 1 1 0 1 2 2 1 1 -0 -3 -6 -6 -6 -5 -1 1 1 1 1 0 -1 -1 -4 -8 -9 -8 -7 -7 -8 -11 -15 -15 -13 -13 -15 -19 -23 -23 -23
3 2 2 1 1 1 0 1 2 1 1 1 1 -1 -3 -6 -7 -7 -8 -8 -7 -7 -7 -8 -8 -8 -8 -6 -7 -6 -4 -5 -8 -11 -15 -14 -13 -14 -16 -20 -22 -22 -23 -26
4 2 2 2 1 1 0 0 0 0 -0 -1 -0 -0 -2 -5 -5 -6 -7 -7 -8 -8 -8 -8 -8 -7 -7 -6 -5 -5 -7 -10 -14 -15 -14 -13 -14 -18 -21 -22 -23 -24 -29 -33
1 1 2 2 1 1 -0 -1 -1 -1 -1 -1 -2 -1 -2 -3 -5 -6 -6 -7 -6 -4 -5 -6 -6 -5 -5 -6 -6 -8 -12 -16 -15 -14 -13 -14 -19 -22 -23 -22 -25 -29 -27 -24
2 2 2 1 1 1 -0 -1 -1 -1 -2 -2 -2 -3 -2 -3 -6 -6 -7 -7 -2 -5 -7 -6 -6 -5 -6 -7 -10 -15 -16 -15 -14 -13 -15 -20 -22 -22 -23 -29 -32 -28 -24 -22
3 3 2 2 1 1 -0 -1 -2 -2 -2 -3 -3 -2 -3 -3 -5 -6 -6 -3 -6 -7 -6 -6 -6 -7 -8 -11 -15 -16 -15 -14 -13 -15 -20 -22 -22 -24 -29 -30 -27 -23 -22 -21
3 3 2 1 1 0 -1 -2 -1 -1 -2 -2 -3 -3 -3 -4 -5 -4 -5 -6 -5 -6 -6 -6 -7 -8 -11 -15 -16 -15 -14 -13 -16 -20 -22 -22 -25 -29 -31 -26 -23 -21 -20 -19
2 3 2 1 1 0 -1 -1 -1 -0 -1 1 -1 -2 -3 -4 -5 -6 -6 -6 -6 -6 -6 -7 -8 -11 -15 -16 -15 -14 -13 -16 -20 -22 -22 -25 -29 -31 -26 -23 -21 -20 -19 -18
1 2 2 2 2 1 -1 -2 -2 -1 1 -1 -2 -2 -3 -3 -3 -5 -5 -6 -6 -7 -7 -8 -10 -15 -16 -15 -15 -13 -16 -20 -22 -22 -24 -29 -30 -26 -23 -21 -20 -19 -18 -18
1 2 2 2 1 0 -1 -1 -2 -1 -1 -1 -2 -2 -3 -3 -4 -5 -7 -7 -7 -7 -8 -10 -13 -16 -15 -15 -13 -15 -20 -22 -22 -24 -28 -30 -26 -23 -21 -20 -19 -18 -17 -18
1 1 1 1 0 -0 -1 -1 -2 -2 0 -2 -2 -3 -4 -5 -7 -8 -8 -8 -8 -8 -10 -12 -16 -15 -15 -13 -14 -19 -22 -21 -23 -28 -29 -26 -23 -21 -20 -19 -18 -17 -17 -17
-1 -0 -0 0 2 1 0 -1 -2 -0 2 -2 -3 -4 -6 -8 -8 -8 -8 -8 -9 -10 -12 -16 -15 -15 -13 -14 -19 -22 -21 -23 -27 -28 -25 -23 -21 -20 -18 -18 -17 -17 -17 -17
-1 -1 -1 0 2 2 1 0 -0 2 -2 -3 -5 -7 -8 -9 -9 -9 -9 -9 -11 -12 -14 -15 -14 -14 -13 -18 -21 -21 -23 -28 -27 -25 -22 -20 -19 -18 -18 -17 -17 -17 -17 -17
-2 -2 -1 -1 -1 0 0 -0 0 -1 -3 -5 -7 -8 -9 -10 -10 -10 -10 -11 -11 -13 -15 -14 -14 -13 -17 -21 -21 -23 -28 -27 -24 -21 -19 -18 -18 -17 -17 -17 -17 -17 -17 -17
-2 -2 -2 -2 -2 -2 -2 -2 -3 -3 -5 -7 -8 -9 -9 -11 -10 -10 -11 -12 -13 -15 -14 -14 -13 -17 -22 -21 -23 -28 -27 -23 -20 -19 -19 -18 -17 -16 -16 -16 -17 -16 -17 -16
-2 -2 -2 -3 -3 -2 -3 -3 -4 -6 -8 -8 -8 -9 -10 -10 -11 -12 -12 -13 -14 -14 -14 -13 -17 -21 -21 -23 -28 -26 -22 -20 -19 -19 -17 -16 -15 -15 -15 -15 -15 -16 -17 -17
-2 -2 -3 -3 -3 -3 -3 -4 -5 -7 -8 -8 -8 -9 -9 -9 -11 -12 -12 -14 -14 -14 -13 -16 -20 -21 -23 -28 -26 -22 -20 -19 -18 -16 -16 -16 -16 -16 -16 -17 -17 -17 -17 -18
-3 -3 -3 -3 -3 -4 -5 -5 -6 -7 -8 -8 -9 -10 -10 -6 -11 -12 -13 -14 -14 -13 -16 -20 -21 -23 -29 -26 -22 -20 -19 -18 -17 -17 -15 -13 -12 -12 -12 -13 -14 -15 -17 -18

GFSNGP_850_dewp_024.txt.gz
Dewpoint
2 2 2 2 2 2 2 2 4 2 2 1 1 1 2 4 4 3 3 3 2 3 3 3 2 2 3 2 4 5 6 7 7 8 8 8 8 7 6 4 1 -1 2 2
3 2 3 3 2 2 2 2 2 2 2 -0 1 3 4 3 4 3 4 4 3 3 3 3 2 3 5 5 5 5 6 6 6 6 6 6 5 3 1 0 0 1 -3 -3
2 2 3 4 3 3 3 3 3 6 4 3 4 3 4 3 1 0 2 3 3 4 3 3 4 5 5 4 3 4 4 3 2 4 3 0 -0 -0 -1 -1 -2 -2 -1 -1
4 2 4 3 2 2 2 4 4 4 4 4 2 4 3 3 -0 -0 -1 1 1 1 1 3 3 4 3 2 1 1 2 1 1 1 -1 -2 -1 -1 -0 -0 -0 -0 -1 -1
5 4 3 3 4 5 5 4 3 4 3 2 3 4 4 2 -0 -0 -0 0 1 0 1 2 2 3 2 1 0 0 0 -1 -2 -2 -1 -0 1 1 1 1 1 -0 -0 0
6 6 6 1 3 3 3 6 3 2 2 3 2 4 3 2 -0 -1 -1 -0 1 1 0 0 -0 0 1 -1 -1 -1 -2 -1 0 1 1 1 1 1 1 -0 -0 -4 -9 -14
7 6 4 1 0 3 6 3 2 2 2 2 2 1 2 2 -0 -1 -1 -1 -1 -1 -1 -2 -2 -2 -1 -1 -1 -1 -0 0 1 1 1 0 0 -0 -2 -5 -8 -11 -14 -14
6 7 5 -0 3 5 2 2 2 1 2 2 1 1 2 2 1 1 0 -1 -1 0 -1 -0 0 1 0 0 -0 0 1 1 1 1 0 -2 -5 -8 -8 -9 -14 -14 -15 -18
4 3 -1 -1 1 2 2 1 1 1 2 2 1 1 0 1 1 1 1 1 1 1 1 1 1 2 2 1 0 1 1 -2 -5 -7 -7 -6 -8 -12 -15 -14 -14 -16 -19 -20
3 2 1 1 2 1 1 0 0 1 2 2 1 1 -1 -1 -1 1 1 2 2 2 2 2 1 2 2 1 -2 -6 -6 -7 -7 -5 -7 -12 -14 -14 -14 -15 -19 -22 -22 -22
3 2 2 1 1 1 1 0 1 1 2 1 1 0 -2 -3 -4 -2 1 1 1 2 1 0 -2 -6 -7 -7 -7 -6 -5 -5 -7 -11 -14 -14 -13 -14 -16 -19 -21 -22 -22 -26
3 1 2 2 1 1 1 0 -0 1 1 0 0 0 -2 -4 -5 -4 -3 -4 -5 -4 -5 -7 -8 -4 -3 -5 -6 -5 -6 -10 -14 -14 -14 -13 -14 -17 -20 -22 -22 -24 -30 -31
1 1 2 2 1 1 1 -0 -1 -0 -0 -0 -0 -0 -2 -4 -5 -6 -7 -6 -4 -5 -5 -8 -5 -5 -7 -6 -6 -7 -10 -14 -15 -14 -14 -14 -18 -21 -22 -22 -25 -28 -28 -25
3 3 2 2 2 1 1 -0 -1 -1 -1 -1 -1 -1 -2 -4 -4 -6 -6 -7 -3 -5 -4 -3 -1 -5 -5 -6 -8 -11 -15 -15 -14 -13 -15 -20 -22 -22 -23 -27 -30 -28 -24 -22
2 3 3 3 2 1 1 -0 -1 -1 -1 -2 -2 -2 -3 -3 -4 -5 -6 -6 -3 -5 -5 -5 -5 -5 -7 -9 -13 -16 -15 -14 -13 -16 -20 -22 -22 -23 -28 -30 -28 -24 -22 -21
-2 1 2 2 1 1 1 -1 -1 -2 -2 -1 -2 -3 -3 -4 -5 -5 -5 -1 -4 -6 -5 -5 -6 -7 -10 -14 -16 -15 -14 -13 -17 -21 -22 -22 -24 -27 -30 -26 -23 -22 -21 -20
0 -1 2 2 1 1 1 -0 -1 -1 -1 -2 -1 -0 -3 -4 -5 -5 -2 -4 -6 -5 -5 -6 -8 -10 -15 -16 -15 -14 -13 -17 -20 -22 -22 -23 -27 -30 -27 -24 -22 -21 -20 -19
-0 0 1 1 2 2 1 -0 -2 -2 -0 1 1 -3 -3 -4 -4 -4 -5 -7 -7 -6 -7 -8 -10 -14 -16 -15 -14 -13 -16 -20 -22 -22 -23 -26 -29 -27 -24 -23 -22 -21 -19 -18
-0 0 1 2 2 2 1 -0 -1 -2 -0 2 -1 -3 -4 -4 -4 -5 -5 -6 -6 -7 -8 -9 -12 -16 -16 -15 -13 -14 -19 -21 -21 -22 -26 -29 -26 -24 -23 -21 -20 -19 -18 -18
0 1 0 1 1 0 0 -0 -2 -2 -2 -0 -2 -3 -3 -4 -5 -5 -5 -6 -7 -8 -9 -11 -15 -16 -15 -14 -13 -18 -21 -21 -22 -26 -28 -26 -24 -22 -20 -19 -18 -18 -17 -17
1 -0 -0 2 2 2 1 -0 -2 -2 -2 -0 -1 -3 -3 -4 -5 -6 -7 -7 -8 -8 -10 -13 -16 -15 -15 -13 -16 -21 -21 -22 -26 -28 -26 -23 -21 -19 -18 -18 -17 -17 -17 -17
-1 -0 -1 0 1 2 2 2 -0 -1 -1 1 -2 -3 -4 -5 -7 -8 -8 -8 -8 -9 -11 -15 -16 -15 -13 -15 -20 -21 -22 -26 -28 -25 -22 -20 -19 -18 -18 -18 -17 -17 -17 -17
-2 -2 -2 -1 -1 1 1 2 2 0 0 1 -3 -3 -5 -7 -8 -9 -9 -9 -9 -10 -12 -16 -15 -14 -14 -18 -21 -21 -26 -28 -24 -21 -20 -19 -18 -18 -17 -17 -17 -17 -17 -17
-2 -2 -2 -2 -2 -2 -1 -0 0 1 1 -1 -3 -5 -7 -8 -9 -9 -9 -10 -11 -11 -14 -15 -14 -13 -17 -21 -21 -26 -28 -24 -21 -20 -19 -18 -17 -16 -16 -16 -16 -16 -17 -17
-3 -2 -2 -2 -2 -3 -3 -3 -3 -2 -3 -4 -5 -7 -8 -9 -9 -10 -10 -11 -11 -13 -15 -14 -13 -16 -20 -21 -25 -28 -24 -21 -20 -19 -18 -17 -17 -17 -17 -17 -18 -18 -18 -18
-3 -3 -2 -2 -3 -3 -3 -4 -4 -5 -5 -6 -7 -8 -9 -9 -5 -10 -10 -11 -12 -15 -14 -13 -15 -20 -21 -23 -28 -25 -22 -20 -19 -18 -17 -14 -13 -12 -12 -12 -13 -15 -17 -18
-3 -3 -3 -3 -3 -3 -4 -4 -5 -5 -6 -7 -8 -8 -9 -7 -1 -5 -11 -12 -14 -14 -13 -14 -19 -21 -22 -29 -26 -23 -21 -19 -19 -17 -14 -13 -12 -11 -10 -11 -11 -12 -13 -15

GFSNGP_850_dewp_027.txt.gz
Dewpoint
1 1 1 2 2 2 1 1 3 1 1 -1 -1 -1 -1 3 4 3 2 1 3 4 3 3 2 2 2 2 2 1 1 3 6 7 8 7 8 8 6 6 6 5 4 0
1 1 2 3 2 2 2 2 2 1 2 -1 -1 1 3 4 3 1 1 0 2 2 3 3 3 3 4 3 4 3 2 5 5 5 5 6 6 6 5 3 2 2 -0 -0
3 1 3 4 3 2 2 2 1 3 1 1 3 3 3 3 1 -0 0 -1 -1 1 2 2 3 4 4 4 4 3 3 3 3 4 4 3 3 3 1 1 1 -0 0 1
4 2 4 1 1 1 2 2 1 1 2 2 3 3 3 3 1 -0 0 0 -0 -1 0 2 2 2 1 2 1 1 1 2 2 1 -0 -0 -1 -1 -1 -0 0 1 0 0
4 4 2 2 3 4 4 4 2 3 3 3 2 3 4 3 1 -1 -1 -0 -0 -0 0 1 1 0 -0 -1 -0 -1 -0 -0 -0 -0 -0 0 1 0 0 1 1 1 1 -0
6 6 5 1 3 3 2 5 2 2 2 2 2 4 3 2 0 -0 -1 -1 -0 -0 -0 -0 -0 -0 -1 -1 -1 -1 -2 -1 -0 -0 -0 -1 0 -0 0 0 -0 -0 -1 -1
6 6 3 0 -1 3 6 3 2 2 2 2 2 2 2 2 1 1 0 -1 -1 -1 -1 -1 -1 -1 -1 -1 -1 -1 -1 -1 -1 -1 -0 -0 -0 -1 0 -0 -0 -1 -6 -13
5 7 5 1 3 5 2 2 2 1 1 2 2 1 2 2 2 2 1 0 0 0 0 -0 -0 -0 -0 -0 -0 -0 -0 -0 -0 -0 -0 -0 -0 -1 -2 -6 -11 -14 -14 -15
3 3 -1 0 1 1 1 2 1 0 0 2 2 1 2 3 2 2 2 2 2 2 1 1 1 1 1 0 -0 -0 0 -0 -0 -3 -6 -7 -6 -8 -13 -14 -14 -15 -17 -19
3 2 1 1 2 2 1 1 1 1 1 1 2 1 1 2 2 2 2 2 2 2 2 1 1 1 1 1 0 -1 -5 -7 -7 -7 -9 -13 -14 -14 -14 -15 -17 -20 -22 -22
3 1 1 2 1 1 1 1 0 0 1 2 1 1 1 -0 1 2 2 2 2 2 2 1 1 -2 -5 -7 -8 -7 -6 -7 -8 -12 -14 -14 -14 -15 -16 -19 -21 -21 -22 -24
3 0 1 1 2 1 1 1 1 -0 1 1 1 1 0 -2 -2 0 2 2 2 0 -2 -6 -7 -6 -5 -7 -7 -5 -6 -9 -13 -15 -14 -14 -15 -16 -19 -21 -22 -23 -27 -32
2 4 4 3 3 2 1 1 0 -0 -0 0 0 0 -0 -2 -4 -3 -2 -3 -4 -4 -5 -7 -5 -5 -7 -7 -6 -8 -11 -15 -15 -14 -14 -14 -18 -20 -21 -22 -23 -27 -30 -27
1 3 3 3 2 1 1 1 0 -0 -1 -1 -1 -0 -1 -2 -4 -4 -6 -5 -3 -5 -6 -6 -4 -6 -6 -6 -8 -11 -15 -15 -14 -14 -14 -18 -21 -22 -22 -25 -28 -28 -25 -23
0 -1 -1 2 2 3 1 1 0 -0 -1 -1 -1 -1 -2 -2 -3 -3 -6 -5 -3 -5 -4 -2 -4 -5 -6 -8 -11 -15 -15 -15 -14 -14 -19 -21 -22 -22 -25 -28 -29 -26 -23 -22
-1 -1 -1 0 1 1 1 1 0 -1 -1 -1 -1 -2 -2 -3 -3 -4 -6 -7 -1 -5 -4 -4 -5 -6 -8 -11 -15 -16 -15 -14 -15 -19 -21 -22 -22 -25 -28 -28 -25 -23 -22 -22
-1 -0 -0 0 1 1 1 1 0 -1 -2 -1 -0 0 -2 -2 -3 -5 -5 -3 -3 -6 -5 -5 -6 -7 -10 -15 -16 -15 -14 -14 -19 -21 -22 -22 -24 -28 -28 -25 -23 -22 -21 -20
-1 -0 -0 0 0 1 2 2 1 -1 -2 -1 -1 -1 -1 -2 -3 -5 -5 -1 -5 -6 -5 -6 -7 -9 -14 -16 -15 -14 -14 -18 -21 -22 -22 -24 -27 -28 -25 -23 -22 -21 -20 -19
0 -0 0 0 1 1 2 2 1 -1 -2 -1 1 1 2 -2 -4 -5 -3 -3 -6 -5 -6 -7 -9 -12 -16 -15 -15 -13 -17 -20 -22 -22 -23 -27 -27 -25 -23 -21 -20 -19 -18 -18
0 0 0 0 0 1 1 1 0 -1 -2 -2 1 1 -2 -3 -5 -4 -4 -5 -5 -6 -7 -8 -10 -15 -16 -15 -13 -15 -19 -21 -21 -23 -28 -27 -25 -22 -20 -19 -18 -18 -18 -18
-1 0 1 1 2 2 2 1 -1 -2 -2 -2 -0 -0 -3 -4 -4 -5 -5 -5 -6 -7 -8 -9 -12 -16 -15 -14 -13 -17 -21 -21 -22 -28 -27 -24 -21 -20 -19 -19 -18 -18 -18 -18
-2 -2 -2 -1 0 1 2 2 1 -0 -2 -2 -0 0 -4 -4 -4 -5 -6 -6 -7 -8 -9 -10 -14 -16 -15 -14 -15 -20 -21 -22 -27 -27 -24 -21 -20 -19 -18 -18 -18 -18 -18 -18
-2 -2 -2 -2 -2 -1 1 1 1 0 0 1 1 0 -3 -3 -4 -5 -7 -8 -8 -8 -9 -12 -16 -15 -14 -13 -18 -21 -21 -26 -28 -24 -21 -20 -19 -18 -18 -18 -17 -17 -17 -18
-3 -3 -2 -2 -2 -2 -2 -1 1 1 1 1 1 -0 0 -3 -5 -7 -8 -9 -9 -9 -10 -12 -16 -15 -14 -15 -21 -21 -24 -28 -24 -21 -20 -19 -19 -18 -17 -18 -18 -18 -19 -18
-4 -3 -3 -3 -2 -3 -3 -3 -3 -1 -0 0 0 -0 0 -5 -6 -8 -9 -9 -9 -10 -11 -13 -15 -14 -13 -19 -21 -23 -28 -25 -21 -20 -19 -18 -15 -13 -12 -12 -13 -15 -16 -18
-10 -6 -3 -3 -3 -3 -4 -4 -4 -4 -4 -3 -2 -1 -1 -6 -5 -8 -9 -9 -10 -11 -12 -15 -15 -13 -16 -21 -21 -28 -26 -22 -21 -20 -18 -15 -13 -12 -11 -11 -11 -11 -12 -14
-16 -9 -6 -4 -4 -4 -4 -4 -4 -5 -5 -5 -5 -5 -5 -8 -8 -2 -3 -10 -10 -11 -13 -15 -14 -14 -20 -21 -26 -27 -24 -21 -20 -19 -16 -13 -11 -10 -10 -10 -10 -10 -11 -12

GFSNGP_850_dewp_030.txt.gz
Dewpoint
1 0 1 1 2 2 1 1 1 0 1 -1 -2 -2 -2 -0 3 3 2 1 1 1 2 3 3 3 3 3 3 2 2 1 1 1 5 6 7 7 7 7 7 6 6 5
0 1 2 3 2 1 2 1 1 1 1 -2 -2 -1 3 3 3 1 0 1 0 0 0 1 2 2 2 3 3 3 3 3 3 4 5 5 6 5 6 6 6 5 3 2
0 1 2 3 2 2 1 1 1 2 -0 -2 1 3 3 3 2 1 -0 0 0 0 1 1 1 1 1 2 1 1 1 2 3 3 4 4 4 4 3 3 2 2 1 1
0 1 4 0 0 0 1 1 0 0 -0 0 1 2 2 3 2 1 -1 -0 0 0 0 0 0 1 0 1 0 -0 -0 0 1 1 2 2 1 1 1 -0 -1 -1 -1 -0
2 5 2 1 2 2 3 4 1 1 0 0 2 2 3 3 1 -0 -1 -1 -0 -1 -1 -1 -1 -1 -1 -1 -1 -1 -1 -1 -1 -1 -0 -0 -0 0 0 -0 -0 -0 -0 -0
4 5 4 -0 3 3 2 5 1 2 2 2 2 3 2 3 1 1 -0 -0 0 -1 -1 -1 -1 -1 -1 -1 -1 -1 -1 -1 -1 -1 -1 -1 -1 -1 -1 -1 -1 -1 -1 -1
4 4 3 -0 -1 3 6 3 1 2 2 2 2 2 2 3 2 1 1 1 2 2 1 -0 -1 -1 -1 -1 -1 -1 -1 -1 -1 -1 -1 -1 -1 -1 -1 -1 -0 -1 -1 -3
4 5 5 0 3 4 2 1 2 1 1 1 2 2 2 3 2 2 2 2 2 3 2 1 0 -0 -0 -0 -1 -0 -0 -0 -0 -1 -1 -1 -1 -1 -1 -4 -10 -14 -14 -15
2 2 -1 -0 1 0 0 1 1 1 1 1 1 1 2 3 2 2 2 2 2 2 2 2 1 1 1 0 0 -0 -0 -0 -1 -2 -4 -6 -7 -12 -14 -14 -14 -15 -17 -18
3 2 1 1 1 1 2 1 1 1 0 1 1 1 2 2 2 2 2 2 2 2 2 2 1 1 1 0 0 -0 -4 -6 -6 -8 -11 -14 -14 -14 -14 -15 -17 -20 -21 -22
2 1 1 1 1 1 1 1 1 1 0 1 1 1 1 2 2 2 2 2 2 2 2 1 0 -2 -4 -6 -7 -6 -5 -8 -11 -14 -14 -14 -14 -15 -17 -19 -21 -21 -22 -24
2 1 2 2 2 2 2 2 1 1 0 0 2 1 1 1 1 2 2 2 2 1 1 -4 -6 -6 -7 -7 -7 -6 -8 -12 -14 -14 -14 -14 -16 -19 -20 -21 -22 -24 -28 -31
3 4 3 3 3 3 3 2 2 1 -0 -0 1 1 1 0 -1 -1 1 1 1 -3 -6 -5 -4 -5 -6 -6 -7 -9 -12 -15 -14 -14 -14 -16 -20 -21 -22 -22 -24 -27 -29 -27
-1 -0 2 3 1 1 2 2 1 0 0 -1 -0 -0 0 -1 -2 -3 -2 -2 -3 -4 -6 -5 -3 -6 -6 -6 -8 -12 -15 -14 -14 -14 -16 -19 -21 -22 -22 -24 -27 -29 -27 -24
-0 -1 -1 -1 -2 -1 1 2 1 0 0 -1 -1 -1 -0 -1 -2 -3 -5 -5 -2 -4 -6 -5 -4 -5 -6 -8 -10 -15 -15 -15 -14 -15 -18 -21 -21 -22 -24 -27 -29 -27 -25 -23
-2 -2 -1 -0 -0 -1 1 1 0 0 0 -1 -1 -1 -1 -2 -3 -4 -4 -6 -1 -2 -2 -2 -4 -5 -7 -9 -14 -16 -15 -15 -14 -17 -20 -21 -22 -23 -26 -28 -27 -25 -24 -22
-1 -1 -0 -0 -0 -0 1 1 1 1 -0 -1 -1 -2 -2 -2 -2 -3 -5 -6 -3 -0 -4 -4 -5 -6 -8 -12 -16 -16 -15 -14 -16 -20 -21 -21 -23 -25 -28 -26 -24 -23 -22 -20
-1 -0 -0 -0 -0 0 1 1 2 1 0 -1 -2 -1 0 -1 -3 -2 -5 -6 -0 -3 -6 -5 -6 -7 -9 -14 -16 -15 -14 -14 -18 -21 -21 -22 -25 -28 -26 -24 -22 -21 -20 -19
-0 1 0 0 0 0 1 1 1 2 1 -1 -2 -1 -1 -1 -0 -3 -4 -4 -1 -5 -5 -5 -6 -8 -11 -16 -16 -15 -14 -17 -20 -21 -22 -25 -28 -26 -23 -21 -20 -19 -19 -18
-0 0 0 1 1 0 0 0 1 1 -0 -2 -2 -2 -1 1 -1 -4 -4 -4 -1 -5 -6 -5 -7 -9 -13 -16 -15 -14 -15 -19 -21 -22 -24 -28 -26 -22 -20 -20 -19 -19 -19 -18
-2 -0 0 1 2 2 2 2 2 -0 -1 -2 -3 -1 1 0 -3 -4 -4 -2 -4 -6 -6 -7 -8 -10 -15 -16 -15 -14 -16 -21 -21 -23 -28 -26 -22 -20 -20 -19 -19 -18 -18 -18
-3 -2 -2 -2 -1 -1 1 2 2 1 -1 -3 -3 -1 1 -2 -4 -5 -4 -4 -5 -6 -7 -7 -8 -11 -16 -15 -14 -14 -19 -21 -22 -27 -26 -22 -21 -20 -19 -19 -18 -18 -17 -17
-4 -3 -3 -2 -2 -2 -2 0 0 0 -0 -0 -0 -0 0 -1 -3 -4 -4 -5 -6 -7 -7 -8 -9 -12 -16 -15 -14 -15 -20 -21 -26 -27 -22 -21 -20 -19 -17 -17 -17 -17 -18 -19
-8 -5 -4 -3 -3 -3 -3 -3 -1 -0 0 0 -0 -0 -0 -0 -4 -5 -5 -6 -7 -8 -8 -8 -10 -13 -16 -15 -14 -18 -21 -23 -27 -23 -21 -20 -19 -16 -14 -13 -12 -12 -13 -14
-15 -11 -7 -5 -4 -3 -3 -3 -3 -3 -2 -1 -0 0 -0 -0 -0 -3 -5 -7 -8 -9 -8 -9 -11 -14 -15 -14 -14 -20 -21 -27 -25 -22 -20 -19 -16 -13 -12 -11 -11 -11 -12 -13
-20 -17 -10 -6 -5 -4 -4 -3 -4 -4 -4 -4 -2 -1 -0 -0 -1 -3 -3 -8 -9 -9 -9 -10 -11 -14 -15 -14 -17 -21 -25 -27 -23 -21 -20 -17 -13 -12 -11 -10 -10 -10 -10 -11
-20 -20 -20 -17 -14 -9 -5 -4 -4 -4 -4 -5 -5 -5 -3 -2 -2 -2 -2 -3 -7 -9 -10 -11 -12 -15 -14 -14 -20 -22 -27 -24 -22 -20 -18 -14 -12 -11 -10 -10 -9 -9 -9 -9

GFSNGP_850_dewp_033.txt.gz
Dewpoint
1 -0 1 1 2 1 1 0 2 -1 -0 -2 -2 -2 -2 -1 3 3 1 1 1 1 1 2 2 2 3 3 3 3 3 3 3 2 1 0 0 1 4 5 5 6 6 7
1 1 2 3 2 1 1 1 0 1 1 -2 -2 -2 1 3 3 2 0 0 0 0 1 1 1 1 2 2 2 3 2 2 2 2 3 3 4 4 5 5 5 4 4 4
0 0 2 3 2 2 1 1 1 2 0 -2 -1 0 1 3 3 1 -0 -0 -0 -0 0 0 0 0 1 1 1 0 1 1 2 2 2 3 3 3 3 2 2 1 1 0
1 1 4 -1 -0 0 1 0 -0 -0 -1 -1 -1 -1 2 3 2 1 0 -0 -0 -1 -1 -1 -1 -1 -1 -1 -0 -1 -1 -0 0 0 1 1 1 0 0 1 1 1 0 -0
2 3 1 1 1 2 2 3 -0 -0 -1 -1 0 2 2 3 2 1 0 0 -0 -1 -1 -1 -1 -1 -2 -1 -1 -1 -1 -1 -1 -1 -1 -1 -0 -1 -1 -0 -0 -1 -1 -1
3 4 4 -0 3 2 2 6 1 0 0 1 2 3 2 3 2 1 2 1 1 1 -0 -1 -1 -1 -1 -1 -1 -1 -1 -1 -1 -1 -1 -1 -1 -1 -2 -1 -1 -1 -2 -1
4 4 2 -1 2 3 7 4 1 2 2 2 2 1 2 2 2 2 2 2 2 1 1 0 -0 -0 -1 -1 -1 -1 -1 -1 -1 -1 -1 -1 -1 -1 -1 -1 -2 -2 -1 -2
3 4 4 -0 2 5 3 1 1 1 1 1 1 1 1 3 2 2 2 2 2 2 2 2 1 1 0 0 -0 -1 -1 -1 -1 -1 -1 -1 -1 -1 -1 -2 -5 -11 -14 -16
2 1 -2 0 2 1 0 1 1 1 1 1 1 1 1 3 2 2 2 2 2 2 2 2 1 1 1 0 -0 -0 -1 -1 -2 -3 -5 -9 -13 -14 -14 -14 -15 -17 -18 -19
2 1 1 0 1 1 2 1 1 1 1 0 1 1 1 3 2 2 2 2 2 2 2 1 1 -0 -1 -1 -2 -5 -6 -7 -10 -13 -14 -14 -14 -15 -16 -17 -19 -21 -21 -22
2 1 1 1 1 1 2 2 2 2 1 0 1 1 1 2 3 2 2 2 2 2 2 0 -1 -2 -4 -5 -6 -5 -8 -12 -14 -14 -14 -14 -15 -17 -19 -21 -21 -22 -24 -26
3 1 1 1 2 3 3 3 2 2 2 1 0 1 1 1 2 2 2 2 2 2 1 -2 -4 -5 -5 -6 -6 -8 -11 -15 -14 -14 -15 -15 -18 -20 -21 -22 -23 -26 -28 -29
2 3 3 2 2 3 2 1 2 1 1 0 0 1 1 1 1 1 2 2 2 1 -1 -4 -3 -5 -5 -6 -8 -10 -14 -15 -14 -14 -15 -18 -20 -21 -22 -23 -24 -27 -28 -26
2 1 0 2 2 1 -0 -1 2 2 1 0 -0 -0 1 0 -0 -1 1 2 1 -1 -4 -4 -3 -5 -6 -7 -9 -13 -15 -15 -14 -14 -17 -20 -21 -22 -22 -24 -26 -28 -26 -24
-0 -0 -1 -2 -2 -2 -2 -2 1 1 0 0 -0 -1 -0 -0 -1 -2 -2 -0 -1 -3 -5 -4 -3 -6 -6 -8 -10 -15 -15 -15 -14 -16 -19 -21 -21 -22 -23 -26 -29 -27 -25 -23
-1 -2 -2 -1 -0 -0 -0 -0 0 0 0 0 -0 -1 -1 -1 -2 -3 -4 -4 -4 -2 -2 -5 -3 -5 -6 -9 -12 -16 -15 -14 -14 -17 -20 -21 -21 -23 -26 -29 -27 -25 -23 -22
-2 -1 -0 1 1 0 0 -0 0 1 1 1 -0 -1 -1 -1 -2 -4 -5 -5 -4 -1 -1 -4 -3 -5 -7 -9 -14 -16 -15 -14 -15 -18 -21 -21 -22 -25 -29 -27 -25 -22 -21 -20
-1 -0 0 -0 0 1 1 1 1 1 1 1 -0 -2 -2 -2 -2 -3 -3 -5 -5 -2 -1 -1 -4 -6 -8 -11 -15 -16 -15 -14 -16 -20 -21 -22 -24 -29 -27 -24 -21 -20 -20 -19
-1 -0 0 0 1 1 0 0 1 1 1 2 0 -2 -2 -2 -1 -1 -3 -6 -6 -1 -0 -4 -5 -6 -8 -12 -16 -16 -15 -14 -17 -21 -21 -23 -28 -27 -23 -21 -20 -20 -19 -19
-1 1 1 1 1 1 1 1 1 1 0 1 -1 -2 -3 -1 -2 -2 -3 -5 -5 0 -3 -5 -5 -7 -9 -13 -16 -15 -15 -15 -19 -21 -22 -28 -27 -22 -21 -20 -19 -19 -19 -18
-2 -2 -1 0 1 1 2 2 2 2 0 -1 -2 -3 -3 -3 -1 -0 -5 -5 -3 -2 -5 -6 -6 -8 -10 -14 -16 -15 -14 -16 -20 -21 -27 -28 -23 -21 -20 -19 -19 -19 -19 -19
-4 -3 -3 -2 -2 -2 -2 0 1 1 0 -2 -3 -3 -3 -1 -0 -1 -2 -2 -3 -2 -5 -6 -6 -8 -10 -14 -16 -15 -14 -17 -21 -23 -28 -24 -21 -20 -19 -17 -17 -17 -18 -18
-8 -6 -5 -4 -3 -3 -2 -2 -0 -0 -0 -1 -1 -1 -1 -0 -0 -0 -0 -5 -4 -4 -6 -6 -7 -8 -10 -15 -16 -15 -14 -19 -21 -28 -26 -22 -21 -19 -16 -14 -13 -13 -13 -14
-16 -13 -11 -8 -5 -4 -3 -3 -3 -2 -0 -0 -1 -1 -1 -1 -1 -1 -4 -4 -4 -6 -6 -7 -8 -9 -11 -15 -16 -14 -15 -21 -23 -28 -23 -21 -20 -16 -14 -12 -12 -12 -12 -13
-21 -18 -13 -11 -9 -7 -5 -4 -3 -4 -4 -2 -1 -1 -1 -1 -1 -1 -2 -2 -3 -7 -7 -8 -8 -9 -11 -15 -15 -14 -18 -21 -27 -26 -22 -21 -18 -14 -12 -11 -11 -11 -11 -10
-24 -22 -21 -19 -17 -16 -11 -6 -4 -4 -4 -4 -4 -3 -1 -1 -2 -2 -1 -2 -4 -7 -8 -8 -9 -9 -11 -15 -15 -14 -20 -22 -28 -24 -21 -20 -16 -13 -11 -11 -10 -10 -9 -9
-22 -22 -22 -20 -19 -19 -20 -17 -9 -4 -4 -4 -5 -5 -5 -2 -2 -2 -2 -2 -2 -4 -9 -9 -9 -10 -12 -15 -14 -16 -20 -26 -27 -23 -21 -18 -14 -12 -11 -10 -10 -9 -8 -8

GFSNGP_850_dewp_036.txt.gz
Dewpoint
0 0 2 2 2 1 3 1 2 -2 -2 -4 -4 -2 -2 0 3 2 1 1 0 0 1 1 1 1 1 2 2 3 2 3 3 2 3 3 3 2 3 2 1 2 5 6
3 1 1 3 1 1 1 1 0 -1 -0 -3 -3 -2 -1 1 2 2 1 0 0 -0 -0 -1 -0 0 0 0 0 0 1 1 2 2 2 3 4 4 4 5 3 2 4 4
4 1 1 3 2 1 1 0 0 2 -1 -3 -2 -2 -1 2 2 1 0 -0 -0 -0 -1 -1 -1 -1 -1 -1 -0 -0 -0 0 1 1 2 2 3 3 3 3 3 3 2 1
4 2 5 0 -0 -0 0 -1 -1 -1 -1 -2 -2 -1 1 2 2 1 0 0 0 -1 -1 -1 -2 -1 -1 -0 -0 -1 -1 -0 0 0 1 1 1 1 1 1 0 -0 -0 -1
4 3 0 -2 0 1 2 4 -1 -1 -1 -2 -1 2 2 2 2 1 1 1 1 -0 -1 -1 -1 -1 -1 -1 -1 -1 -1 -1 -0 -0 -0 -0 -0 -0 -1 -1 -1 -1 -1 -1
3 4 4 0 2 0 1 5 1 -0 -0 0 2 4 3 3 2 2 2 2 1 -0 -0 -1 -1 -1 -1 -1 -1 -2 -1 -1 -1 -1 -1 -1 -1 -1 -1 -1 -2 -2 -2 -2
3 2 1 -1 2 2 7 5 1 2 2 2 2 2 2 2 2 2 2 2 1 1 1 0 -0 -0 -0 -1 -1 -1 -1 -1 -1 -1 -1 -2 -2 -2 -2 -2 -2 -2 -2 -2
3 4 3 -1 2 3 2 1 1 2 1 1 1 1 1 2 2 2 2 2 2 2 1 1 1 0 -0 -0 -0 -1 -1 -1 -1 -1 -1 -2 -2 -2 -2 -3 -6 -11 -15 -16
1 0 -2 0 2 2 0 1 1 1 1 1 1 1 1 2 2 2 1 2 2 2 1 1 1 0 -0 -1 -1 -1 -2 -2 -4 -8 -11 -13 -14 -14 -15 -15 -17 -19 -20 -20
2 -0 -1 -0 1 1 1 1 1 1 1 1 1 1 1 2 2 2 2 1 2 2 1 1 -0 -1 -1 -3 -5 -6 -8 -12 -14 -14 -14 -14 -15 -16 -18 -20 -21 -21 -22 -22
2 1 1 1 1 1 2 2 2 2 2 2 1 1 1 2 2 2 2 2 2 2 2 0 -1 -2 -3 -5 -6 -8 -12 -15 -15 -15 -15 -16 -17 -19 -21 -21 -22 -23 -25 -27
3 1 0 1 2 2 2 2 2 2 2 1 1 0 1 1 2 2 2 2 2 2 2 -0 -2 -3 -5 -6 -7 -9 -14 -15 -15 -15 -15 -17 -20 -21 -22 -22 -24 -26 -28 -29
1 1 2 2 1 1 2 2 1 0 2 1 1 0 1 1 1 2 2 2 2 2 1 -1 -4 -4 -5 -6 -8 -11 -15 -15 -15 -15 -16 -19 -21 -22 -22 -23 -24 -27 -28 -26
2 3 1 1 2 2 1 -1 -1 -2 2 2 0 0 0 1 1 1 2 2 2 2 1 -3 -3 -4 -5 -7 -9 -13 -15 -15 -15 -15 -18 -20 -21 -22 -23 -24 -26 -27 -26 -25
1 1 0 -0 -1 -2 -2 -1 -1 -1 1 1 0 0 -0 -0 0 1 0 1 2 1 -0 -4 -4 -4 -5 -7 -10 -14 -16 -15 -15 -16 -19 -21 -21 -22 -23 -26 -28 -27 -25 -23
-0 -0 -1 -2 -1 0 0 -0 -0 -0 0 0 0 0 -0 -1 -0 -0 -1 -1 1 1 -2 -5 -4 -3 -5 -7 -10 -15 -15 -15 -15 -16 -20 -21 -21 -22 -25 -29 -27 -25 -23 -21
-2 -2 -1 0 1 1 1 1 0 -0 1 1 1 0 -0 -1 -1 -2 -2 -2 -2 -1 -2 -2 -2 -2 -5 -8 -11 -16 -16 -15 -15 -17 -20 -21 -22 -23 -29 -27 -24 -22 -21 -20
-2 -0 0 0 1 1 1 0 0 1 0 1 1 1 -0 -1 -1 -1 -2 -4 -5 -4 -2 -3 -2 -2 -6 -8 -11 -16 -16 -15 -15 -18 -21 -21 -22 -28 -28 -24 -22 -21 -20 -20
-0 -0 0 0 0 0 1 1 -0 0 1 1 1 1 0 -2 -2 -2 -3 -4 -5 -5 -3 -1 -1 -2 -6 -8 -12 -16 -16 -15 -15 -18 -21 -22 -27 -28 -24 -22 -21 -21 -20 -20
-1 0 1 1 1 1 1 1 2 2 1 1 1 1 -1 -2 -3 -3 -3 -4 -3 -4 -1 -0 -0 -4 -7 -9 -12 -16 -15 -15 -15 -19 -21 -23 -29 -25 -22 -21 -21 -20 -20 -20
-2 -2 -1 -0 -1 -1 -0 1 1 1 2 1 -1 -2 -2 -3 -3 -2 -2 -3 -3 -1 -1 -1 -2 -6 -7 -9 -13 -16 -15 -15 -16 -20 -21 -27 -27 -23 -22 -20 -19 -18 -18 -19
-4 -4 -4 -3 -3 -3 -2 -2 0 1 1 1 -0 -2 -3 -3 -3 -3 -3 -1 -1 -2 -3 -3 -7 -6 -7 -9 -13 -16 -15 -15 -16 -21 -23 -28 -24 -22 -20 -18 -16 -15 -15 -15
-11 -11 -10 -9 -7 -5 -4 -3 -3 -1 0 0 -0 -1 -1 -1 -1 -1 -1 -1 -1 -2 -2 -3 -7 -7 -8 -9 -13 -16 -15 -15 -17 -21 -26 -27 -23 -21 -18 -16 -14 -13 -13 -14
-19 -18 -16 -13 -10 -8 -7 -5 -4 -3 -3 -1 -0 -1 -1 -1 -1 -1 -2 -2 -2 -1 -2 -4 -7 -7 -8 -9 -13 -15 -15 -14 -18 -21 -28 -25 -22 -20 -16 -14 -13 -12 -12 -12
-24 -23 -20 -18 -18 -19 -17 -10 -6 -4 -4 -4 -4 -1 -1 -1 -2 -2 -3 -2 -2 -2 -3 -5 -8 -8 -8 -10 -12 -15 -15 -14 -20 -23 -27 -24 -22 -19 -15 -13 -12 -11 -10 -9
-24 -22 -21 -21 -21 -20 -20 -20 -14 -8 -5 -4 -4 -5 -4 -2 -2 -2 -2 -2 -2 -2 -2 -4 -4 -7 -8 -10 -12 -15 -15 -15 -20 -26 -27 -23 -21 -17 -13 -12 -11 -10 -9 -9
-26 -25 -25 -23 -21 -20 -19 -18 -19 -15 -9 -6 -4 -5 -5 -5 -3 -3 -2 -2 -2 -2 -2 -3 -5 -8 -9 -10 -12 -15 -14 -16 -21 -27 -26 -22 -20 -15 -13 -11 -10 -10 -9 -8

GFSNGP_850_dewp_039.txt.gz
Dewpoint
-0 -0 2 2 2 1 3 2 3 -1 -4 -4 -5 -3 -1 -1 1 2 2 1 1 1 1 1 0 -0 1 1 0 0 0 1 2 2 3 3 3 3 3 3 3 3 3 4
4 1 1 2 1 0 1 1 0 -1 -1 -5 -5 -4 -2 -0 2 2 1 1 1 0 0 -0 -1 -0 0 -0 -0 -0 0 1 1 1 2 2 2 2 3 3 3 3 2 3
4 1 1 3 2 1 0 -0 -0 1 -2 -3 -2 -2 -1 0 3 2 1 1 0 0 -0 -1 -1 -1 -1 -1 -0 -0 -0 0 1 1 1 1 2 2 2 2 1 2 2 2
5 2 5 2 -1 -1 -0 -1 -1 -2 -2 -3 -2 -2 -1 2 2 1 1 1 0 -0 -1 -1 -1 -1 -1 -0 -0 -1 -0 -0 0 1 1 1 1 1 1 1 1 0 0 -0
4 3 0 -2 -1 1 2 3 -1 -1 -2 -2 -2 1 3 2 2 1 1 1 -0 -1 -1 -1 -1 -1 -1 -1 -1 -0 -0 -0 -0 -0 -0 -0 -0 -0 -0 -0 -0 -1 -1 -1
2 3 3 1 2 -1 -0 5 1 -1 -1 -0 1 4 4 2 2 2 1 1 -0 -0 -1 -1 -1 -1 -1 -1 -1 -1 -1 -1 -1 -1 -1 -1 -1 -1 -1 -1 -2 -2 -2 -2
2 2 0 -3 2 1 6 5 2 1 2 2 2 2 3 2 2 2 1 1 1 0 -0 -0 -0 -1 -1 -1 -1 -1 -1 -1 -1 -2 -2 -2 -2 -2 -2 -2 -2 -2 -3 -5
2 3 3 -1 3 4 2 2 2 2 2 1 1 2 2 2 2 2 1 1 1 1 1 0 0 -0 -1 -1 -1 -1 -1 -1 -1 -2 -2 -2 -2 -3 -5 -9 -14 -16 -17 -18
-0 0 -2 -1 -0 2 1 1 2 2 2 2 1 1 2 2 2 2 2 2 2 1 1 1 0 -0 -2 -2 -2 -2 -3 -5 -7 -9 -12 -13 -14 -15 -16 -17 -18 -20 -20 -20
-0 -2 -2 -1 0 1 1 2 2 1 1 1 2 1 2 2 2 2 1 1 1 1 1 0 -1 -1 -2 -4 -6 -7 -10 -13 -15 -14 -15 -15 -16 -18 -20 -20 -21 -21 -22 -23
1 -0 1 0 -0 1 1 2 1 1 1 1 2 1 1 2 2 2 2 1 1 1 1 0 -1 -2 -3 -5 -7 -10 -14 -15 -15 -15 -15 -17 -19 -20 -21 -22 -23 -24 -25 -27
1 -1 -1 -1 1 2 2 2 1 1 2 2 1 1 1 1 2 2 2 2 1 1 1 1 -1 -2 -3 -6 -8 -10 -14 -15 -15 -16 -16 -18 -20 -21 -22 -22 -23 -25 -28 -29
-0 1 1 2 2 2 1 1 2 1 -0 0 1 1 1 1 1 2 2 2 2 2 2 1 -0 -2 -4 -6 -8 -11 -14 -15 -15 -16 -16 -19 -21 -22 -22 -23 -24 -28 -29 -29
2 2 2 1 1 1 2 1 -1 -1 -2 -2 1 1 0 0 1 1 2 2 2 2 2 2 0 -3 -4 -6 -8 -11 -15 -15 -15 -15 -17 -19 -21 -22 -22 -23 -25 -27 -29 -26
1 1 1 1 0 -1 -1 -1 -1 -1 -1 -1 1 1 0 0 0 1 1 2 2 2 2 2 1 -3 -3 -6 -7 -10 -15 -15 -15 -15 -17 -20 -21 -22 -22 -24 -29 -28 -26 -24
0 1 0 -0 -1 -1 1 1 0 0 -0 -1 0 0 -0 -0 -0 -0 0 1 1 2 2 1 1 -3 -4 -4 -7 -10 -15 -16 -15 -15 -17 -20 -21 -22 -23 -28 -29 -26 -23 -22
-1 -1 -2 -1 0 0 0 1 1 0 0 0 0 0 -0 -0 -1 -1 -1 -0 -0 0 1 1 0 -3 -2 -0 -7 -9 -15 -16 -15 -15 -17 -20 -21 -22 -25 -29 -27 -23 -22 -22
-2 -1 1 1 1 1 1 1 1 -0 -0 1 0 1 0 -0 -1 -1 -1 -1 -1 -1 -0 -0 -2 -2 -1 -0 -6 -9 -14 -16 -15 -15 -17 -20 -21 -22 -28 -27 -23 -22 -22 -22
-0 2 2 2 1 1 1 1 1 1 -0 0 1 1 1 1 -1 -2 -2 -2 -3 -3 -2 -2 -3 -2 -1 -1 -7 -9 -14 -16 -15 -15 -17 -20 -21 -25 -28 -24 -23 -22 -21 -22
-0 1 1 1 1 1 1 1 1 1 1 1 0 1 1 1 -1 -2 -2 -3 -3 -3 -4 -5 -2 0 -1 -1 -7 -9 -14 -16 -15 -15 -17 -20 -21 -28 -27 -23 -22 -21 -20 -20
-1 -1 -1 -1 -2 -3 -2 -2 -1 1 1 1 1 -0 -1 -2 -2 -3 -3 -3 -3 -4 -5 -6 -1 -1 -1 -2 -7 -10 -14 -16 -15 -15 -17 -21 -22 -28 -24 -22 -21 -19 -18 -17
-4 -4 -5 -5 -5 -5 -5 -4 -3 -2 -0 1 0 0 -1 -3 -3 -3 -3 -3 -3 -1 -2 -2 -2 -1 -1 -3 -8 -10 -14 -16 -15 -15 -17 -21 -25 -27 -23 -22 -19 -17 -16 -16
-11 -12 -12 -12 -12 -10 -9 -7 -5 -4 -3 -1 -0 -0 -1 -1 -1 -2 -2 -1 -1 -2 -1 -2 -1 -2 -2 -5 -8 -10 -14 -15 -15 -15 -18 -21 -26 -26 -23 -20 -17 -15 -14 -14
-18 -19 -18 -16 -16 -17 -17 -13 -8 -6 -4 -4 -4 -2 -1 -1 -1 -1 -2 -2 -2 -2 -2 -2 -2 -2 -5 -7 -8 -10 -13 -15 -15 -15 -18 -21 -27 -25 -22 -19 -16 -14 -13 -11
-24 -24 -23 -23 -23 -23 -22 -22 -19 -13 -8 -5 -4 -4 -4 -2 -2 -2 -2 -2 -2 -3 -3 -3 -3 -2 -4 -7 -8 -10 -13 -15 -15 -15 -19 -22 -27 -24 -22 -18 -14 -13 -11 -10
-24 -24 -24 -24 -24 -23 -22 -21 -20 -19 -17 -12 -7 -5 -5 -5 -3 -2 -2 -2 -3 -3 -3 -3 -3 -3 -3 -4 -6 -10 -12 -15 -15 -15 -19 -24 -27 -24 -21 -17 -14 -12 -11 -10
-26 -26 -25 -25 -24 -22 -20 -18 -16 -16 -16 -15 -13 -8 -5 -5 -5 -4 -3 -3 -3 -3 -3 -3 -3 -3 -3 -3 -7 -9 -12 -15 -15 -15 -19 -25 -27 -23 -21 -16 -13 -12 -10 -9

GFSNGP_850_dewp_042.txt.gz
Dewpoint
1 0 3 3 2 2 3 3 3 1 -1 -3 -4 -3 -1 -1 2 2 2 1 1 1 1 1 1 0 0 1 1 0 0 1 1 2 2 2 2 2 3 2 3 3 3 3
3 1 0 2 2 1 2 2 1 1 -0 -4 -5 -4 -2 -1 2 2 2 1 1 0 0 0 -0 -1 -1 -1 -1 -0 0 0 1 1 2 2 2 2 2 2 3 3 3 3
3 1 1 3 2 1 1 0 1 2 -1 -2 -2 -1 -1 -1 2 2 1 1 0 0 -0 -0 -1 -1 -1 -1 -0 0 0 0 0 1 1 1 1 1 1 1 2 2 2 1
3 2 4 1 -1 -0 -0 -1 -1 -1 -2 -3 -2 -2 -1 -0 2 2 1 1 0 -0 -1 -1 -1 -1 -1 -0 -0 -0 -0 -0 0 0 0 -0 1 1 1 1 0 -0 -1 -1
3 3 1 0 1 1 1 1 -2 -1 -2 -3 -3 -1 1 2 2 2 1 1 -0 -1 -1 -1 -1 -1 -1 -1 -1 -0 -0 -0 -0 -0 -1 -0 -0 -0 -0 -1 -1 -1 -2 -2
3 3 4 4 -0 -2 -1 6 1 -2 -2 -2 -0 4 3 2 2 2 1 1 -0 -1 -1 -1 -1 -1 -1 -1 -1 -1 -1 -1 -1 -1 -1 -1 -1 -2 -2 -2 -2 -2 -2 -2
4 4 1 -0 -0 0 6 5 1 -1 -1 1 3 3 3 2 2 2 1 1 -0 -0 -0 -1 -1 -1 -1 -1 -1 -1 -1 -1 -2 -2 -2 -2 -2 -2 -2 -4 -7 -12 -16 -17
3 4 3 2 3 5 3 2 2 2 2 2 2 2 2 2 2 2 1 1 1 0 -0 -0 -0 -1 -1 -1 -2 -2 -2 -2 -2 -3 -4 -6 -8 -11 -15 -17 -18 -20 -20 -21
0 2 -1 -0 1 2 1 2 3 1 1 1 1 1 1 1 1 2 2 1 1 1 1 0 0 -1 -2 -2 -3 -4 -7 -10 -12 -13 -14 -15 -15 -16 -17 -19 -20 -21 -22 -23
-0 -1 -1 -2 1 1 1 1 2 2 1 1 2 3 2 1 1 2 2 1 1 1 1 0 -1 -2 -3 -5 -7 -9 -12 -15 -15 -15 -15 -16 -17 -19 -20 -21 -21 -22 -23 -25
0 -1 1 -0 -1 1 1 1 1 1 1 1 1 1 1 2 1 1 2 2 1 1 1 1 -0 -2 -4 -6 -9 -11 -14 -15 -15 -16 -16 -17 -19 -21 -22 -22 -23 -24 -25 -28
1 -1 -1 -1 -1 1 1 2 1 1 1 1 1 1 1 1 1 1 2 2 1 1 1 1 0 -1 -3 -5 -8 -11 -14 -16 -16 -16 -17 -18 -20 -21 -22 -22 -23 -24 -27 -30
-0 1 1 1 1 2 2 2 1 1 2 1 -0 0 1 1 1 1 2 2 2 1 1 1 1 -1 -2 -4 -7 -10 -13 -16 -16 -16 -16 -18 -20 -21 -22 -22 -23 -26 -29 -29
1 1 2 2 2 1 1 1 1 -1 -1 -1 -2 -2 1 1 1 1 2 2 2 2 1 1 1 1 -1 -3 -6 -8 -12 -15 -16 -16 -16 -17 -20 -21 -22 -22 -24 -28 -29 -26
2 2 1 1 1 0 -0 -1 -1 -0 0 -0 -1 -1 0 1 0 0 1 1 2 2 2 1 1 1 -1 -3 -5 -7 -10 -15 -16 -16 -16 -17 -19 -21 -22 -22 -26 -29 -27 -23
1 1 1 0 -0 -1 -0 0 1 1 1 0 -0 -1 -0 0 -0 -0 -0 0 1 1 2 2 2 2 1 -2 -4 -6 -9 -13 -16 -16 -16 -16 -19 -21 -22 -23 -29 -29 -24 -22
0 -1 -2 -2 -0 0 1 1 1 1 1 1 1 0 0 -0 -1 -0 -1 -1 -0 0 1 2 2 1 1 -2 -1 -1 -8 -12 -16 -16 -16 -16 -19 -21 -22 -24 -29 -26 -23 -22
-1 -1 1 1 1 1 1 1 1 1 1 0 -0 1 0 0 0 -0 -1 -1 -1 -1 -0 0 1 1 0 -3 0 -0 -5 -10 -15 -16 -16 -16 -18 -21 -22 -27 -28 -24 -23 -22
0 1 2 2 2 1 1 1 1 1 1 1 -0 0 0 0 0 -0 -1 -2 -2 -2 -2 -1 -0 -0 -2 -3 -0 -0 -5 -10 -14 -16 -16 -16 -18 -21 -22 -28 -26 -23 -22 -21
-0 1 0 0 0 -1 -1 -1 0 1 1 1 1 1 0 0 0 -0 -1 -2 -3 -3 -3 -3 -2 -1 -3 -1 -1 -1 -2 -9 -14 -16 -16 -15 -18 -21 -22 -28 -25 -23 -21 -19
-1 -1 -1 -2 -3 -4 -4 -4 -3 -2 -1 -0 1 1 0 -1 -2 -2 -2 -3 -3 -2 -3 -3 -2 -2 -4 -1 -1 -1 -3 -10 -13 -16 -15 -15 -17 -21 -24 -28 -24 -22 -20 -18
-3 -4 -6 -9 -11 -10 -9 -7 -6 -5 -4 -3 -1 -0 -0 -0 -1 -2 -3 -2 -2 -3 -4 -3 -2 -3 -4 -2 -2 -1 -5 -10 -13 -15 -15 -15 -17 -20 -25 -27 -24 -21 -18 -16
-11 -13 -15 -16 -16 -16 -16 -14 -12 -9 -6 -5 -4 -3 -1 -1 -1 -1 -1 -2 -2 -2 -2 -2 -2 -2 -3 -2 -2 -2 -5 -10 -13 -15 -15 -15 -17 -20 -26 -26 -23 -20 -17 -15
-8 -7 -3 -21 -22 -22 -23 -22 -22 -18 -13 -8 -5 -4 -4 -3 -1 -1 -1 -2 -2 -2 -2 -2 -3 -3 -3 -3 -3 -2 -7 -10 -12 -15 -15 -15 -17 -20 -27 -26 -23 -19 -15 -13
-8 -21 -26 -24 -23 -23 -23 -23 -22 -21 -19 -16 -11 -7 -5 -5 -5 -3 -2 -2 -2 -2 -3 -3 -3 -4 -3 -3 -2 -2 -6 -10 -12 -15 -15 -15 -17 -21 -27 -26 -22 -19 -14 -12
-21 -25 -26 -26 -25 -24 -23 -21 -19 -17 -17 -17 -15 -13 -9 -6 -5 -5 -3 -2 -3 -3 -3 -4 -4 -4 -4 -3 -3 -4 -6 -9 -11 -14 -15 -15 -16 -22 -27 -25 -22 -18 -14 -12
-22 -25 -26 -25 -24 -24 -23 -21 -18 -16 -15 -15 -15 -14 -13 -10 -6 -5 -5 -3 -3 -3 -4 -4 -4 -4 -4 -3 -3 -3 -4 -5 -9 -13 -11 -12 -17 -24 -27 -24 -22 -18 -14 -12

GFSNGP_850_dewp_045.txt.gz
Dewpoint
1 2 2 3 3 3 5 2 4 2 -2 -4 -4 -4 -3 -0 2 2 2 2 1 1 1 1 1 0 0 0 0 0 0 0 1 1 2 2 2 2 2 2 2 2 2 2
-0 1 2 2 2 2 2 1 1 1 2 -4 -5 -4 -0 1 2 2 2 2 1 1 1 0 -0 -0 -1 -1 -0 -0 0 0 0 1 2 2 2 2 2 2 2 2 2 2
1 1 1 2 1 1 1 1 1 3 -0 -2 -2 -3 -1 1 2 2 2 2 1 1 -0 -0 -1 -1 -0 -1 -0 -0 0 0 0 1 1 1 1 1 1 1 1 1 0 -0
1 1 3 -2 -1 -1 -0 -0 -0 -0 -1 -3 -2 -2 -1 -1 -0 2 2 1 1 -0 -1 -1 -1 -1 -1 -0 -0 -0 0 0 0 0 1 0 1 1 0 -0 -1 -1 -1 -1
2 3 0 1 1 1 1 1 -1 -1 -2 -3 -2 -1 1 -0 0 2 2 1 0 -1 -1 -1 -1 -1 -0 -1 -0 0 0 -0 -0 -0 -0 -0 -0 -0 -1 -2 -2 -2 -2 -2
4 3 4 3 -1 -1 -0 5 0 -2 -2 -2 -0 1 0 2 2 2 2 1 -0 -1 -1 -1 -1 -1 -1 -1 -1 -1 -1 -1 -1 -1 -1 -1 -2 -2 -2 -2 -2 -4 -6 -8
4 4 1 -2 -0 -0 6 4 1 -1 -2 -2 1 -0 2 2 2 2 2 1 -0 -0 -1 -1 -1 -1 -1 -1 -1 -1 -2 -2 -2 -2 -2 -2 -2 -3 -7 -14 -18 -19 -19 -20
3 3 3 1 2 4 2 2 2 1 0 1 1 2 2 2 2 2 2 1 0 -0 -0 -1 -1 -2 -1 -1 -1 -1 -2 -2 -2 -3 -5 -7 -11 -16 -17 -19 -21 -21 -21 -22
1 1 -3 2 1 2 2 2 2 1 2 2 1 1 1 1 1 2 2 1 1 0 0 -0 -1 -2 -2 -2 -2 -3 -5 -8 -10 -12 -14 -16 -17 -18 -20 -21 -22 -22 -22 -23
-0 -2 -2 -2 0 1 1 2 2 1 1 1 2 2 3 3 3 1 2 2 1 1 1 -0 -1 -3 -5 -6 -6 -8 -12 -14 -15 -15 -16 -17 -18 -19 -21 -22 -22 -23 -24 -26
-0 -1 -0 -0 0 1 1 1 1 2 1 1 1 2 2 3 4 3 1 2 1 1 1 0 -1 -3 -5 -7 -8 -11 -14 -15 -16 -16 -16 -17 -19 -20 -22 -22 -23 -23 -25 -28
1 -1 -1 -2 -1 -0 1 1 2 2 1 1 1 1 1 1 1 2 3 2 2 1 1 1 1 -1 -3 -5 -8 -10 -13 -16 -16 -16 -16 -17 -19 -20 -21 -22 -22 -23 -26 -30
-1 0 -0 -1 -0 1 1 2 2 1 1 1 1 1 0 1 1 1 1 1 2 2 2 1 1 1 -1 -3 -6 -9 -11 -15 -16 -16 -16 -17 -18 -20 -21 -22 -23 -24 -28 -30
1 1 2 2 2 2 2 2 1 1 -0 -1 -1 -1 -2 -1 1 1 1 1 1 2 2 1 1 1 0 -1 -2 -6 -9 -12 -16 -16 -16 -16 -17 -20 -21 -22 -22 -24 -29 -28
2 1 1 2 1 1 0 0 -0 -0 -0 0 0 -0 -1 -1 0 1 1 1 2 2 2 2 1 1 1 -0 -2 -3 -6 -10 -14 -16 -16 -16 -17 -19 -21 -21 -22 -26 -29 -26
0 1 1 1 0 0 -0 -0 -0 0 1 1 1 1 -0 -1 -0 0 0 0 1 1 1 2 2 1 1 1 -1 -2 -4 -8 -11 -15 -16 -16 -16 -18 -20 -21 -22 -28 -28 -24
0 0 -0 -0 -1 -0 0 1 1 1 1 1 0 0 1 -0 -0 -0 -0 -0 -0 -0 0 1 1 1 1 1 1 -2 -4 -2 -8 -14 -16 -16 -16 -17 -20 -21 -22 -29 -26 -24
-1 -1 -0 0 1 1 1 1 1 1 1 1 1 -0 0 1 0 0 -0 -1 -1 -1 -1 -1 -0 0 1 1 0 -3 -4 -1 -2 -11 -15 -16 -16 -16 -19 -21 -23 -28 -25 -23
-0 1 2 1 1 1 1 1 1 1 1 1 1 1 0 0 0 0 -0 -1 -1 -2 -1 -1 -1 -0 0 0 -0 -2 -3 -1 -2 -10 -14 -16 -16 -16 -18 -21 -24 -28 -24 -22
0 0 -0 0 -1 -1 -2 -2 -2 -1 -0 0 1 1 0 -0 -0 0 0 -0 -1 -2 -3 -3 -2 -2 0 -0 -1 -1 -1 -1 -2 -5 -13 -15 -16 -16 -18 -21 -24 -27 -24 -21
-1 -1 -2 -2 -4 -6 -7 -8 -7 -6 -5 -3 -1 0 0 0 -0 -1 -2 -1 -1 -2 -2 -2 -3 -2 -1 -1 -2 -1 -2 -2 -2 -3 -13 -15 -15 -16 -17 -20 -25 -27 -23 -20
-2 -1 -3 -10 -11 -12 -13 -13 -11 -9 -8 -6 -5 -3 -1 -0 -0 -0 -1 -2 -3 -2 -1 -1 -1 -2 -3 -2 -2 -2 -3 -3 -2 -6 -13 -15 -15 -15 -17 -20 -26 -26 -23 -19
-8 -8 -11 -15 -17 -20 -22 -22 -21 -16 -13 -11 -8 -5 -4 -3 -2 -1 -0 -1 -1 -2 -2 -2 -2 -2 -2 -3 -3 -3 -4 -3 -3 -4 -12 -15 -15 -15 -17 -20 -26 -26 -23 -19
-4 -7 -5 -5 -12 -22 -24 -24 -23 -21 -19 -17 -14 -10 -7 -6 -5 -3 -2 -2 -1 -2 -2 -2 -3 -3 -4 -4 -4 -4 -4 -3 -3 -5 -8 -15 -15 -15 -17 -20 -26 -25 -23 -19
-2 -4 -10 -23 -24 -26 -25 -24 -22 -20 -19 -18 -17 -15 -11 -9 -6 -5 -5 -2 -2 -2 -2 -3 -3 -4 -5 -4 -4 -4 -4 -3 -3 -6 -13 -15 -15 -15 -16 -19 -26 -25 -23 -19
-11 -20 -23 -25 -26 -25 -25 -23 -21 -19 -18 -17 -16 -15 -15 -13 -10 -6 -5 -4 -3 -3 -3 -3 -4 -4 -5 -4 -4 -4 -4 -4 -4 -6 -8 -14 -15 -11 -4 -12 -26 -25 -23 -20
-7 -17 -23 -25 -25 -24 -23 -22 -20 -18 -17 -16 -15 -15 -15 -14 -13 -10 -6 -5 -5 -3 -4 -4 -4 -4 -4 -4 -4 -4 -4 -4 -4 -4 -6 -14 -12 -6 -12 -21 -26 -23 -23 -19

GFSNGP_850_dewp_048.txt.gz
Dewpoint
0 2 2 2 3 5 6 4 5 3 1 -3 -4 -4 -3 -2 -0 2 3 3 2 2 1 1 1 1 0 0 1 1 1 0 0 1 1 2 2 2 2 2 2 1 2 1
-1 -0 2 2 2 3 4 4 3 1 1 -2 -5 -4 -4 -2 1 2 3 2 2 1 1 1 0 -0 0 0 -0 -0 -0 -0 0 0 1 2 2 2 2 2 2 2 2 1
-0 1 1 1 1 1 2 2 3 3 0 -2 -3 -4 -3 -2 2 2 2 2 2 1 1 -0 -1 -1 -0 -0 -0 -0 -1 -0 0 1 1 1 1 1 1 1 1 1 0 -0
0 0 2 -1 -2 -1 -0 -0 0 0 -1 -2 -2 -4 -3 -1 1 2 2 2 2 1 0 -1 -1 -1 -0 -0 -0 -1 -1 -0 0 1 1 1 1 1 1 0 -1 -1 -2 -2
1 1 0 -1 1 1 0 0 -2 -0 -1 -2 -2 -2 -0 -0 0 -0 0 2 2 1 -1 -1 -1 -1 -0 -0 -0 -0 0 0 0 0 0 0 0 -0 -1 -2 -2 -2 -2 -3
3 2 4 -0 0 -1 -1 4 1 -2 -1 -2 -0 1 -0 -1 -0 1 2 2 1 -0 -1 -1 -1 -1 -0 -0 -0 -1 -1 -1 -0 -0 0 -0 -2 -2 -2 -2 -5 -11 -16 -20
3 4 1 -2 -3 -0 4 2 1 -1 -2 -2 0 -2 -2 -0 1 2 2 2 1 -1 -1 -1 -1 -1 -1 -1 -1 -2 -1 -1 -1 -1 -2 -2 -2 -3 -10 -17 -19 -20 -21 -22
3 4 2 -2 1 3 1 2 2 0 -2 -2 -2 -0 1 2 2 2 2 1 0 -0 -1 -1 -1 -1 -2 -2 -2 -2 -2 -2 -2 -2 -2 -4 -10 -16 -18 -20 -21 -22 -22 -24
1 1 -4 -2 1 1 2 2 2 1 1 -1 0 2 1 1 1 2 2 1 0 -0 -0 -1 -1 -2 -2 -2 -3 -4 -3 -4 -6 -7 -11 -16 -17 -18 -20 -21 -22 -22 -23 -24
-0 -2 -2 -2 0 1 2 2 1 1 2 2 1 2 3 4 4 3 1 2 1 0 0 -0 -1 -2 -3 -5 -7 -8 -11 -13 -13 -14 -16 -17 -18 -19 -20 -21 -22 -23 -24 -26
-1 -2 -1 -0 -1 -1 1 1 2 2 1 2 2 2 3 3 3 4 5 3 2 1 1 1 -0 -2 -5 -7 -9 -11 -14 -15 -16 -16 -16 -17 -18 -19 -21 -22 -22 -23 -24 -27
1 -2 -2 -2 -3 -2 1 1 1 1 1 1 1 1 1 1 2 2 3 4 3 2 1 1 1 -0 -3 -5 -8 -10 -13 -16 -16 -16 -16 -17 -18 -20 -21 -22 -22 -23 -24 -28
1 -1 0 -0 -2 -1 0 1 1 2 1 1 1 1 1 1 1 1 1 2 2 3 3 2 1 1 -0 -3 -5 -7 -10 -13 -16 -16 -16 -17 -17 -18 -19 -20 -22 -22 -23 -29
-3 1 2 1 0 0 1 2 2 1 1 0 -0 -1 -1 -1 -1 -1 1 1 1 1 2 2 2 1 1 0 -2 -4 -7 -10 -13 -16 -16 -16 -16 -17 -19 -20 -21 -22 -23 -28
-6 -1 1 2 2 2 2 2 1 0 -0 -0 -0 -0 -0 -0 -1 -1 -0 1 1 1 2 2 2 2 1 1 0 -1 -3 -7 -10 -13 -15 -16 -16 -16 -18 -20 -21 -22 -23 -28
-5 0 1 2 1 1 0 0 0 -0 0 0 0 0 1 1 -0 -1 -0 1 1 1 1 2 2 2 2 1 1 -0 -2 -4 -7 -10 -14 -15 -16 -16 -17 -19 -21 -22 -23 -28
-1 -1 1 0 0 0 -0 0 0 1 1 1 1 1 0 0 1 -0 -1 -0 -0 0 1 1 1 1 1 1 1 1 -0 -2 -1 -4 -8 -14 -15 -16 -16 -18 -20 -21 -23 -28
-0 -0 0 -0 -0 0 1 1 1 1 1 1 1 1 0 0 1 1 -0 -0 -1 -1 -0 -0 0 0 0 1 0 0 1 -0 -3 -3 -2 -6 -15 -15 -16 -17 -19 -21 -24 -27
-0 0 1 1 1 1 1 1 1 1 1 1 1 1 0 0 0 -0 -0 -0 -0 -0 -1 -1 -1 -1 -1 -0 0 -0 -0 -1 -2 -4 -2 -5 -13 -15 -15 -16 -18 -21 -24 -27
-0 -0 -1 -0 -1 -1 -1 -2 -2 -3 -2 -2 -1 0 -0 0 -0 -1 -0 0 -0 -1 -1 -1 -2 -0 0 -1 -0 -0 -1 -2 -3 -3 -2 -3 -6 -12 -15 -16 -18 -20 -24 -26
-2 -1 -1 -3 -5 -6 -8 -9 -10 -9 -8 -7 -5 -4 -1 -1 -0 -0 -1 -2 -2 -2 -1 -2 -2 -2 -3 -3 -2 -1 -1 -1 -2 -3 -3 -3 -4 -13 -14 -16 -17 -20 -24 -26
-3 -3 -2 -5 -9 -11 -13 -18 -17 -14 -12 -11 -8 -7 -5 -3 -2 -1 -0 -0 -1 -1 -2 -2 -1 -1 -1 -2 -2 -2 -2 -3 -3 -3 -3 -3 -4 -6 -15 -15 -17 -19 -25 -27
-4 -4 -4 -10 -18 -21 -22 -22 -21 -18 -17 -15 -14 -13 -10 -7 -5 -4 -2 -1 -1 -1 -1 -1 -2 -2 -2 -3 -3 -3 -3 -4 -4 -4 -4 -3 -4 -14 -15 -15 -17 -19 -25 -26
-3 -3 -3 -3 -3 -13 -20 -21 -20 -19 -18 -17 -17 -17 -16 -13 -8 -7 -5 -4 -2 -1 -1 -2 -2 -2 -3 -4 -4 -4 -4 -4 -4 -4 -4 -4 -9 -14 -15 -15 -17 -20 -25 -27
-3 -4 -5 -6 -16 -23 -23 -23 -21 -18 -17 -16 -16 -15 -15 -15 -15 -12 -8 -5 -3 -2 -2 -3 -3 -3 -4 -4 -4 -5 -5 -5 -4 -4 -5 -4 -5 -12 -14 -15 -17 -14 -10 -12
-2 -6 -18 -21 -23 -24 -23 -23 -21 -20 -18 -16 -16 -16 -15 -15 -14 -13 -11 -7 -5 -3 -3 -3 -3 -4 -4 -4 -4 -5 -5 -5 -4 -4 -4 -4 -6 -11 -15 -14 -6 -6 -19 -26
-2 -2 -4 -13 -23 -23 -23 -22 -22 -20 -18 -17 -17 -16 -15 -15 -14 -14 -13 -10 -6 -5 -4 -4 -4 -4 -4 -4 -4 -5 -5 -4 -4 -4 -4 -4 -5 -11 -15 -11 -8 -15 -24 -22

GFSNGP_850_dewp_051.txt.gz
Dewpoint
0 0 2 3 4 4 6 6 5 3 2 -0 -4 -5 -5 -3 -2 0 1 2 2 2 2 2 2 1 1 0 0 0 1 1 0 1 1 1 2 2 2 2 2 1 2 1
-0 -1 2 2 2 3 4 4 5 4 3 -2 -3 -5 -5 -5 -2 1 1 1 2 2 2 2 1 1 -0 -0 0 0 -0 -0 -0 -0 0 1 2 2 2 2 2 2 2 1
-1 0 -0 1 1 1 2 3 4 5 3 -2 -2 -4 -4 -4 -1 -1 0 1 2 2 2 1 1 -0 -1 -0 -0 -0 -1 -1 -1 -1 -0 1 2 1 1 1 1 1 0 -0
-1 -0 1 -2 -3 -1 -0 -1 2 2 1 -1 -2 -3 -4 -5 -3 -2 -1 1 2 2 2 1 -0 -1 -1 -1 -0 -0 -0 -0 -1 -1 -0 -0 1 1 1 0 -0 -1 -2 -2
0 0 -1 -3 0 0 0 0 -2 -0 -0 -1 -2 -2 -2 -3 -4 -4 -1 1 1 1 1 0 -1 -1 -1 -0 -0 -0 -0 -1 0 -1 -1 -0 0 0 -0 -1 -2 -2 -4 -10
2 1 3 -2 1 -1 -1 3 -0 -1 -2 -1 -1 1 -1 -2 -2 0 1 1 1 1 1 -1 -1 -1 -1 -0 -0 0 -0 0 -0 -1 -1 -0 -1 -2 -2 -2 -6 -16 -21 -22
3 4 2 -2 -3 -1 3 0 2 1 -0 -2 -0 -2 -2 -2 -1 -1 -0 1 2 1 -0 -1 -1 -2 -1 -1 -1 -1 -1 -1 -0 -0 -0 -1 -2 -2 -7 -17 -20 -21 -23 -24
3 4 3 -3 1 2 -0 2 2 1 -1 -2 -1 -2 -2 -1 -0 0 1 2 1 1 -1 -1 -1 -2 -2 -2 -2 -2 -2 -1 -2 -2 -2 -2 -4 -14 -18 -21 -21 -22 -23 -25
1 1 -3 -4 0 -0 1 2 2 2 0 -2 -1 -0 -0 1 2 2 2 2 1 0 -0 -1 -1 -2 -2 -2 -2 -2 -2 -2 -3 -3 -4 -10 -16 -18 -20 -21 -22 -23 -23 -25
-0 -2 -2 -3 -3 -3 1 2 2 1 1 -1 -1 1 1 1 2 2 2 1 1 0 -0 -0 -1 -1 -3 -2 -3 -3 -4 -5 -8 -10 -13 -17 -18 -19 -20 -21 -22 -23 -23 -24
-1 -2 -2 -2 -1 -1 -2 1 2 2 1 1 1 3 4 4 4 4 4 4 3 2 1 0 0 -0 -2 -3 -4 -6 -7 -10 -12 -14 -16 -16 -17 -18 -20 -21 -22 -23 -23 -24
1 1 0 -1 -1 0 -1 -1 1 2 2 2 2 2 2 3 3 3 4 4 4 4 4 3 2 0 -1 -4 -5 -7 -9 -12 -14 -16 -16 -16 -17 -18 -20 -21 -22 -22 -23 -23
-2 -7 -6 -6 -2 -0 0 -0 1 1 2 2 1 1 1 1 1 1 2 2 2 2 4 4 2 1 1 -1 -4 -6 -9 -12 -14 -16 -16 -16 -17 -18 -19 -20 -20 -21 -22 -23
-9 -8 -7 -9 -0 0 1 1 1 1 1 1 1 0 -0 -0 -1 -1 -0 0 1 2 2 2 2 3 2 1 -0 -3 -5 -8 -11 -14 -16 -16 -16 -17 -17 -18 -19 -20 -21 -22
-5 -4 -3 -4 -6 1 2 1 1 1 1 0 -0 -0 -0 -0 -0 -0 -1 -1 -0 1 2 2 2 2 2 2 2 1 -1 -4 -7 -10 -13 -15 -15 -16 -16 -16 -18 -20 -21 -22
-2 -1 -2 0 1 1 1 1 1 0 0 0 0 0 0 0 0 0 0 -1 -1 0 1 1 2 2 2 1 2 1 1 -0 -2 -5 -9 -12 -15 -15 -15 -16 -17 -19 -20 -21
-1 -1 -0 -0 0 1 1 0 0 0 0 0 0 1 1 1 0 0 1 -0 -1 0 0 1 1 2 2 2 1 1 1 1 -0 -0 -6 -7 -10 -14 -15 -15 -16 -17 -19 -21
-1 -1 -1 -1 -0 0 1 1 1 1 1 1 1 1 1 1 0 0 1 0 -0 -0 -0 -0 -0 1 1 1 1 1 1 1 0 0 -0 -1 -2 -6 -11 -15 -15 -16 -18 -21
-1 -1 -1 -1 -0 -0 0 1 1 1 0 0 1 0 0 0 -0 -0 -0 -0 -0 -0 -1 -1 -1 -1 -0 -0 -0 0 0 -0 -0 -0 -1 -1 -2 -2 -5 -14 -15 -16 -17 -20
-2 -1 -1 -1 -1 -1 -1 -2 -2 -3 -3 -3 -3 -2 -1 -1 -1 -0 -1 -1 -0 -0 -0 -1 -1 -1 -1 -1 -0 -1 -1 -0 -1 -1 -1 -2 -2 -3 -3 -4 -11 -16 -17 -19
-3 -3 -2 -2 -2 -5 -8 -9 -10 -10 -10 -9 -8 -7 -6 -5 -2 -1 -1 -1 -1 -2 -2 -2 -1 -2 -2 -2 -2 -1 -1 -1 -1 -1 -2 -2 -2 -3 -3 -3 -7 -14 -14 -18
-4 -3 -3 -3 -5 -10 -13 -20 -18 -14 -14 -13 -13 -11 -10 -8 -6 -3 -2 -2 -1 -1 -1 -1 -2 -2 -1 -1 -1 -2 -3 -2 -2 -2 -3 -3 -3 -4 -3 -4 -5 -5 -15 -18
-5 -4 -4 -4 -4 -17 -19 -20 -19 -19 -19 -19 -18 -17 -17 -15 -12 -9 -7 -4 -2 -2 -2 -1 -1 -1 -2 -2 -2 -2 -3 -3 -3 -4 -4 -4 -4 -4 -4 -4 -7 -15 -15 -18
-6 -4 -4 -4 -4 -4 -9 -19 -21 -20 -19 -18 -18 -17 -17 -16 -14 -12 -9 -8 -6 -4 -2 -2 -2 -2 -2 -3 -3 -4 -4 -4 -4 -4 -4 -4 -4 -4 -4 -6 -15 -15 -15 -18
-3 -4 -5 -7 -5 -8 -14 -22 -21 -19 -18 -17 -16 -16 -16 -16 -15 -14 -13 -10 -8 -5 -3 -3 -3 -3 -3 -3 -4 -4 -4 -5 -5 -5 -5 -5 -4 -5 -4 -7 -10 -15 -16 -18
-3 -3 -4 -8 -19 -22 -22 -21 -21 -20 -19 -17 -16 -16 -16 -15 -14 -14 -14 -14 -11 -7 -4 -3 -3 -3 -4 -4 -4 -4 -5 -5 -5 -5 -5 -4 -4 -5 -4 -6 -9 -12 -14 -6
-3 -3 -3 -3 -6 -17 -22 -22 -22 -21 -19 -18 -17 -16 -16 -15 -15 -15 -15 -14 -14 -11 -8 -5 -4 -4 -4 -4 -4 -4 -5 -5 -5 -4 -4 -4 -5 -5 -5 -6 -14 -15 -12 -10

GFSNGP_850_dewp_054.txt.gz
Dewpoint
0 -1 2 3 4 5 6 4 5 2 2 0 -1 -2 -5 -5 -2 -1 0 1 2 2 2 2 2 2 2 1 1 -0 0 1 1 1 1 1 1 2 2 2 2 2 1 1
1 -0 2 3 2 3 4 4 5 5 5 2 -1 -3 -4 -5 -3 -1 -1 -0 1 1 2 2 2 2 1 1 -0 -0 1 0 -0 -0 0 0 1 2 2 2 2 2 2 1
-1 -0 0 1 1 2 2 3 3 4 2 0 1 0 -2 -3 -4 -2 -2 -1 -0 0 1 2 2 1 1 -0 -1 -0 0 -0 -0 -0 -1 -0 -0 0 1 1 1 1 0 -0
-2 -1 -1 -4 -4 -2 -0 -1 1 2 1 1 0 0 -0 -2 -4 -4 -3 -2 -0 -0 1 2 1 1 -0 -1 -1 -0 -0 -1 -1 -1 -1 -0 -1 -0 -0 1 0 -0 -1 -2
-0 -0 -1 -4 -0 -0 0 -0 -2 -1 -1 -0 0 -1 -2 -2 -3 -5 -5 -3 -1 0 2 1 1 1 -1 -1 -0 -0 -0 -1 -1 -1 -1 -1 -0 -0 0 -0 -1 -2 -3 -11
2 1 2 -4 0 -1 -2 2 -1 0 -0 -1 -1 1 -0 -1 -2 -3 -4 -3 -1 1 1 1 1 -1 -1 -1 -0 -0 -0 -1 -1 -1 -1 -0 0 0 -1 -2 -3 -10 -21 -23
2 3 2 -2 -3 -2 3 -1 1 2 1 -0 -1 -1 -2 -2 -2 -2 -0 -0 1 1 1 1 -0 -1 -1 -1 -1 -0 -0 -0 -0 -1 -1 0 -1 -2 -2 -8 -18 -22 -24 -24
2 4 2 -3 -0 2 -1 1 1 2 1 0 -1 -1 -2 -2 -0 0 0 0 0 1 1 0 -1 -1 -2 -2 -1 -1 -1 -1 -0 -0 -0 -1 -2 -3 -15 -19 -21 -22 -23 -24
0 0 -3 -4 -1 -2 -1 -0 1 2 1 -1 -1 -1 -0 0 0 1 1 1 1 1 1 -0 -0 -1 -2 -2 -2 -2 -2 -2 -1 -1 -2 -2 -5 -16 -20 -21 -22 -22 -23 -24
-1 -2 -2 -2 -2 -1 -1 -0 1 2 1 0 -1 -0 0 1 1 1 1 1 2 2 1 -0 -1 -1 -2 -2 -2 -2 -2 -3 -3 -3 -3 -7 -15 -18 -19 -21 -21 -22 -23 -23
-1 -2 -1 -2 -1 -2 -3 -1 0 2 1 2 1 1 3 4 4 3 3 4 4 3 2 1 0 -0 -1 -2 -2 -3 -3 -4 -4 -6 -7 -13 -16 -17 -19 -20 -21 -22 -22 -23
-0 0 -3 -5 -7 -8 -6 -2 1 0 2 1 1 2 3 4 4 4 4 4 4 4 4 4 4 3 1 -1 -3 -4 -4 -6 -7 -9 -12 -14 -16 -16 -18 -19 -21 -22 -22 -22
-7 -6 -5 -6 -6 -8 -5 -5 -2 1 2 2 2 2 2 2 1 1 2 2 2 3 4 4 4 3 3 2 -0 -4 -5 -7 -10 -12 -12 -15 -16 -17 -17 -18 -20 -20 -21 -21
-2 -3 -5 -4 -4 -4 -8 -10 -2 1 2 2 1 1 1 1 0 -0 -0 -0 0 1 2 2 2 3 3 3 2 0 -3 -6 -8 -11 -13 -15 -16 -16 -16 -17 -18 -18 -19 -20
-2 -2 -1 -1 -2 -3 -1 -3 1 2 1 1 0 0 -0 -0 -0 -0 -0 -1 -1 -1 -0 1 2 2 2 2 2 2 1 -1 -3 -6 -10 -12 -15 -15 -15 -16 -16 -16 -17 -19
-2 -1 -0 -1 -1 -1 -1 1 1 1 0 0 0 0 0 0 0 0 0 0 0 -0 -1 0 1 1 2 2 2 2 2 2 1 -1 -4 -7 -10 -13 -15 -15 -15 -16 -16 -18
-2 -2 -1 -2 -2 -2 -1 1 0 0 0 0 0 0 1 1 1 0 0 0 0 0 -1 -0 0 1 2 2 2 2 1 1 2 1 1 0 -4 -7 -11 -13 -15 -15 -15 -17
-2 -2 -2 -2 -2 -2 -1 -1 -0 -0 0 0 0 0 0 0 0 0 0 -0 0 0 -1 -1 -0 0 1 2 2 2 1 1 1 1 1 0 -0 -1 -2 -2 -10 -13 -15 -16
-2 -3 -2 -2 -2 -1 -1 -1 -1 -1 -1 -0 0 0 0 -0 -0 -0 -1 -0 -0 -0 -1 -1 -1 -1 -1 -0 1 1 1 1 1 1 0 -0 -0 -1 -1 -2 -2 -3 -9 -14
-3 -3 -3 -3 -2 -2 -2 -4 -5 -5 -5 -5 -5 -5 -4 -2 -2 -1 -1 -1 -1 -1 -1 -1 -1 -1 -2 -1 -1 -1 -1 -1 -1 -0 -0 -1 -1 -1 -2 -2 -2 -3 -5 -6
-4 -4 -4 -3 -3 -3 -7 -13 -13 -11 -11 -11 -10 -9 -9 -7 -6 -4 -3 -1 -1 -1 -1 -1 -2 -2 -1 -2 -2 -2 -2 -1 -1 -1 -1 -2 -2 -2 -2 -2 -3 -3 -4 -5
-4 -4 -4 -4 -4 -5 -8 -7 -10 -17 -15 -14 -14 -14 -13 -12 -10 -8 -6 -4 -3 -3 -2 -1 -1 -1 -1 -1 -1 -1 -1 -1 -2 -2 -3 -3 -3 -3 -3 -3 -3 -4 -4 -4
-2 -4 -4 -4 -4 -4 -13 -18 -19 -19 -18 -17 -16 -17 -16 -16 -16 -14 -11 -9 -8 -6 -3 -3 -3 -2 -2 -2 -2 -2 -2 -3 -3 -4 -4 -4 -4 -4 -4 -4 -4 -4 -5 -6
-2 -3 -4 -4 -4 -4 -4 -6 -12 -18 -17 -16 -17 -17 -16 -15 -15 -15 -15 -14 -12 -9 -6 -3 -3 -3 -3 -3 -3 -3 -3 -4 -4 -4 -5 -5 -5 -5 -5 -4 -5 -5 -5 -9
-3 -3 -4 -5 -5 -5 -5 -7 -12 -8 -19 -18 -17 -16 -16 -15 -14 -14 -15 -15 -13 -11 -8 -5 -3 -3 -3 -3 -3 -3 -4 -4 -5 -5 -5 -5 -5 -5 -5 -5 -5 -5 -8 -7
-6 -4 -4 -4 -4 -5 -10 -9 -9 -19 -20 -18 -17 -16 -15 -15 -15 -15 -15 -15 -14 -14 -12 -7 -4 -4 -4 -4 -4 -4 -4 -5 -5 -5 -5 -5 -5 -5 -5 -5 -5 -5 -7 -11
-10 -8 -6 -4 -4 -4 -6 -18 -21 -21 -21 -19 -18 -17 -16 -16 -16 -16 -15 -15 -15 -15 -14 -13 -10 -7 -5 -4 -4 -4 -5 -5 -5 -5 -5 -5 -5 -5 -5 -5 -5 -6 -6 -9

GFSNGP_850_dewp_057.txt.gz
Dewpoint
0 0 3 3 4 4 4 3 5 2 2 1 -0 -1 -2 -3 -5 -3 -1 -0 1 1 2 2 2 2 2 2 2 1 0 -0 -0 1 1 1 1 1 2 2 2 2 1 1
-0 -0 1 3 2 3 3 3 3 3 3 1 1 1 1 0 -3 -4 -1 -2 -1 0 1 2 2 2 2 2 1 1 -1 -0 1 0 0 0 1 1 1 2 2 2 1 1
-0 -0 -1 0 0 1 2 3 3 4 2 -0 0 0 1 0 0 -2 -4 -2 -0 -0 1 1 1 2 2 1 1 -0 -1 0 0 0 -0 -0 0 -0 0 1 1 1 1 0
-2 -2 1 -3 -4 -2 0 -0 1 1 1 0 0 -0 0 0 -0 -0 -1 -3 -2 -1 0 1 1 2 2 1 0 -1 -1 -0 -0 -0 -1 -1 -0 -0 -0 -0 0 1 -0 -1
1 -0 -2 -3 -0 -1 -0 0 -2 -2 -2 -2 -1 -1 -1 -1 -1 -1 -3 -4 -4 -2 -1 1 2 2 1 1 -1 -1 -0 -0 -0 -1 -1 -0 -1 -1 -1 -1 -1 -1 -2 -6
1 1 1 -5 -1 -1 -2 2 -2 -1 0 1 -0 1 -0 -1 -1 -1 -2 -3 -4 -3 -0 0 2 1 1 -1 -1 -1 -0 -0 -0 -1 -1 -1 -1 -1 -1 -1 -1 -3 -12 -23
2 2 0 -3 -3 -2 2 -1 -1 1 2 1 -1 -1 -1 -1 -1 -2 -2 -2 -3 -1 -0 2 1 1 0 -1 -1 -1 -0 -0 -1 -1 -1 -1 -1 -1 -1 -2 -6 -18 -23 -24
2 3 2 -3 -1 1 -1 -0 -0 1 2 2 1 -1 -1 -1 -1 -0 -0 1 0 1 2 1 1 0 -1 -1 -1 -1 -1 -1 -1 -1 -1 -1 -1 -2 -2 -9 -19 -22 -23 -23
0 0 -3 -3 -2 -1 -2 -6 -4 0 0 2 1 -1 -1 -0 0 0 0 0 1 1 1 1 1 -1 -1 -2 -2 -1 -2 -1 -1 -1 -1 -1 -2 -2 -13 -18 -19 -21 -22 -23
-1 -2 -2 -1 -1 -4 -6 -7 -6 -4 0 1 2 -0 -1 0 1 1 1 1 1 2 2 1 -0 -0 -1 -1 -2 -2 -2 -2 -1 -1 -1 -2 -2 -10 -18 -20 -21 -22 -22 -23
-1 -1 -5 -2 -6 -6 -7 -8 -8 -6 -5 -0 2 2 1 3 3 3 3 3 3 3 3 1 0 -0 -1 -1 -2 -2 -3 -2 -2 -3 -3 -3 -8 -16 -18 -19 -20 -21 -22 -22
-1 -5 -3 -5 -4 -3 -5 -6 -5 -5 -8 -5 1 2 2 3 4 4 4 3 4 4 4 4 4 3 2 2 1 -2 -3 -4 -4 -4 -5 -7 -13 -16 -17 -18 -20 -20 -21 -22
-4 -3 -2 -2 -4 -3 -4 -2 -3 -3 -8 -5 1 2 2 2 3 2 2 2 2 3 3 4 4 4 4 4 3 2 -1 -4 -5 -6 -8 -11 -14 -16 -17 -17 -18 -19 -20 -21
-2 -2 -2 -2 -1 -1 -1 -1 -1 -2 -5 -1 1 2 2 2 1 1 1 0 0 1 1 2 2 3 4 4 3 3 2 -1 -4 -7 -10 -12 -14 -15 -16 -16 -16 -18 -18 -19
-2 -3 -2 -2 -1 -2 -1 -1 -1 -1 0 1 1 1 1 0 -0 -0 -0 -0 -0 -1 -1 -0 0 1 2 2 3 3 3 2 -1 -4 -7 -9 -11 -14 -15 -15 -15 -16 -16 -17
-3 -3 -2 -2 -2 -2 -2 -2 -1 -1 0 1 2 0 0 0 0 0 0 0 0 0 0 -0 -1 -0 1 2 2 2 2 2 2 1 -1 -2 -5 -8 -12 -14 -15 -15 -16 -16
-3 -3 -3 -2 -3 -3 -2 -1 -1 -1 0 0 1 0 0 0 0 0 1 0 0 0 0 -0 -1 -0 1 1 2 2 2 2 2 2 1 1 0 -0 -1 -3 -5 -10 -14 -14
-3 -3 -3 -3 -3 -3 -3 -2 -2 -2 -2 -1 -1 -0 -1 -0 -0 -0 -0 -0 -0 -0 -0 -1 -1 -1 0 1 2 2 2 2 1 1 1 1 1 1 0 -0 -1 -1 -2 -4
-5 -3 -4 -3 -3 -3 -3 -3 -3 -3 -3 -2 -2 -1 -2 -0 -0 -1 -1 -1 -1 -1 -1 -1 -1 -1 -1 -0 0 1 1 1 1 1 1 1 0 0 -0 -0 -1 -1 -2 -3
-12 -3 -4 -4 -4 -4 -4 -5 -9 -7 -6 -6 -5 -4 -5 -4 -3 -2 -2 -1 -1 -2 -2 -1 -1 -1 -1 -1 -1 -1 -0 0 0 0 -0 -0 -1 -1 -1 -1 -2 -2 -2 -3
-13 -5 -3 -4 -4 -4 -4 -4 -10 -12 -10 -10 -9 -10 -10 -10 -9 -7 -5 -3 -2 -1 -1 -1 -1 -1 -2 -2 -2 -2 -2 -2 -2 -2 -1 -1 -2 -2 -2 -2 -3 -3 -3 -3
-9 -7 -3 -4 -4 -4 -4 -5 -6 -9 -13 -13 -14 -14 -14 -13 -14 -12 -9 -7 -6 -4 -4 -3 -3 -2 -2 -1 -1 -1 -2 -1 -1 -2 -2 -3 -3 -4 -4 -4 -4 -4 -4 -4
-10 -5 -3 -3 -4 -4 -4 -5 -8 -13 -16 -16 -16 -11 -15 -16 -15 -14 -13 -12 -11 -10 -8 -5 -3 -3 -3 -2 -2 -2 -2 -2 -3 -3 -3 -4 -4 -4 -4 -4 -4 -4 -5 -5
-11 -5 -4 -4 -4 -4 -4 -5 -5 -5 -6 -12 -16 -15 -15 -15 -15 -15 -15 -14 -14 -12 -10 -8 -5 -3 -3 -3 -3 -3 -3 -3 -4 -4 -4 -5 -5 -5 -5 -5 -5 -5 -5 -5
-10 -10 -7 -5 -4 -4 -4 -5 -6 -6 -7 -5 -9 -16 -15 -15 -15 -15 -15 -14 -14 -14 -13 -10 -5 -4 -4 -4 -4 -4 -4 -4 -4 -5 -5 -5 -5 -5 -5 -5 -5 -5 -5 -5
-9 -9 -9 -8 -5 -4 -4 -5 -5 -6 -7 -16 -18 -16 -16 -16 -16 -16 -15 -15 -15 -15 -15 -14 -13 -10 -7 -6 -4 -4 -4 -4 -5 -5 -5 -5 -5 -5 -5 -5 -5 -5 -5 -5
-15 -13 -8 -8 -8 -6 -4 -4 -5 -6 -10 -7 -9 -17 -17 -17 -17 -17 -17 -16 -16 -16 -16 -16 -16 -14 -13 -10 -6 -4 -4 -5 -5 -5 -5 -5 -5 -5 -5 -5 -5 -5 -5 -5

GFSNGP_850_dewp_060.txt.gz
Dewpoint
-0 2 3 3 3 3 5 3 4 2 1 -1 -2 -1 -1 -1 -1 -2 -2 1 3 2 3 3 2 2 2 2 2 2 2 1 1 -0 -0 0 1 1 2 2 2 2 2 2
2 0 1 2 2 2 3 2 2 2 2 -1 -1 -1 -1 -1 -1 -1 -1 -1 1 3 2 2 1 2 2 2 2 2 1 1 -0 -0 0 1 1 1 1 1 2 2 2 1
4 -0 -0 1 -0 0 1 2 2 3 0 -1 -1 -1 -1 -0 -1 -1 -1 -0 -0 -0 -1 0 1 1 2 2 2 2 1 -0 -1 -0 0 0 0 0 -0 0 1 1 1 1
3 0 3 -3 -5 -3 -1 -2 -2 -0 -1 -1 -0 0 0 -0 -0 0 -1 -1 -1 -1 -2 -1 1 1 2 2 2 1 1 -1 -1 0 0 -0 -0 -0 -0 0 0 0 1 -0
3 2 -1 -0 -0 -0 -0 1 -1 -0 0 1 1 1 -1 -1 -1 -1 -0 -1 -2 -2 -1 -1 0 1 1 2 2 1 -0 -1 -0 0 -0 -0 -0 -0 -0 -0 -0 -1 -0 -2
1 2 1 -2 -1 -1 -2 2 -0 0 -0 1 2 3 -0 -1 -1 -1 -1 -1 -1 -3 -3 -2 -0 1 1 2 1 1 -1 -1 -0 -0 -0 -0 -1 -0 -1 -1 -1 -1 -2 -8
2 2 -1 -3 -2 -2 2 2 -1 -0 1 1 2 2 2 -1 -1 -1 -1 -1 -2 -2 -2 -1 0 1 2 1 1 -1 -1 -1 -0 -0 -0 -0 -1 -1 -1 -1 -2 -2 -7 -20
1 2 2 -2 -1 1 -1 -4 -4 -4 -2 -0 1 2 2 -1 -0 -0 -0 -0 -0 -1 -0 1 1 2 1 1 -1 -1 -1 -1 -1 -0 -1 -1 -1 -1 -1 -1 -2 -8 -18 -22
1 0 -2 -3 -2 -2 -5 -6 -6 -6 -5 -2 -2 0 2 1 0 0 0 1 1 1 1 1 2 1 1 -0 -1 -1 -1 -1 -1 -0 -0 -1 -1 -1 -1 -2 -8 -19 -21 -21
0 -1 -3 -5 -1 -5 -4 -4 -4 -6 -4 -3 -4 -5 1 2 1 1 1 1 1 1 1 1 1 1 -0 -1 -1 -1 -1 -2 -2 -1 -1 -1 -1 -1 -2 -9 -17 -20 -20 -21
-3 -4 -5 -3 -4 -4 -3 -3 -5 -4 -2 -2 -3 -8 -3 2 1 2 3 2 3 3 3 2 1 0 -1 -0 -1 -1 -1 -2 -2 -1 -1 -1 -1 -2 -6 -17 -19 -20 -21 -21
-3 -4 -4 -4 -3 -2 -2 -2 -3 -1 -1 -2 -2 -8 -5 1 2 2 2 3 3 3 4 4 4 3 2 1 0 0 -1 -2 -2 -2 -2 -2 -2 -4 -13 -17 -18 -19 -20 -21
-3 -2 -2 -2 -2 -2 -2 -1 -1 -1 -1 -1 -2 -4 -3 2 2 2 3 3 3 3 4 4 4 4 4 3 2 2 1 -0 -2 -3 -3 -4 -4 -7 -14 -16 -17 -18 -19 -20
-1 -2 -2 -2 -2 -2 -2 -2 -2 -2 -2 -2 -1 -1 0 1 2 2 2 2 2 2 2 2 2 2 3 3 3 3 2 2 0 -2 -4 -5 -7 -9 -13 -15 -15 -16 -17 -18
-2 -2 -3 -3 -2 -2 -2 -3 -2 -2 -1 -1 -0 0 1 0 0 1 0 -0 -0 -1 -1 -1 -0 0 1 2 3 3 2 2 2 1 -1 -5 -7 -9 -11 -12 -14 -16 -16 -16
-2 -2 -3 -3 -3 -3 -2 -3 -2 -2 -2 -2 -1 -0 0 1 0 0 0 0 0 0 0 0 -0 -0 -0 1 2 2 2 2 2 2 1 -1 -2 -4 -8 -10 -12 -15 -15 -12
-3 -3 -3 -3 -3 -3 -3 -3 -3 -3 -2 -2 -1 -1 -0 0 0 0 0 0 0 0 0 0 0 -0 -1 -0 1 2 2 2 2 2 1 1 0 -1 -1 -1 -0 -2 -3 -4
-7 -5 -3 -3 -4 -3 -3 -4 -4 -3 -3 -3 -3 -2 -2 -1 -1 -1 -1 -1 -1 -0 -0 -0 -0 -1 -1 -0 1 1 1 1 1 1 1 1 1 1 1 0 -0 -0 -1 -1
-8 -7 -8 -4 -4 -4 -4 -4 -4 -6 -4 -4 -3 -3 -3 -3 -3 -2 -2 -1 -2 -1 -1 -1 -1 -1 -1 -1 0 1 1 1 1 1 1 1 1 0 0 -0 -0 -0 -1 -1
-10 -11 -10 -7 -4 -4 -4 -4 -4 -12 -10 -8 -7 -6 -4 -4 -5 -5 -3 -2 -2 -2 -2 -2 -2 -2 -2 -2 -1 -1 -0 0 1 0 0 0 -0 -0 -1 -1 -1 -1 -2 -2
-9 -9 -9 -7 -4 -4 -4 -4 -5 -5 -10 -12 -12 -11 -11 -11 -11 -9 -6 -4 -3 -3 -3 -2 -2 -1 -2 -2 -2 -2 -2 -2 -1 -1 -1 -1 -1 -1 -2 -2 -2 -3 -3 -3
-8 -10 -11 -5 -4 -4 -4 -4 -5 -6 -6 -13 -15 -14 -13 -12 -13 -12 -10 -8 -8 -8 -5 -4 -3 -3 -2 -2 -1 -1 -2 -2 -2 -2 -2 -2 -2 -2 -3 -3 -3 -4 -4 -4
-9 -9 -10 -8 -5 -5 -4 -4 -5 -5 -7 -11 -12 -11 -5 -5 -12 -14 -12 -12 -12 -11 -9 -7 -5 -3 -3 -3 -2 -2 -2 -2 -2 -2 -3 -3 -3 -3 -4 -4 -4 -4 -4 -4
-10 -10 -9 -9 -9 -6 -4 -4 -5 -5 -6 -5 -7 -13 -6 -9 -9 -13 -13 -13 -13 -13 -11 -9 -6 -4 -3 -3 -3 -3 -3 -3 -3 -3 -4 -4 -4 -4 -5 -5 -5 -5 -5 -5
-16 -16 -13 -9 -9 -9 -6 -4 -5 -5 -6 -6 -5 -6 -11 -9 -10 -13 -15 -14 -14 -14 -14 -13 -11 -6 -5 -5 -4 -4 -4 -4 -4 -4 -4 -5 -5 -5 -5 -5 -5 -5 -5 -5
-16 -17 -17 -16 -10 -8 -6 -5 -5 -6 -6 -7 -9 -8 -9 -15 -15 -15 -15 -15 -15 -15 -16 -15 -14 -13 -11 -8 -7 -5 -4 -4 -4 -4 -5 -5 -5 -5 -5 -5 -5 -5 -5 -5
-15 -14 -15 -16 -16 -14 -8 -5 -5 -6 -6 -6 -6 -8 -15 -16 -16 -16 -17 -17 -16 -16 -16 -16 -16 -16 -15 -14 -12 -10 -5 -5 -5 -5 -5 -5 -5 -5 -5 -5 -5 -5 -5 -5

GFSNGP_850_dewp_066.txt.gz
Dewpoint
1 2 3 3 3 2 3 3 4 2 1 -1 -2 -2 -2 -2 -2 -1 -0 -1 -2 -2 0 3 3 3 3 3 2 2 2 2 1 1 2 1 1 1 -0 -1 -0 0 1 1
2 0 1 2 1 1 2 2 2 2 2 -2 -2 -1 -0 1 1 1 -0 -0 -0 -1 -1 2 3 3 3 3 3 2 2 2 2 2 2 1 1 -0 -1 -0 0 1 1 1
4 -0 -1 1 0 1 1 1 0 3 -0 -2 1 1 1 1 0 -1 -1 -1 -1 -0 -0 -0 2 3 3 3 2 2 2 2 1 2 1 1 0 -1 -1 0 0 0 0 1
3 1 3 -2 -5 -3 -2 -1 -2 -3 -1 -0 0 0 1 2 2 1 -0 -0 -0 -1 -0 -1 -0 3 3 3 2 2 2 2 1 1 1 1 -1 -1 -0 0 0 0 0 0
4 3 -1 1 -1 -1 0 3 -0 0 -0 0 -0 0 1 -1 -1 2 1 0 0 -1 -0 -1 0 1 3 3 2 2 2 2 1 1 1 0 -1 -1 -0 -0 -0 0 0 0
1 2 2 1 -2 -2 -2 4 -2 -3 -3 -2 -3 2 -0 -2 -2 -1 2 1 0 -0 -1 -0 -1 1 1 2 2 2 2 2 1 1 1 -0 -1 -0 -0 -0 -0 -0 -0 -1
2 2 1 -1 -2 -2 2 1 -4 -4 -5 -4 -4 -4 -4 -4 -3 -4 1 2 1 0 -0 -1 0 1 2 2 2 2 2 2 1 1 0 -1 -1 -0 -0 0 -0 -0 -1 -1
1 3 1 -3 -1 1 -2 -4 -3 -3 -3 -4 -4 -5 -5 -4 -4 -5 -4 2 2 1 1 0 0 1 2 2 1 2 2 1 1 1 -1 -1 -1 -1 -0 -0 -0 -1 -1 -1
1 1 -3 -5 -2 -3 -4 -4 -3 -2 -2 -3 -4 -4 -2 -2 -2 -4 -4 -0 2 2 1 1 1 1 1 1 2 2 1 1 1 -0 -1 -1 -1 -1 -0 -0 -1 -1 -1 -1
0 -1 -2 -3 -3 -4 -3 -2 -2 -2 -2 -2 -2 -1 -1 -1 -1 -1 -4 -3 2 2 1 1 1 1 1 1 1 1 1 0 -0 -1 -2 -1 -0 -0 -0 -1 -0 -1 -1 -2
-3 -5 -5 -4 -4 -3 -2 -2 -2 -2 -2 -2 -2 -2 -2 -1 -1 -1 -1 -4 1 2 2 2 2 2 1 1 1 1 -0 -1 -1 -1 -1 -1 -1 -1 -0 -0 -1 -1 -1 -3
-2 -3 -3 -3 -2 -2 -2 -2 -2 -2 -2 -2 -2 -2 -2 -2 -2 -1 -1 -2 -0 2 2 2 2 2 2 2 2 2 2 1 1 1 1 0 -1 -1 -1 -1 -1 -2 -2 -5
-4 -4 -2 -2 -2 -2 -3 -2 -2 -2 -2 -2 -3 -2 -2 -1 -1 -1 -0 0 1 2 3 2 2 4 4 3 4 3 3 2 2 1 0 -0 -1 0 -0 -1 -1 -1 -3 -12
-3 -3 -3 -3 -4 -5 -4 -3 -3 -3 -3 -3 -3 -3 -3 -2 -1 -1 -1 -1 -0 1 2 2 2 3 3 3 3 3 2 2 2 1 1 1 0 -0 -0 -1 -2 -2 -5 -14
-5 -5 -5 -8 -9 -8 -7 -7 -5 -3 -3 -4 -4 -4 -3 -3 -3 -3 -2 -1 -1 0 0 0 1 2 2 2 1 1 2 2 2 2 1 1 0 -0 -1 -2 -2 -3 -6 -13
-8 -8 -9 -8 -7 -8 -8 -8 -7 -4 -4 -4 -4 -4 -5 -4 -4 -3 -3 -2 -2 -1 -0 0 0 -0 0 1 1 1 1 1 2 2 1 0 0 -0 -0 -2 -2 -5 -6 -9
-6 -7 -6 -6 -6 -7 -7 -7 -7 -6 -4 -3 -4 -4 -6 -8 -5 -4 -4 -3 -2 -2 -1 -1 -0 0 -0 0 0 -0 0 0 0 1 1 1 0 0 0 -0 -0 -1 -1 -1
-10 -9 -10 -9 -8 -8 -9 -9 -7 -7 -4 -4 -4 -4 -5 -8 -8 -7 -5 -4 -4 -3 -3 -2 -1 -1 -0 -0 -0 -1 -1 -1 -1 -0 0 1 0 0 -0 -0 -0 -0 -0 -1
-13 -12 -12 -11 -9 -10 -10 -10 -10 -6 -4 -4 -5 -5 -5 -6 -8 -8 -10 -5 -4 -4 -4 -4 -3 -3 -2 -2 -2 -1 -1 -1 -1 -0 -0 0 -0 -0 -0 -0 -0 -0 -0 -1
-16 -13 -11 -10 -10 -11 -11 -10 -9 -7 -5 -5 -5 -5 -5 -5 -8 -8 -10 -10 -6 -6 -5 -4 -4 -3 -3 -3 -3 -2 -1 -1 -1 -1 -1 -1 -0 -0 -0 -1 -1 -1 -1 -1
-14 -12 -11 -12 -14 -17 -16 -13 -9 -7 -5 -5 -5 -5 -6 -6 -8 -8 -9 -11 -7 -6 -6 -5 -4 -4 -3 -4 -3 -3 -2 -2 -1 -1 -1 -1 -1 -1 -1 -1 -1 -1 -1 -1
-12 -12 -12 -13 -17 -18 -18 -17 -13 -8 -7 -6 -5 -5 -6 -6 -7 -7 -6 -6 -8 -8 -10 -9 -7 -5 -5 -5 -4 -3 -2 -2 -2 -2 -2 -2 -2 -2 -2 -2 -2 -2 -3 -3
-12 -11 -11 -14 -16 -16 -16 -17 -17 -13 -8 -5 -6 -6 -6 -6 -7 -7 -7 -6 -7 -10 -11 -9 -8 -6 -6 -6 -5 -5 -4 -3 -3 -3 -2 -2 -2 -3 -3 -3 -3 -4 -4 -4
-12 -12 -12 -16 -13 -14 -15 -16 -17 -16 -14 -7 -6 -6 -6 -7 -7 -7 -7 -7 -7 -9 -13 -11 -9 -8 -7 -6 -6 -5 -5 -5 -4 -4 -4 -4 -3 -3 -4 -4 -4 -4 -4 -4
-13 -11 -13 -14 -11 -10 -8 -8 -10 -14 -14 -10 -6 -6 -7 -7 -7 -8 -8 -7 -7 -8 -13 -13 -12 -10 -7 -7 -6 -6 -6 -6 -5 -5 -5 -5 -5 -4 -5 -5 -5 -5 -5 -5
-13 -14 -13 -13 -9 -8 -7 -7 -8 -12 -14 -12 -7 -6 -7 -7 -7 -8 -8 -8 -8 -8 -14 -14 -13 -14 -11 -8 -8 -7 -7 -6 -6 -6 -6 -5 -5 -5 -5 -5 -5 -5 -5 -5
-14 -15 -14 -14 -12 -8 -6 -6 -9 -12 -12 -13 -11 -6 -6 -7 -7 -7 -9 -13 -12 -9 -14 -14 -14 -14 -14 -14 -12 -12 -10 -8 -6 -6 -5 -5 -5 -5 -5 -5 -5 -5 -5 -5

GFSNGP_850_dewp_069.txt.gz
Dewpoint
1 2 3 3 3 4 3 3 3 2 1 -0 -1 -1 -1 1 1 1 -0 -1 -1 -0 -0 1 -0 0 2 1 3 3 3 3 2 2 1 1 1 1 1 1 0 -1 -1 -0
1 0 1 2 1 1 2 2 3 2 2 -2 -0 1 1 1 0 0 0 -1 -2 -2 -1 -0 3 0 2 2 2 2 2 2 2 2 1 1 2 1 1 0 -1 -1 -0 0
2 -1 -1 0 -0 1 1 1 1 3 0 0 1 1 1 1 2 2 1 0 -0 -1 -1 -1 -0 2 2 2 3 3 3 2 2 2 1 1 1 1 1 -1 -1 -0 -0 0
1 0 0 -2 -4 -3 0 1 -0 -0 1 1 0 -1 1 -2 -2 -1 1 2 1 0 -0 -1 -0 -0 2 2 3 3 3 2 2 2 1 1 1 1 -0 -1 -1 -0 0 0
2 2 -0 0 -1 -1 1 2 -1 -0 -1 -2 -3 -1 0 -2 -4 -4 -3 -2 2 2 1 -0 -1 -0 1 3 3 3 3 2 2 2 1 1 1 1 -1 -1 -1 -1 -0 -0
1 1 2 0 -2 -2 -3 3 -2 -3 -4 -4 -4 0 -1 -4 -5 -6 -5 -6 0 2 2 1 -1 -0 0 3 3 3 3 2 2 2 2 1 1 0 -1 -1 -1 -0 -0 -0
1 1 1 -1 -2 -2 -1 -1 -3 -3 -3 -3 -3 -4 -4 -5 -5 -4 -4 -6 -5 1 2 1 1 -1 -0 1 2 2 3 3 2 2 2 1 1 -1 -1 -1 -0 -0 -0 -1
1 3 2 -3 -1 1 -2 -3 -3 -3 -2 -2 -2 -3 -2 -2 -2 -2 -2 -3 -6 -1 2 2 1 0 1 3 3 3 3 3 2 2 1 1 0 -1 -1 -1 -0 -0 -0 -0
-0 0 -4 -3 -3 -3 -3 -2 -2 -2 -2 -2 -2 -2 -2 -1 -1 -1 -1 -2 -3 -3 1 2 1 1 1 1 2 1 2 2 2 2 1 1 -1 -1 -1 -1 -1 -0 -0 -0
-0 -1 -3 -2 -2 -3 -3 -3 -2 -2 -2 -2 -2 -2 -2 -2 -2 -2 -1 -1 -2 -3 0 2 2 1 1 1 1 2 2 2 1 1 1 -0 -1 -1 -1 -1 -1 -0 -0 -1
-2 -4 -3 -3 -3 -3 -3 -3 -3 -3 -2 -2 -2 -2 -2 -2 -1 -2 -2 -1 -0 -1 -1 2 2 2 1 1 1 1 1 1 0 -0 -1 -1 -1 -1 -0 -1 -1 -1 -1 -1
-2 -3 -3 -3 -2 -3 -4 -5 -4 -3 -3 -3 -3 -2 -2 -2 -2 -1 -1 -1 -1 -0 -0 1 2 2 2 2 1 1 1 1 1 2 1 0 -0 -0 -0 -1 -1 -1 -1 -2
-3 -4 -3 -3 -3 -3 -7 -6 -6 -6 -6 -3 -3 -3 -3 -3 -3 -2 -2 -2 -2 -1 -1 -0 1 2 2 2 3 3 3 3 2 2 2 2 1 1 0 -0 -1 -1 -2 -1
-4 -4 -3 -3 -6 -9 -9 -10 -9 -9 -10 -8 -4 -4 -3 -4 -3 -4 -3 -3 -3 -2 -2 -1 0 0 2 2 2 2 2 3 2 2 2 1 1 0 -0 -0 -1 -1 -1 -1
-7 -9 -9 -9 -10 -10 -9 -9 -9 -9 -9 -9 -8 -4 -4 -4 -4 -6 -6 -4 -3 -3 -2 -2 -0 0 1 1 1 2 2 2 2 2 2 1 1 0 -0 -1 -1 -0 -2 -2
-11 -12 -12 -12 -12 -12 -11 -10 -8 -9 -8 -7 -6 -5 -4 -4 -4 -5 -7 -5 -4 -4 -3 -3 -2 -2 -0 -0 0 0 1 1 1 1 1 1 1 0 0 -0 -1 -1 -2 -3
-15 -15 -15 -16 -14 -13 -13 -11 -10 -10 -10 -9 -7 -5 -5 -5 -5 -5 -6 -8 -7 -5 -4 -4 -3 -2 -2 -1 -0 -0 0 -0 -0 -0 0 1 1 1 0 -0 -0 -0 -0 -0
-14 -13 -12 -12 -12 -10 -10 -11 -11 -11 -10 -10 -7 -5 -5 -5 -5 -5 -6 -7 -8 -9 -5 -4 -4 -3 -3 -2 -1 -1 -1 -1 -1 -1 -1 -0 0 0 0 -0 -0 -0 -0 -0
-16 -15 -14 -12 -11 -10 -11 -14 -16 -15 -12 -9 -7 -5 -6 -7 -5 -5 -6 -7 -7 -10 -7 -5 -4 -4 -4 -4 -3 -2 -2 -2 -2 -2 -1 -1 -1 -0 -0 -0 -0 -0 -0 -0
-15 -14 -13 -12 -11 -12 -15 -18 -18 -18 -17 -9 -7 -5 -5 -5 -5 -6 -6 -7 -7 -8 -7 -5 -6 -5 -4 -4 -4 -3 -3 -2 -2 -2 -2 -1 -1 -1 -1 -1 -1 -1 -1 -1
-14 -13 -13 -13 -12 -13 -17 -18 -16 -17 -17 -14 -9 -6 -6 -6 -6 -6 -6 -7 -7 -6 -8 -7 -7 -8 -5 -5 -4 -4 -3 -3 -3 -3 -2 -2 -2 -2 -1 -1 -2 -1 -1 -2
-14 -13 -12 -12 -12 -14 -17 -16 -16 -16 -16 -16 -15 -7 -6 -6 -6 -6 -7 -7 -7 -7 -7 -9 -10 -9 -6 -6 -5 -5 -4 -3 -4 -3 -3 -3 -2 -2 -2 -2 -2 -2 -2 -2
-17 -17 -14 -12 -11 -15 -15 -12 -9 -9 -12 -14 -13 -8 -6 -6 -7 -7 -7 -7 -7 -7 -7 -9 -8 -8 -7 -6 -6 -6 -5 -4 -4 -4 -4 -3 -3 -3 -3 -3 -3 -3 -3 -3
-13 -13 -14 -15 -13 -14 -12 -9 -7 -7 -9 -12 -14 -12 -6 -6 -7 -7 -7 -8 -8 -8 -8 -8 -8 -8 -8 -7 -7 -6 -6 -6 -5 -5 -5 -5 -4 -4 -3 -3 -4 -4 -4 -4
-12 -13 -14 -15 -15 -14 -13 -10 -6 -8 -10 -12 -12 -13 -10 -7 -7 -7 -8 -8 -8 -8 -8 -8 -9 -10 -9 -7 -7 -7 -7 -6 -6 -6 -6 -6 -5 -6 -5 -4 -4 -5 -5 -5
-12 -13 -14 -14 -14 -13 -12 -11 -7 -7 -7 -12 -12 -12 -13 -8 -7 -8 -8 -8 -8 -8 -8 -10 -11 -11 -10 -9 -8 -8 -7 -7 -7 -7 -6 -6 -6 -6 -5 -5 -5 -5 -5 -5
-13 -14 -13 -12 -13 -13 -12 -10 -10 -10 -8 -12 -12 -12 -12 -12 -7 -8 -8 -8 -9 -9 -9 -12 -11 -12 -11 -12 -11 -11 -11 -10 -7 -7 -7 -6 -6 -6 -5 -5 -5 -5 -5 -5

GFSNGP_850_dewp_072.txt.gz
Dewpoint
1 1 3 3 3 4 2 2 2 1 -0 0 -1 -1 0 1 0 -0 -0 -1 -1 -1 -2 -1 -0 0 2 2 1 2 3 4 3 3 3 2 2 1 1 1 1 1 1 -0
1 0 0 2 1 2 3 2 2 2 2 -1 0 1 1 1 2 2 2 1 1 -0 -1 -1 -1 -0 1 3 3 2 2 3 3 3 2 2 1 1 1 1 1 1 -0 -1
2 -1 -1 1 -1 1 1 1 2 4 1 1 1 2 1 -1 -2 -3 -3 -3 -0 1 1 1 0 -1 -0 -0 3 3 2 2 3 3 2 2 2 1 1 1 1 -0 -1 -1
-0 -1 1 -2 -4 -2 1 1 -0 1 1 -0 -2 -1 -3 -4 -5 -5 -5 -5 -5 -4 1 1 1 0 -1 -0 -0 3 3 3 2 2 2 2 2 2 1 1 0 -1 -1 -1
1 0 -1 -1 -1 -1 1 2 -2 -1 -3 -4 -4 0 -2 -2 -4 -5 -6 -6 -6 -7 -5 1 2 1 -1 -1 -0 2 3 3 3 2 2 2 2 1 1 1 -0 -1 -1 -1
1 2 3 -1 -2 -2 -2 2 -4 -4 -3 -3 -4 -2 -2 -4 -5 -5 -5 -5 -5 -8 -9 -2 2 1 0 -0 -0 1 2 3 3 3 2 2 2 2 1 1 -1 -1 -1 -1
1 1 0 -1 -2 -2 -1 -2 -3 -3 -3 -3 -3 -4 -3 -3 -3 -3 -3 -4 -4 -4 -8 -2 2 2 1 0 -0 0 3 3 3 3 3 2 2 2 1 0 -1 -1 -1 -0
1 3 3 -3 -1 -0 -3 -3 -3 -3 -3 -3 -3 -3 -3 -3 -3 -3 -3 -3 -3 -3 -5 -5 1 2 1 1 1 2 3 3 3 3 3 2 2 2 1 -0 -1 -1 -1 -0
-0 1 -3 -3 -3 -3 -3 -3 -3 -3 -3 -3 -2 -2 -2 -2 -2 -3 -2 -2 -1 -1 -2 -5 0 2 2 1 1 2 3 3 3 3 2 2 2 1 1 -0 -1 -1 -1 -1
-0 -2 -2 -2 -3 -3 -3 -3 -3 -3 -3 -3 -2 -2 -2 -2 -2 -2 -1 -2 -1 -1 -1 -3 -0 2 2 2 1 1 1 2 2 2 2 2 1 1 0 -0 -1 -1 -1 -1
-3 -3 -2 -2 -2 -3 -3 -4 -4 -4 -4 -3 -3 -3 -3 -2 -2 -2 -2 -2 -1 -1 -1 -1 -0 2 2 2 1 1 1 1 1 1 1 1 0 -0 -1 -1 -1 -0 -1 -1
-1 -4 -4 -3 -2 -3 -5 -9 -7 -7 -9 -8 -5 -3 -3 -3 -3 -3 -3 -2 -2 -2 -2 -2 -1 -0 2 2 2 2 1 1 1 1 1 2 2 1 1 -0 -0 -1 -1 -1
-3 -4 -3 -3 -3 -5 -10 -10 -10 -10 -9 -9 -8 -7 -4 -4 -4 -4 -4 -5 -5 -3 -3 -3 -2 -1 -0 1 2 2 2 2 2 1 1 2 1 1 1 1 -0 -1 -1 -1
-5 -5 -4 -5 -9 -10 -10 -11 -10 -9 -9 -8 -8 -7 -6 -5 -5 -5 -4 -5 -6 -5 -3 -3 -2 -2 -1 0 1 2 2 2 2 2 2 1 1 1 1 0 -0 -0 -1 -1
-9 -12 -12 -11 -11 -12 -13 -12 -11 -11 -11 -11 -11 -9 -7 -6 -5 -5 -5 -5 -5 -7 -6 -4 -4 -3 -2 -1 -0 0 1 1 2 1 1 1 1 1 1 0 -0 -1 -1 -2
-11 -12 -13 -13 -14 -14 -13 -12 -10 -11 -12 -13 -11 -9 -7 -7 -6 -5 -6 -6 -5 -5 -7 -9 -6 -4 -4 -2 -2 -1 -0 0 0 1 1 1 1 1 1 0 -0 -0 -1 -1
-17 -17 -17 -17 -14 -13 -12 -11 -11 -13 -16 -17 -15 -12 -10 -8 -6 -6 -7 -6 -5 -6 -6 -8 -10 -6 -4 -3 -3 -2 -1 -1 -0 -0 -0 0 0 0 0 0 -0 -0 -0 -1
-17 -15 -14 -13 -12 -12 -13 -12 -13 -17 -19 -18 -18 -17 -11 -9 -8 -6 -5 -5 -6 -6 -6 -7 -10 -5 -5 -4 -4 -3 -2 -2 -1 -1 -1 -1 -0 -0 -0 -0 -0 -0 -0 -0
-16 -15 -14 -13 -13 -12 -11 -12 -16 -18 -18 -17 -17 -17 -13 -8 -7 -7 -6 -6 -6 -6 -7 -7 -9 -6 -5 -5 -5 -4 -4 -3 -3 -2 -1 -2 -1 -1 -1 -1 -0 -0 -0 -0
-15 -14 -13 -13 -13 -12 -12 -12 -15 -18 -17 -16 -16 -16 -15 -12 -7 -6 -6 -7 -7 -6 -7 -7 -7 -7 -6 -7 -5 -5 -4 -4 -4 -3 -3 -2 -2 -1 -1 -1 -1 -1 -1 -1
-16 -17 -18 -18 -17 -14 -12 -12 -15 -16 -14 -12 -13 -14 -13 -11 -7 -6 -6 -7 -8 -7 -7 -7 -7 -8 -9 -9 -6 -6 -5 -5 -4 -4 -3 -3 -2 -2 -2 -2 -1 -1 -1 -1
-16 -15 -15 -16 -15 -16 -14 -12 -15 -13 -8 -8 -11 -12 -13 -13 -8 -6 -7 -7 -7 -7 -7 -7 -7 -8 -8 -7 -7 -7 -6 -6 -5 -5 -4 -3 -3 -3 -3 -2 -2 -2 -2 -2
-14 -14 -13 -13 -13 -15 -16 -16 -14 -11 -7 -7 -11 -12 -12 -13 -10 -6 -7 -7 -8 -8 -8 -8 -8 -8 -8 -8 -8 -7 -7 -6 -5 -5 -4 -3 -4 -4 -3 -3 -3 -3 -3 -3
-13 -13 -12 -12 -13 -14 -15 -16 -15 -13 -10 -7 -7 -12 -12 -12 -13 -9 -7 -7 -8 -8 -9 -8 -8 -9 -8 -8 -7 -8 -7 -6 -6 -6 -5 -5 -5 -5 -5 -4 -4 -4 -3 -3
-13 -11 -12 -12 -13 -13 -12 -12 -14 -13 -12 -11 -7 -8 -12 -12 -11 -11 -7 -8 -8 -9 -9 -9 -9 -9 -9 -9 -8 -8 -8 -7 -7 -6 -6 -6 -6 -6 -6 -5 -5 -4 -4 -4
-11 -11 -12 -12 -12 -11 -11 -10 -11 -12 -10 -10 -9 -10 -10 -11 -11 -12 -8 -8 -8 -9 -9 -9 -9 -9 -9 -10 -9 -8 -8 -8 -7 -7 -7 -7 -7 -7 -6 -5 -5 -5 -5 -5
-14 -13 -12 -11 -11 -10 -9 -9 -9 -10 -9 -8 -7 -8 -8 -10 -11 -12 -9 -8 -8 -8 -9 -9 -10 -9 -10 -10 -10 -10 -10 -10 -8 -8 -7 -7 -7 -7 -6 -6 -6 -5 -5 -5

GFSNGP_850_dewp_075.txt.gz
Dewpoint
1 1 2 3 3 3 2 1 1 1 -1 -0 -1 -0 1 1 0 1 1 0 0 0 -0 -1 -1 -1 -1 -0 1 2 3 3 3 4 3 3 3 3 2 2 1 1 1 1
0 -1 -1 2 1 3 3 2 2 1 2 -1 1 1 1 2 1 -1 -2 -2 -2 -1 0 1 1 0 -1 -1 -0 2 3 3 3 3 3 3 3 2 2 1 1 1 1 1
1 -1 -2 0 -1 1 2 2 2 3 1 1 1 2 -1 -3 -4 -5 -5 -6 -6 -6 -6 -4 -0 1 0 -1 -1 -0 1 3 3 3 3 3 2 2 2 1 1 1 1 1
-1 -1 1 -2 -4 -3 1 1 1 1 0 -0 -0 0 -4 -4 -4 -4 -5 -5 -6 -6 -7 -8 -7 -3 1 0 -1 -1 -0 2 3 3 3 3 2 2 2 2 1 1 1 -0
0 -0 -1 -1 -2 1 1 1 -2 -1 -3 -4 -4 -1 -3 -2 -3 -3 -3 -4 -4 -5 -6 -6 -8 -6 -1 1 0 -1 -1 0 2 3 3 3 2 2 2 2 1 1 0 -1
1 2 3 -2 -2 -2 -2 1 -3 -4 -4 -3 -2 1 -1 -1 -4 -4 -3 -3 -4 -4 -4 -5 -5 -6 -1 2 0 -0 -0 1 2 3 3 3 3 2 2 2 1 1 0 -1
1 1 -0 -3 -2 -3 0 -1 -3 -3 -3 -3 -3 -4 -4 -3 -3 -3 -3 -4 -3 -3 -3 -3 -4 -5 -1 2 1 0 -0 0 2 3 3 3 3 2 2 2 1 1 0 -1
1 3 2 -3 -1 -1 -3 -3 -3 -3 -3 -3 -3 -3 -3 -3 -3 -2 -2 -3 -2 -2 -2 -2 -2 -4 -1 2 2 1 0 1 2 3 3 3 3 2 2 2 2 1 0 -1
-0 0 -3 -3 -2 -3 -3 -3 -3 -3 -3 -3 -3 -3 -3 -3 -3 -3 -3 -2 -2 -2 -1 -1 -1 -0 1 2 2 1 1 1 3 3 3 3 3 2 2 2 2 1 0 -1
-1 -2 -2 -2 -3 -3 -3 -3 -3 -4 -4 -5 -4 -4 -4 -4 -4 -4 -3 -3 -3 -2 -2 -2 -1 -1 -1 1 2 1 1 1 1 2 3 2 2 2 2 2 1 1 0 -1
-2 -3 -2 -2 -3 -3 -3 -6 -8 -7 -7 -7 -8 -10 -9 -8 -7 -5 -3 -4 -3 -3 -4 -3 -3 -3 -2 -1 1 2 1 1 2 2 2 2 2 2 1 1 0 -0 -1 -1
-1 -4 -3 -3 -3 -3 -4 -10 -11 -10 -11 -10 -10 -10 -10 -10 -9 -9 -6 -4 -4 -5 -5 -6 -4 -3 -3 -2 -1 1 1 1 1 1 1 1 1 1 1 2 1 0 -0 -0
-4 -3 -3 -3 -3 -3 -8 -11 -10 -10 -10 -10 -10 -10 -10 -10 -9 -7 -8 -6 -6 -8 -6 -6 -6 -5 -3 -3 -2 -0 0 1 1 2 2 1 1 1 1 1 1 1 1 -0
-5 -5 -4 -4 -8 -8 -10 -11 -11 -11 -12 -12 -12 -13 -11 -10 -10 -10 -10 -10 -6 -6 -7 -6 -6 -7 -5 -4 -3 -1 -0 0 0 1 1 2 2 2 1 1 1 1 1 -0
-10 -12 -12 -11 -11 -11 -13 -14 -14 -14 -13 -14 -15 -16 -15 -12 -11 -9 -8 -7 -6 -6 -7 -7 -6 -6 -8 -8 -4 -3 -2 -1 -0 0 0 0 1 1 1 1 1 1 1 -0
-13 -13 -12 -13 -14 -14 -16 -15 -13 -13 -12 -15 -18 -19 -19 -17 -13 -9 -9 -8 -6 -6 -6 -6 -6 -6 -7 -9 -5 -4 -3 -2 -1 -1 -0 -0 -0 0 1 1 1 1 0 0
-13 -16 -14 -15 -15 -15 -14 -13 -11 -11 -13 -17 -19 -18 -18 -18 -18 -14 -11 -10 -8 -6 -6 -6 -6 -6 -7 -8 -6 -5 -4 -3 -3 -2 -1 -1 -0 -0 -0 0 0 0 0 0
-16 -16 -15 -14 -14 -13 -14 -14 -13 -12 -13 -17 -17 -17 -17 -17 -16 -17 -14 -9 -8 -8 -7 -7 -7 -7 -7 -7 -7 -6 -5 -4 -4 -3 -2 -2 -1 -1 -1 -1 -0 -0 0 0
-15 -15 -15 -14 -13 -13 -13 -12 -12 -12 -12 -15 -16 -15 -14 -13 -14 -14 -13 -10 -7 -7 -7 -7 -7 -7 -7 -7 -7 -6 -6 -5 -4 -4 -3 -3 -2 -2 -2 -1 -1 -1 -0 -0
-16 -15 -15 -17 -18 -17 -16 -16 -15 -12 -12 -14 -14 -11 -10 -11 -13 -13 -13 -10 -6 -7 -7 -7 -7 -7 -7 -7 -7 -8 -8 -6 -5 -5 -4 -4 -3 -3 -3 -2 -2 -1 -1 -1
-18 -18 -17 -15 -15 -15 -14 -14 -15 -15 -14 -14 -12 -8 -9 -12 -12 -12 -13 -12 -9 -7 -8 -7 -7 -8 -8 -7 -8 -8 -7 -6 -6 -6 -5 -4 -4 -4 -3 -2 -2 -2 -2 -1
-18 -16 -15 -14 -14 -14 -13 -13 -14 -15 -15 -14 -12 -7 -8 -11 -12 -12 -12 -11 -9 -8 -8 -8 -8 -8 -8 -8 -8 -7 -7 -7 -7 -6 -5 -5 -4 -4 -3 -3 -3 -2 -2 -2
-17 -15 -14 -13 -13 -12 -12 -13 -13 -12 -13 -14 -13 -10 -7 -7 -11 -12 -11 -11 -10 -8 -8 -8 -8 -8 -8 -8 -8 -8 -8 -8 -7 -6 -6 -5 -5 -5 -4 -4 -3 -3 -3 -3
-15 -14 -13 -12 -12 -11 -11 -12 -11 -12 -12 -11 -13 -12 -11 -6 -7 -10 -11 -11 -11 -8 -8 -8 -9 -9 -9 -9 -9 -8 -8 -8 -7 -7 -6 -6 -6 -5 -5 -5 -4 -4 -4 -4
-13 -12 -12 -11 -11 -12 -12 -11 -10 -10 -9 -10 -11 -11 -10 -7 -7 -9 -10 -11 -12 -8 -8 -9 -9 -9 -9 -9 -9 -9 -8 -8 -8 -7 -7 -7 -6 -6 -6 -6 -6 -5 -5 -5
-14 -13 -12 -11 -11 -9 -9 -9 -9 -9 -9 -9 -10 -11 -9 -8 -8 -8 -10 -11 -11 -8 -8 -9 -9 -10 -10 -10 -10 -9 -9 -9 -8 -8 -8 -7 -7 -7 -7 -7 -7 -6 -6 -5
-11 -11 -10 -10 -9 -9 -10 -10 -9 -10 -9 -9 -9 -10 -10 -10 -9 -10 -10 -11 -11 -8 -8 -9 -9 -9 -10 -10 -10 -10 -10 -10 -10 -9 -8 -8 -8 -8 -8 -7 -7 -6 -6 -6

GFSNGP_850_dewp_078.txt.gz
Dewpoint
1 1 2 3 3 3 2 1 0 1 1 -0 -2 -0 1 0 1 0 -1 -1 -1 -1 -1 -0 -0 -0 -1 -2 -2 -1 0 1 1 2 3 4 3 3 3 3 3 2 2 1
0 -1 -1 2 1 3 2 2 1 -0 0 -1 -1 1 1 1 -0 -1 -3 -4 -5 -5 -6 -6 -6 -4 -2 0 -1 -2 -1 -0 2 2 3 3 3 3 3 3 2 2 1 1
1 -1 -1 0 -1 1 2 2 1 2 0 1 1 2 -0 -2 -4 -4 -4 -4 -5 -5 -5 -5 -6 -7 -7 -5 -0 0 -1 -1 0 3 3 3 3 3 3 2 2 2 1 1
-1 -1 0 -3 -4 -3 0 0 1 1 0 -1 0 -0 -2 -4 -4 -3 -3 -3 -4 -4 -5 -5 -5 -6 -6 -8 -4 0 0 -1 -0 2 3 3 3 3 3 2 2 2 1 1
0 -0 -2 -1 -1 0 1 1 -1 -1 -4 -4 -3 -2 -3 -4 -3 -3 -3 -3 -4 -4 -5 -5 -4 -4 -5 -6 -6 -0 1 -0 -1 0 3 3 3 3 3 2 2 2 1 1
1 2 3 -2 -2 -2 -2 0 -3 -3 -4 -3 -0 0 -1 -2 -3 -4 -4 -3 -3 -4 -4 -3 -3 -2 -3 -5 -5 0 2 1 -0 0 2 3 3 3 3 2 2 2 2 1
2 1 -0 -3 -2 -3 0 -2 -4 -3 -3 -3 -4 -4 -3 -3 -4 -4 -3 -3 -3 -3 -3 -3 -2 -2 -2 -3 -2 1 2 1 1 1 2 3 3 3 3 2 2 2 2 1
1 2 1 -3 -2 -2 -3 -3 -3 -3 -3 -3 -3 -3 -4 -4 -4 -4 -5 -5 -4 -4 -3 -3 -2 -2 -1 -1 -0 2 2 1 1 2 2 3 3 3 3 3 2 2 2 2
-0 -1 -3 -3 -2 -3 -3 -3 -3 -3 -3 -3 -4 -4 -5 -6 -6 -6 -5 -5 -4 -5 -5 -5 -5 -3 -3 -2 -1 -0 2 1 1 2 3 3 3 3 3 3 2 2 2 2
-1 -3 -3 -2 -3 -3 -3 -3 -3 -4 -4 -5 -6 -8 -10 -11 -11 -10 -11 -12 -9 -7 -8 -8 -8 -7 -5 -3 -3 -2 0 2 1 2 2 3 3 3 3 2 2 2 2 2
-2 -3 -3 -3 -3 -3 -3 -5 -8 -8 -8 -10 -11 -11 -12 -13 -13 -12 -12 -12 -12 -14 -14 -12 -10 -8 -7 -5 -3 -3 -2 0 2 1 2 2 2 2 2 2 2 1 1 1
-1 -4 -3 -4 -3 -3 -3 -7 -11 -11 -11 -11 -11 -12 -13 -14 -14 -14 -15 -15 -15 -14 -13 -14 -12 -10 -9 -7 -5 -3 -3 -2 -0 1 1 1 1 2 2 2 1 1 1 0
-4 -4 -4 -3 -3 -3 -4 -9 -10 -10 -11 -13 -13 -12 -13 -13 -15 -16 -15 -14 -12 -10 -10 -11 -11 -10 -10 -8 -6 -7 -4 -3 -1 -0 0 0 1 1 1 1 1 1 1 1
-4 -4 -4 -4 -6 -6 -8 -10 -12 -14 -14 -13 -13 -14 -16 -18 -19 -18 -18 -15 -11 -10 -11 -11 -10 -11 -9 -7 -6 -6 -8 -5 -3 -2 -1 -0 -0 -0 0 0 1 1 1 1
-8 -10 -12 -10 -9 -11 -13 -14 -15 -15 -14 -13 -13 -15 -19 -19 -20 -20 -19 -18 -11 -11 -11 -10 -8 -9 -8 -7 -6 -6 -7 -7 -4 -3 -2 -1 -1 -0 -0 -0 -0 0 1 1
-9 -11 -11 -11 -14 -15 -16 -15 -14 -14 -13 -13 -14 -16 -18 -19 -18 -18 -19 -17 -15 -15 -12 -9 -10 -9 -7 -7 -7 -6 -7 -6 -5 -4 -3 -2 -1 -1 -1 -1 -0 0 0 1
-12 -15 -16 -16 -17 -16 -15 -14 -13 -14 -15 -14 -12 -13 -17 -17 -17 -17 -13 -13 -14 -15 -15 -9 -10 -8 -7 -7 -7 -7 -7 -7 -6 -5 -4 -4 -3 -2 -1 -1 -1 -0 0 0
-15 -17 -16 -16 -16 -14 -15 -16 -17 -17 -14 -14 -12 -12 -15 -16 -13 -11 -12 -13 -13 -14 -14 -10 -8 -8 -8 -7 -7 -7 -7 -7 -6 -6 -5 -5 -4 -3 -2 -2 -1 -1 -0 -0
-16 -15 -15 -16 -15 -15 -18 -17 -15 -15 -15 -16 -14 -12 -13 -14 -11 -10 -12 -12 -12 -12 -13 -9 -8 -8 -8 -8 -7 -7 -7 -7 -7 -7 -6 -5 -5 -4 -3 -2 -2 -1 -1 -1
-15 -15 -16 -17 -18 -16 -15 -14 -13 -13 -13 -14 -15 -15 -14 -13 -8 -9 -12 -12 -12 -11 -11 -10 -9 -8 -8 -8 -8 -8 -8 -8 -8 -7 -6 -6 -6 -5 -4 -4 -3 -2 -2 -2
-15 -16 -17 -18 -16 -15 -14 -13 -13 -12 -12 -13 -13 -13 -14 -13 -9 -7 -10 -12 -11 -11 -11 -11 -9 -9 -8 -8 -8 -8 -8 -8 -7 -7 -7 -7 -6 -5 -5 -4 -4 -4 -3 -2
-16 -16 -16 -16 -14 -13 -13 -12 -12 -11 -11 -13 -12 -12 -12 -13 -13 -9 -7 -7 -10 -11 -11 -11 -9 -8 -8 -8 -8 -8 -8 -8 -8 -8 -8 -7 -6 -6 -5 -5 -4 -4 -3 -3
-16 -15 -14 -14 -13 -12 -12 -12 -11 -11 -12 -11 -11 -10 -10 -10 -10 -10 -10 -8 -9 -10 -10 -11 -8 -8 -9 -8 -9 -9 -9 -9 -8 -8 -7 -7 -6 -6 -5 -5 -4 -4 -4 -3
-17 -17 -16 -14 -14 -13 -13 -12 -11 -10 -10 -10 -10 -10 -9 -10 -9 -8 -7 -7 -8 -9 -10 -9 -8 -8 -9 -9 -9 -9 -9 -9 -9 -8 -8 -7 -7 -6 -6 -5 -5 -4 -4 -4
-14 -13 -13 -12 -11 -10 -9 -9 -9 -10 -10 -10 -10 -10 -9 -9 -9 -8 -8 -8 -8 -10 -11 -9 -8 -9 -9 -10 -10 -10 -10 -9 -9 -9 -8 -8 -7 -7 -7 -6 -6 -5 -5 -5
-13 -13 -12 -11 -11 -11 -11 -11 -11 -11 -11 -11 -10 -11 -11 -10 -9 -9 -9 -10 -10 -11 -10 -8 -9 -9 -9 -10 -10 -10 -10 -10 -10 -9 -9 -8 -8 -8 -7 -7 -7 -6 -6 -6
-14 -13 -13 -13 -14 -14 -14 -12 -12 -12 -12 -12 -12 -12 -11 -10 -10 -9 -10 -10 -10 -11 -9 -8 -9 -9 -9 -10 -10 -10 -10 -10 -10 -10 -9 -9 -9 -8 -8 -8 -8 -7 -7 -7

GFSNGP_850_dewp_081.txt.gz
Dewpoint
-0 -0 2 3 3 2 2 -0 -0 -0 1 -0 -1 1 0 1 -0 -2 -3 -4 -4 -5 -5 -5 -5 -4 -4 -2 -1 -1 -2 -2 -0 2 2 3 3 4 4 4 4 4 3 3
0 -1 -2 2 2 2 2 1 1 -1 -0 -2 -1 1 1 -0 -2 -4 -4 -4 -4 -4 -4 -4 -5 -5 -5 -6 -7 -6 -2 -1 -1 -0 2 2 3 3 3 3 3 3 3 2
1 -1 -2 -0 -1 0 2 1 1 2 0 0 1 1 -1 -4 -4 -3 -3 -3 -3 -4 -4 -5 -5 -5 -6 -7 -7 -8 -8 -4 -1 -1 -0 3 3 3 3 3 3 3 2 2
-0 -1 1 -3 -4 -2 -0 0 1 1 -1 -1 1 -1 -3 -4 -3 -2 -2 -3 -3 -5 -5 -5 -4 -4 -4 -4 -5 -6 -7 -6 -1 -0 -1 1 3 3 3 3 3 2 2 2
1 0 -2 -2 -2 -0 0 -0 -1 -2 -3 -3 -2 -3 -3 -4 -3 -3 -3 -4 -4 -4 -4 -4 -3 -3 -3 -3 -3 -4 -5 -3 -1 1 -0 -0 3 3 3 3 3 2 2 2
1 2 2 -2 -2 -2 -2 -1 -3 -3 -3 -2 -1 -0 -2 -3 -4 -4 -4 -4 -4 -4 -4 -3 -3 -3 -3 -2 -2 -2 -2 -1 1 1 1 1 1 3 3 3 3 2 2 2
1 1 -0 -3 -3 -3 1 -2 -3 -3 -3 -3 -4 -4 -3 -3 -4 -4 -5 -5 -6 -6 -6 -4 -4 -4 -4 -3 -3 -2 -1 0 2 1 1 2 2 3 3 3 3 2 2 2
0 1 1 -3 -2 -1 -3 -3 -3 -3 -3 -3 -3 -4 -4 -5 -6 -8 -9 -10 -10 -11 -11 -9 -9 -9 -9 -6 -4 -3 -2 -1 1 2 1 2 3 3 3 3 3 2 2 2
-1 -1 -4 -3 -2 -3 -3 -3 -3 -3 -3 -3 -4 -5 -7 -11 -13 -13 -13 -15 -16 -17 -19 -18 -15 -13 -14 -12 -9 -5 -3 -3 -1 1 1 2 3 3 3 3 3 3 2 2
-1 -3 -3 -3 -3 -3 -3 -3 -3 -3 -4 -5 -7 -9 -11 -11 -11 -12 -13 -14 -15 -16 -16 -18 -17 -15 -14 -13 -11 -9 -6 -4 -2 -1 1 2 2 3 3 3 3 3 2 2
-2 -3 -3 -3 -3 -3 -3 -3 -5 -8 -8 -9 -10 -10 -11 -13 -14 -15 -16 -15 -14 -14 -15 -16 -15 -15 -14 -12 -11 -11 -10 -8 -4 -3 -0 1 1 2 2 2 2 2 2 2
-1 -3 -3 -3 -3 -3 -3 -4 -7 -10 -10 -10 -11 -12 -14 -16 -16 -17 -18 -17 -15 -14 -13 -14 -14 -16 -15 -12 -10 -10 -10 -9 -8 -5 -3 -1 0 1 1 1 1 2 1 1
-4 -4 -4 -3 -3 -3 -3 -5 -9 -10 -11 -14 -14 -13 -14 -16 -17 -18 -19 -20 -20 -19 -16 -14 -13 -15 -14 -14 -11 -8 -7 -8 -8 -8 -6 -3 -1 -0 0 0 0 1 1 1
-4 -4 -4 -4 -5 -4 -5 -9 -12 -14 -15 -15 -15 -14 -13 -15 -17 -20 -21 -19 -19 -19 -19 -17 -15 -16 -13 -10 -10 -11 -8 -7 -7 -7 -7 -4 -3 -2 -1 -0 -0 0 0 0
-6 -7 -11 -11 -8 -10 -12 -15 -16 -16 -16 -17 -14 -12 -12 -14 -16 -19 -19 -17 -17 -15 -14 -14 -15 -15 -14 -13 -11 -8 -8 -7 -7 -6 -5 -5 -4 -3 -2 -1 -1 -0 -0 -0
-7 -10 -12 -12 -12 -14 -16 -16 -15 -16 -17 -16 -16 -16 -14 -13 -13 -15 -17 -16 -13 -12 -13 -13 -14 -15 -14 -11 -9 -8 -7 -7 -7 -6 -6 -6 -5 -4 -3 -2 -1 -1 -1 -0
-10 -12 -14 -16 -16 -16 -16 -15 -15 -17 -17 -18 -17 -17 -17 -15 -13 -13 -16 -13 -11 -12 -13 -12 -13 -14 -12 -9 -9 -8 -7 -7 -7 -7 -7 -7 -6 -5 -4 -4 -3 -2 -1 -1
-12 -16 -17 -16 -15 -16 -17 -17 -18 -17 -16 -15 -14 -14 -15 -16 -17 -15 -14 -12 -10 -12 -12 -12 -12 -12 -11 -9 -8 -8 -8 -7 -7 -8 -7 -7 -6 -6 -5 -5 -4 -3 -2 -1
-16 -16 -15 -14 -16 -16 -17 -18 -16 -15 -15 -14 -13 -12 -13 -14 -14 -14 -14 -12 -8 -11 -12 -11 -11 -11 -11 -10 -9 -8 -8 -8 -8 -8 -8 -8 -7 -7 -6 -5 -5 -4 -3 -2
-14 -14 -14 -16 -17 -17 -17 -16 -14 -13 -13 -12 -11 -11 -11 -13 -13 -12 -12 -12 -9 -8 -11 -11 -11 -11 -10 -9 -9 -8 -8 -8 -8 -8 -8 -8 -8 -7 -7 -6 -5 -5 -4 -3
-13 -14 -16 -16 -16 -16 -15 -14 -13 -12 -12 -11 -11 -11 -11 -11 -11 -11 -10 -10 -12 -11 -7 -8 -10 -10 -10 -9 -8 -8 -8 -8 -8 -8 -8 -8 -8 -8 -7 -6 -5 -5 -5 -4
-15 -17 -17 -16 -15 -15 -14 -13 -12 -12 -11 -11 -11 -11 -10 -10 -10 -9 -10 -9 -10 -9 -8 -8 -9 -10 -9 -8 -8 -8 -8 -9 -8 -8 -9 -8 -8 -7 -7 -6 -6 -5 -5 -5
-17 -18 -18 -15 -14 -13 -13 -12 -11 -10 -10 -9 -9 -9 -9 -9 -9 -9 -10 -10 -8 -8 -8 -8 -9 -9 -8 -8 -9 -9 -9 -9 -9 -9 -9 -8 -8 -7 -7 -6 -6 -5 -5 -5
-18 -14 -14 -13 -13 -13 -13 -13 -12 -12 -12 -11 -11 -11 -10 -10 -11 -11 -10 -9 -9 -9 -8 -9 -10 -9 -9 -9 -9 -10 -10 -10 -10 -9 -9 -9 -8 -7 -7 -7 -6 -6 -5 -5
-15 -14 -14 -14 -14 -14 -14 -14 -14 -13 -12 -13 -12 -12 -12 -12 -11 -11 -10 -10 -9 -9 -10 -10 -10 -9 -9 -9 -10 -10 -10 -10 -10 -10 -9 -9 -8 -8 -7 -7 -7 -6 -6 -5
-14 -14 -14 -14 -14 -14 -14 -14 -13 -13 -13 -13 -13 -13 -12 -11 -11 -10 -10 -10 -10 -10 -10 -9 -8 -9 -9 -10 -10 -10 -10 -10 -10 -10 -10 -9 -9 -9 -8 -8 -7 -7 -7 -7
-14 -15 -15 -14 -14 -14 -13 -13 -13 -14 -13 -13 -13 -13 -12 -11 -11 -10 -10 -10 -10 -10 -9 -9 -9 -9 -10 -10 -10 -10 -10 -11 -11 -11 -10 -10 -10 -9 -9 -8 -8 -8 -8 -8

GFSNGP_850_dewp_084.txt.gz
Dewpoint
0 0 2 3 3 2 2 0 1 0 0 0 -0 0 0 1 -1 -3 -3 -3 -3 -4 -4 -4 -4 -4 -4 -4 -5 -6 -6 -5 -2 -2 -1 1 2 2 3 3 4 4 5 5
3 -1 0 2 2 2 2 1 -0 -1 1 -2 -1 0 1 -1 -2 -3 -2 -2 -3 -3 -3 -3 -3 -4 -4 -4 -5 -6 -7 -8 -7 -3 -2 -1 2 3 3 4 4 4 4 4
4 -1 -1 1 -1 1 2 1 1 1 0 -1 0 1 -0 -2 -3 -2 -2 -2 -2 -3 -4 -5 -6 -6 -6 -7 -7 -7 -7 -7 -7 -6 -2 -1 -0 3 3 3 3 3 4 4
4 0 4 -2 -4 -2 -1 1 0 1 -0 0 0 -0 -3 -3 -2 -2 -2 -2 -2 -3 -4 -4 -5 -5 -6 -5 -5 -5 -5 -5 -5 -5 -3 -0 0 0 3 3 3 3 3 3
4 2 -1 -1 -2 -0 0 0 -0 -0 -2 -0 -2 -3 -3 -3 -3 -2 -3 -3 -4 -4 -4 -4 -4 -4 -4 -4 -4 -4 -4 -3 -3 -3 -1 0 1 1 2 3 3 3 3 3
1 3 1 -1 -2 -2 -1 -1 -2 -2 -2 -2 -2 1 -0 -2 -3 -3 -4 -4 -5 -6 -6 -6 -5 -7 -7 -6 -5 -4 -4 -3 -3 -2 0 1 1 1 1 3 3 3 3 3
2 2 -0 -3 -4 -2 0 -2 -2 -3 -3 -2 -1 -3 -3 -4 -4 -5 -6 -8 -9 -9 -10 -11 -12 -13 -13 -14 -10 -9 -5 -4 -3 -2 0 1 1 1 2 2 3 3 3 3
0 1 -0 -3 -2 -1 -3 -3 -3 -3 -2 -3 -3 -3 -4 -4 -8 -11 -13 -14 -15 -17 -17 -17 -18 -18 -17 -17 -15 -15 -13 -9 -4 -3 -1 1 1 1 2 3 3 3 3 3
-1 -2 -4 -3 -2 -2 -3 -3 -2 -2 -3 -3 -3 -4 -6 -10 -12 -13 -14 -16 -16 -18 -18 -16 -17 -17 -18 -17 -17 -17 -15 -16 -14 -6 -3 -1 1 2 2 3 3 3 3 3
-1 -2 -3 -2 -3 -3 -3 -3 -3 -3 -3 -4 -5 -8 -11 -12 -14 -15 -16 -17 -18 -17 -14 -15 -15 -16 -16 -16 -15 -15 -16 -15 -16 -15 -9 -3 -0 1 1 2 2 2 3 3
-1 -2 -3 -3 -3 -3 -3 -3 -3 -5 -7 -9 -10 -9 -11 -12 -14 -15 -15 -15 -15 -15 -16 -18 -16 -17 -17 -16 -15 -15 -15 -15 -14 -14 -14 -11 -4 -1 1 1 1 2 2 2
-2 -3 -3 -3 -3 -3 -3 -3 -4 -7 -9 -11 -12 -13 -14 -16 -14 -15 -16 -17 -19 -20 -19 -19 -17 -16 -16 -15 -14 -13 -13 -12 -11 -11 -10 -11 -10 -6 -2 -0 0 0 1 1
-3 -4 -4 -4 -3 -3 -3 -3 -5 -9 -11 -14 -15 -16 -14 -14 -14 -15 -16 -19 -20 -19 -18 -18 -18 -18 -16 -15 -14 -13 -12 -12 -11 -8 -6 -6 -7 -5 -4 -3 -1 -1 -0 0
-3 -4 -3 -4 -4 -4 -3 -5 -11 -14 -16 -16 -16 -15 -14 -14 -15 -15 -15 -16 -18 -18 -18 -18 -14 -13 -13 -14 -14 -12 -11 -10 -9 -9 -7 -6 -6 -5 -5 -3 -2 -1 -1 -1
-4 -4 -7 -10 -8 -8 -11 -14 -16 -16 -16 -16 -16 -16 -17 -17 -17 -17 -17 -14 -14 -16 -17 -13 -12 -13 -13 -14 -14 -13 -11 -10 -8 -7 -7 -7 -6 -6 -6 -5 -3 -2 -2 -1
-7 -9 -11 -12 -12 -13 -15 -16 -16 -16 -16 -18 -19 -19 -17 -17 -16 -16 -17 -17 -13 -14 -14 -11 -12 -12 -12 -13 -13 -12 -11 -10 -9 -7 -7 -7 -7 -7 -6 -5 -5 -4 -3 -2
-7 -9 -11 -13 -16 -16 -15 -15 -15 -16 -17 -19 -17 -16 -15 -14 -14 -13 -13 -14 -15 -15 -14 -11 -11 -12 -11 -11 -11 -11 -10 -10 -9 -7 -8 -7 -8 -8 -7 -6 -6 -5 -4 -3
-7 -12 -16 -16 -15 -14 -15 -16 -16 -16 -18 -16 -15 -14 -13 -12 -12 -12 -12 -13 -13 -13 -14 -13 -9 -11 -11 -11 -11 -11 -10 -9 -8 -8 -8 -8 -8 -8 -7 -7 -6 -6 -5 -4
-12 -15 -15 -14 -14 -15 -16 -17 -17 -17 -16 -14 -13 -13 -12 -11 -11 -11 -11 -12 -12 -11 -12 -12 -9 -10 -11 -10 -10 -10 -9 -8 -8 -8 -8 -8 -8 -8 -8 -7 -7 -6 -6 -5
-14 -14 -13 -13 -15 -16 -16 -16 -15 -15 -14 -13 -12 -12 -11 -10 -10 -10 -9 -9 -10 -10 -10 -10 -11 -8 -7 -7 -9 -10 -9 -8 -8 -9 -9 -8 -8 -8 -8 -7 -8 -7 -6 -5
-12 -12 -14 -17 -18 -18 -17 -15 -14 -13 -13 -12 -11 -10 -9 -9 -9 -9 -9 -9 -10 -10 -9 -9 -8 -8 -8 -8 -8 -8 -9 -8 -8 -9 -9 -9 -9 -8 -8 -8 -8 -7 -6 -5
-12 -15 -18 -19 -17 -15 -15 -14 -13 -12 -12 -11 -11 -10 -10 -10 -10 -10 -10 -10 -10 -10 -9 -9 -8 -8 -8 -8 -8 -9 -8 -9 -9 -9 -9 -9 -9 -9 -8 -8 -7 -7 -6 -6
-18 -20 -17 -15 -15 -15 -14 -14 -15 -14 -14 -13 -12 -12 -11 -11 -11 -11 -11 -11 -10 -10 -10 -9 -9 -9 -9 -9 -9 -9 -9 -9 -10 -10 -10 -10 -9 -9 -8 -8 -7 -7 -6 -6
-18 -17 -15 -14 -14 -15 -15 -15 -15 -14 -14 -14 -14 -13 -12 -12 -12 -12 -11 -11 -10 -10 -10 -10 -10 -10 -10 -9 -9 -9 -10 -10 -10 -10 -10 -10 -9 -9 -8 -8 -7 -7 -6 -6
-17 -15 -14 -15 -15 -15 -15 -14 -14 -14 -14 -13 -13 -13 -13 -12 -12 -11 -11 -10 -10 -10 -10 -10 -9 -9 -9 -9 -9 -10 -10 -10 -10 -10 -11 -10 -10 -9 -8 -8 -8 -7 -7 -6
-15 -15 -15 -15 -15 -14 -14 -14 -14 -13 -13 -13 -13 -13 -12 -12 -11 -11 -11 -10 -10 -10 -9 -9 -9 -9 -10 -10 -10 -10 -10 -11 -11 -11 -11 -11 -10 -9 -9 -9 -8 -8 -7 -7
-15 -15 -15 -15 -15 -14 -14 -14 -14 -13 -13 -13 -12 -12 -12 -11 -11 -11 -11 -11 -11 -10 -9 -9 -10 -10 -10 -10 -10 -10 -11 -11 -11 -11 -11 -11 -11 -10 -9 -9 -9 -8 -8 -7

GFSNGP_850_dewp_090.txt.gz
Dewpoint
0 -0 2 2 2 2 2 -0 2 3 2 1 1 0 -1 -2 -2 -2 -2 -2 -2 -2 -2 -2 -3 -4 -5 -5 -6 -6 -6 -6 -6 -7 -7 -8 -7 -4 -3 -0 1 1 2 3
3 -1 0 1 -0 1 2 2 -0 1 1 -1 -0 0 -1 -2 -2 -2 -2 -1 -2 -2 -2 -2 -3 -5 -5 -6 -7 -7 -7 -7 -7 -7 -7 -7 -7 -8 -5 -2 0 2 3 3
5 1 -1 2 -1 -0 1 1 2 3 1 -1 1 1 -0 -2 -2 -2 -1 -1 -2 -2 -3 -4 -5 -5 -6 -8 -8 -8 -6 -6 -6 -6 -6 -6 -5 -5 -5 -3 -1 1 3 4
3 2 4 -1 -3 -2 -1 -0 0 1 0 1 0 -1 -1 -2 -2 -2 -2 -2 -2 -3 -4 -5 -6 -7 -10 -12 -12 -12 -13 -13 -10 -8 -6 -5 -5 -4 -3 -2 -1 1 2 3
3 3 -1 -1 -1 -0 1 1 -1 -0 -0 -0 -1 -1 -2 -2 -2 -2 -2 -3 -4 -5 -7 -10 -11 -12 -15 -15 -12 -13 -14 -14 -16 -15 -14 -11 -7 -5 -4 -2 -0 1 2 2
2 3 2 0 -2 -2 -2 1 -1 -1 -1 -0 -1 2 -1 -2 -2 -2 -3 -4 -7 -12 -14 -15 -17 -18 -19 -19 -18 -18 -17 -17 -17 -16 -15 -16 -14 -10 -5 -3 0 1 2 3
1 2 0 -2 -2 -2 1 0 -2 -2 -2 -1 -1 -2 -2 -3 -3 -4 -6 -8 -10 -11 -11 -9 -10 -14 -15 -18 -20 -20 -20 -21 -22 -21 -19 -18 -17 -15 -13 -3 -1 0 1 2
-1 0 0 -3 -2 -0 -2 -3 -2 -2 -2 -2 -2 -2 -3 -3 -5 -7 -9 -10 -11 -12 -12 -9 -8 -8 -10 -13 -14 -16 -20 -22 -23 -20 -17 -15 -15 -15 -13 -7 -3 -2 -0 1
-2 -0 -3 -3 -2 -2 -3 -2 -2 -2 -2 -2 -2 -3 -3 -5 -7 -9 -11 -12 -11 -10 -11 -14 -12 -11 -11 -12 -10 -11 -14 -18 -19 -19 -19 -17 -15 -14 -13 -11 -5 -2 -1 0
-2 -3 -3 -3 -3 -3 -3 -2 -2 -2 -2 -2 -3 -4 -5 -7 -9 -11 -12 -12 -11 -13 -14 -16 -16 -16 -16 -14 -12 -11 -12 -14 -16 -16 -15 -13 -13 -12 -10 -10 -10 -8 -3 -2
-2 -3 -3 -3 -3 -2 -2 -3 -3 -3 -3 -4 -5 -6 -7 -9 -12 -13 -12 -12 -12 -14 -16 -16 -17 -18 -18 -17 -15 -11 -9 -11 -13 -13 -12 -12 -13 -12 -10 -6 -6 -7 -5 -4
-1 -3 -3 -2 -2 -2 -2 -3 -3 -3 -4 -4 -5 -9 -13 -16 -15 -14 -14 -13 -15 -18 -18 -18 -18 -19 -18 -18 -16 -13 -10 -10 -9 -9 -9 -10 -12 -14 -13 -9 -8 -6 -6 -5
-3 -3 -3 -3 -3 -3 -3 -2 -3 -4 -4 -6 -12 -14 -15 -15 -15 -16 -17 -18 -18 -16 -15 -15 -16 -16 -16 -16 -13 -11 -9 -9 -10 -10 -10 -10 -12 -12 -12 -15 -9 -8 -7 -7
-3 -3 -3 -3 -3 -4 -4 -4 -5 -6 -12 -16 -16 -15 -14 -14 -16 -17 -17 -16 -14 -14 -15 -14 -14 -13 -14 -14 -12 -10 -9 -9 -10 -9 -9 -10 -9 -8 -8 -7 -7 -10 -7 -8
-3 -3 -4 -4 -4 -5 -7 -9 -12 -15 -16 -14 -13 -12 -14 -14 -14 -15 -14 -14 -14 -13 -12 -11 -11 -12 -12 -12 -11 -10 -9 -9 -9 -7 -7 -7 -7 -7 -7 -7 -7 -7 -8 -7
-3 -3 -4 -6 -9 -10 -12 -13 -14 -14 -13 -13 -15 -16 -15 -13 -13 -13 -12 -12 -11 -10 -10 -10 -10 -11 -11 -11 -10 -9 -8 -8 -7 -6 -7 -7 -7 -8 -8 -8 -8 -8 -8 -8
-3 -5 -7 -9 -10 -11 -13 -14 -13 -13 -14 -17 -17 -17 -16 -15 -14 -13 -12 -11 -10 -9 -9 -10 -10 -9 -8 -8 -8 -8 -8 -7 -7 -7 -7 -8 -8 -8 -8 -8 -8 -8 -8 -8
-6 -7 -7 -9 -12 -15 -14 -13 -13 -16 -18 -19 -18 -16 -14 -12 -11 -9 -9 -9 -9 -10 -11 -10 -9 -9 -9 -9 -9 -8 -8 -8 -7 -8 -8 -8 -8 -9 -8 -8 -8 -8 -9 -9
-7 -8 -11 -14 -14 -13 -12 -14 -19 -21 -18 -16 -15 -14 -13 -12 -12 -12 -12 -12 -11 -11 -11 -10 -10 -10 -10 -10 -9 -9 -9 -8 -8 -8 -9 -8 -8 -9 -9 -9 -9 -9 -9 -9
-8 -10 -13 -13 -12 -12 -16 -21 -20 -18 -16 -16 -15 -15 -14 -14 -14 -13 -13 -12 -12 -11 -11 -11 -11 -11 -10 -10 -9 -9 -8 -8 -9 -9 -9 -8 -8 -8 -9 -9 -8 -9 -9 -9
-9 -12 -13 -12 -13 -20 -22 -21 -16 -16 -16 -16 -15 -15 -14 -14 -14 -13 -13 -12 -12 -11 -10 -11 -11 -10 -10 -10 -10 -9 -9 -9 -9 -9 -9 -8 -8 -9 -9 -9 -10 -10 -10 -9
-12 -12 -11 -13 -21 -22 -18 -16 -16 -16 -15 -15 -15 -14 -14 -14 -13 -13 -12 -11 -11 -11 -11 -11 -11 -11 -10 -10 -10 -10 -9 -9 -9 -9 -8 -9 -10 -10 -10 -10 -10 -10 -9 -10
-11 -10 -16 -23 -23 -17 -17 -16 -16 -16 -15 -15 -15 -14 -13 -13 -12 -12 -12 -12 -11 -11 -11 -11 -10 -11 -10 -10 -10 -10 -9 -9 -9 -10 -10 -10 -10 -10 -10 -10 -10 -10 -9 -9
-12 -20 -23 -22 -17 -17 -16 -16 -15 -16 -15 -14 -14 -13 -13 -13 -13 -12 -12 -12 -11 -11 -12 -10 -11 -10 -10 -10 -10 -10 -10 -10 -10 -11 -11 -11 -11 -11 -11 -11 -10 -10 -9 -9
-22 -22 -20 -17 -17 -16 -16 -15 -15 -15 -15 -14 -14 -13 -13 -12 -12 -12 -12 -12 -11 -11 -10 -10 -10 -10 -10 -10 -10 -11 -11 -11 -11 -11 -11 -11 -11 -11 -11 -11 -11 -10 -9 -9
-21 -19 -17 -17 -16 -16 -16 -15 -15 -15 -14 -14 -14 -14 -14 -12 -12 -12 -12 -12 -12 -11 -10 -10 -10 -10 -10 -10 -10 -11 -11 -11 -11 -11 -11 -11 -12 -12 -11 -11 -11 -10 -10 -9
-19 -16 -17 -16 -16 -16 -15 -14 -15 -15 -14 -14 -14 -14 -13 -12 -12 -12 -12 -12 -12 -11 -10 -10 -10 -10 -10 -10 -11 -11 -11 -11 -12 -12 -12 -12 -12 -12 -11 -11 -11 -10 -10 -9

GFSNGP_850_dewp_093.txt.gz
Dewpoint
1 -0 1 1 1 2 3 1 2 3 3 2 1 -0 -2 -2 -2 -2 -2 -2 -2 -2 -2 -3 -3 -4 -5 -6 -6 -6 -6 -6 -6 -6 -6 -7 -7 -7 -8 -7 -4 -1 0 1
2 -1 -1 -0 -1 1 2 2 1 1 2 -0 -0 -2 -2 -2 -2 -2 -2 -2 -2 -2 -2 -3 -5 -6 -6 -8 -8 -8 -8 -8 -9 -8 -8 -8 -8 -7 -7 -7 -7 -6 -2 1
3 2 0 2 -1 -1 1 1 2 3 1 0 1 0 -2 -2 -2 -1 -1 -2 -2 -2 -4 -5 -6 -7 -9 -11 -12 -13 -13 -14 -14 -14 -13 -11 -9 -8 -6 -6 -6 -5 -4 -2
1 0 2 -1 -3 -2 -1 0 1 1 1 0 0 -2 -2 -2 -2 -2 -2 -2 -2 -4 -5 -7 -9 -10 -11 -13 -15 -16 -16 -17 -17 -19 -19 -18 -16 -13 -11 -7 -5 -5 -4 -2
1 1 -1 -1 -2 -0 0 1 -1 -0 0 -1 -1 -2 -2 -2 -2 -2 -2 -3 -4 -5 -7 -11 -11 -11 -11 -14 -16 -17 -18 -18 -18 -20 -21 -21 -21 -21 -19 -15 -10 -5 -3 -1
1 2 1 -1 -2 -2 -3 1 -2 -1 -0 -1 -1 1 -1 -2 -2 -2 -3 -4 -6 -9 -11 -12 -13 -14 -13 -12 -14 -16 -19 -19 -19 -20 -21 -22 -21 -22 -23 -22 -20 -16 -3 -1
1 1 -0 -2 -2 -2 0 -3 -2 -2 -1 -1 -1 -1 -1 -2 -3 -3 -5 -7 -9 -11 -12 -14 -15 -17 -17 -17 -17 -17 -17 -18 -18 -19 -19 -18 -17 -17 -18 -18 -18 -17 -16 -3
-1 -0 -2 -3 -2 -1 -3 -3 -2 -2 -2 -2 -2 -2 -3 -3 -3 -5 -7 -9 -10 -11 -11 -11 -10 -10 -12 -15 -15 -17 -19 -20 -19 -18 -17 -15 -13 -15 -14 -13 -13 -14 -16 -13
-3 -2 -4 -3 -2 -3 -3 -3 -3 -2 -2 -2 -2 -2 -3 -3 -5 -7 -9 -10 -11 -11 -11 -12 -13 -14 -12 -13 -12 -12 -10 -13 -18 -19 -18 -15 -13 -11 -10 -11 -12 -12 -11 -12
-2 -5 -3 -4 -3 -2 -3 -3 -2 -2 -2 -2 -3 -3 -4 -6 -7 -9 -12 -12 -13 -12 -13 -15 -18 -17 -18 -18 -18 -16 -15 -15 -14 -14 -15 -14 -12 -10 -10 -10 -10 -7 -8 -11
-2 -3 -3 -3 -3 -3 -3 -3 -3 -3 -3 -3 -4 -5 -6 -9 -12 -14 -14 -13 -13 -13 -15 -18 -17 -17 -18 -17 -16 -16 -14 -13 -13 -11 -10 -10 -11 -10 -10 -11 -9 -6 -6 -6
-2 -4 -4 -3 -3 -3 -2 -3 -3 -3 -4 -4 -5 -7 -12 -15 -15 -14 -14 -15 -16 -17 -18 -16 -15 -15 -16 -15 -14 -13 -13 -13 -12 -10 -9 -9 -10 -12 -12 -12 -11 -10 -7 -6
-4 -4 -3 -3 -3 -2 -3 -3 -3 -4 -4 -6 -11 -15 -15 -13 -14 -16 -17 -17 -17 -15 -14 -13 -13 -13 -13 -12 -12 -11 -12 -11 -11 -9 -9 -9 -9 -10 -12 -14 -12 -11 -7 -7
-4 -4 -3 -3 -3 -3 -3 -3 -4 -6 -11 -15 -14 -13 -13 -14 -16 -16 -15 -13 -12 -12 -12 -12 -11 -10 -10 -10 -10 -10 -10 -11 -9 -9 -9 -8 -7 -9 -9 -10 -10 -12 -10 -8
-3 -3 -3 -3 -3 -3 -5 -7 -10 -14 -15 -13 -13 -14 -16 -17 -16 -15 -14 -14 -13 -12 -12 -11 -10 -10 -10 -10 -9 -9 -9 -9 -10 -8 -8 -8 -7 -7 -7 -7 -9 -9 -9 -9
-3 -3 -3 -4 -4 -6 -9 -12 -14 -14 -13 -13 -16 -19 -20 -18 -16 -15 -14 -13 -12 -11 -11 -11 -11 -10 -10 -10 -9 -10 -10 -9 -8 -8 -8 -7 -7 -7 -8 -8 -8 -9 -9 -8
-3 -4 -4 -5 -7 -9 -11 -13 -14 -13 -13 -18 -21 -20 -17 -16 -16 -16 -15 -14 -14 -13 -13 -11 -11 -11 -10 -10 -10 -10 -9 -9 -9 -8 -8 -7 -7 -8 -8 -8 -8 -9 -9 -9
-5 -5 -5 -6 -9 -10 -13 -14 -12 -14 -21 -22 -18 -17 -16 -16 -15 -15 -14 -14 -14 -14 -13 -12 -11 -10 -10 -11 -10 -9 -9 -9 -9 -9 -9 -8 -8 -9 -8 -8 -8 -8 -9 -9
-5 -7 -7 -9 -12 -14 -13 -12 -17 -23 -20 -17 -17 -17 -17 -16 -15 -15 -15 -14 -13 -13 -13 -12 -11 -11 -11 -11 -10 -10 -9 -9 -9 -8 -8 -9 -9 -9 -9 -8 -8 -9 -9 -9
-8 -9 -11 -12 -13 -12 -14 -22 -23 -18 -17 -16 -17 -17 -16 -15 -15 -14 -14 -13 -12 -12 -11 -11 -11 -11 -11 -11 -11 -10 -10 -10 -10 -10 -10 -9 -9 -9 -9 -8 -9 -9 -10 -9
-9 -10 -12 -12 -12 -15 -22 -23 -18 -17 -16 -17 -17 -17 -16 -15 -14 -13 -13 -13 -13 -12 -12 -12 -11 -11 -11 -11 -10 -10 -10 -10 -9 -9 -9 -9 -9 -9 -9 -10 -10 -11 -10 -10
-8 -12 -12 -11 -16 -23 -21 -18 -17 -16 -17 -17 -16 -16 -15 -14 -13 -14 -13 -12 -12 -12 -12 -11 -11 -11 -10 -10 -10 -10 -10 -10 -10 -10 -10 -10 -10 -10 -11 -11 -11 -11 -10 -10
-12 -11 -11 -17 -23 -21 -17 -17 -16 -16 -17 -16 -15 -15 -14 -14 -13 -13 -13 -13 -12 -12 -11 -11 -11 -11 -10 -10 -10 -11 -11 -11 -11 -11 -11 -11 -11 -11 -11 -11 -11 -11 -11 -10
-11 -11 -17 -23 -22 -17 -17 -16 -16 -16 -16 -16 -15 -14 -14 -14 -14 -12 -12 -12 -12 -13 -11 -10 -10 -10 -11 -11 -11 -11 -11 -11 -11 -11 -11 -11 -11 -11 -12 -12 -11 -11 -11 -10
-10 -16 -23 -22 -18 -17 -16 -16 -16 -16 -16 -15 -15 -14 -14 -13 -13 -13 -12 -12 -12 -13 -12 -11 -10 -10 -10 -11 -11 -11 -11 -11 -12 -12 -12 -12 -12 -12 -12 -12 -12 -11 -11 -10
-16 -23 -21 -18 -17 -17 -16 -16 -15 -16 -16 -15 -15 -14 -14 -13 -13 -13 -13 -13 -13 -13 -13 -11 -11 -10 -10 -11 -11 -11 -11 -11 -12 -12 -12 -12 -12 -12 -12 -12 -11 -11 -11 -10
-21 -24 -19 -18 -17 -16 -16 -16 -15 -15 -15 -15 -15 -14 -14 -13 -13 -13 -13 -14 -14 -14 -13 -12 -11 -11 -11 -11 -11 -11 -11 -12 -12 -12 -12 -12 -12 -12 -12 -12 -11 -11 -11 -10

GFSNGP_850_dewp_096.txt.gz
Dewpoint
0 0 0 1 -0 1 2 2 2 3 3 2 1 -0 -1 -2 -2 -2 -2 -2 -2 -2 -2 -3 -5 -5 -6 -7 -8 -8 -8 -8 -9 -9 -8 -8 -7 -7 -7 -7 -7 -7 -7 -4
1 -0 -1 0 -2 -0 2 2 1 2 2 -0 0 -1 -2 -2 -2 -2 -2 -2 -2 -2 -3 -4 -5 -6 -7 -9 -10 -10 -11 -12 -13 -14 -15 -15 -15 -14 -11 -9 -7 -6 -6 -6
0 1 1 1 -1 -1 1 1 2 2 1 0 -1 -2 -2 -2 -2 -2 -1 -2 -2 -2 -4 -5 -7 -8 -9 -10 -12 -14 -14 -15 -16 -16 -17 -19 -20 -20 -20 -19 -19 -15 -7 -5
0 -1 0 -1 -3 -2 -1 1 0 1 1 0 0 -1 -2 -2 -2 -2 -2 -2 -2 -4 -5 -7 -9 -10 -11 -12 -13 -14 -16 -18 -19 -19 -20 -21 -21 -21 -21 -22 -22 -21 -20 -15
0 0 -2 -2 -2 -1 0 1 -1 0 0 -1 -2 -2 -2 -2 -2 -2 -2 -2 -3 -5 -7 -10 -11 -12 -13 -13 -14 -15 -15 -17 -18 -18 -19 -20 -20 -21 -21 -22 -22 -22 -22 -21
1 2 1 -3 -2 -2 -3 -1 -2 -1 -0 -1 -1 1 -0 -2 -2 -2 -2 -4 -6 -8 -10 -11 -12 -13 -14 -15 -15 -15 -15 -15 -16 -16 -17 -18 -19 -20 -21 -21 -21 -20 -19 -18
1 1 0 -3 -2 -3 -1 -8 -1 -1 -1 -1 -1 -1 -1 -2 -2 -3 -3 -5 -6 -8 -9 -12 -14 -15 -16 -17 -17 -16 -16 -16 -17 -16 -13 -15 -15 -15 -14 -15 -16 -18 -18 -18
-1 0 -1 -3 -2 -2 -6 -2 -2 -2 -2 -1 -1 -2 -2 -2 -3 -3 -5 -6 -8 -11 -14 -15 -15 -15 -15 -16 -17 -19 -21 -23 -24 -23 -19 -17 -16 -17 -17 -15 -13 -13 -15 -18
-3 -3 -6 -3 -4 -4 -4 -4 -3 -3 -3 -2 -2 -2 -2 -3 -4 -5 -7 -9 -12 -14 -15 -14 -13 -14 -16 -18 -17 -17 -18 -19 -20 -23 -23 -19 -14 -12 -12 -11 -11 -12 -13 -14
-3 -7 -4 -4 -4 -3 -3 -3 -3 -3 -2 -2 -2 -3 -3 -4 -6 -8 -11 -13 -13 -12 -12 -14 -17 -19 -18 -16 -16 -15 -14 -14 -14 -15 -16 -16 -13 -9 -9 -10 -9 -10 -10 -11
-2 -4 -4 -4 -3 -3 -2 -3 -3 -2 -2 -3 -3 -4 -5 -7 -12 -14 -14 -14 -14 -15 -16 -17 -17 -16 -16 -15 -14 -13 -12 -13 -13 -13 -13 -13 -12 -9 -8 -8 -8 -9 -11 -7
-2 -5 -5 -5 -5 -3 -3 -3 -3 -3 -3 -4 -4 -6 -10 -14 -14 -13 -15 -17 -17 -17 -16 -15 -13 -13 -13 -13 -12 -11 -10 -11 -11 -11 -12 -11 -10 -9 -9 -8 -9 -11 -10 -8
-4 -4 -5 -4 -3 -3 -3 -3 -3 -3 -4 -5 -7 -14 -14 -13 -13 -16 -16 -17 -16 -14 -13 -11 -11 -11 -11 -10 -10 -11 -11 -10 -10 -10 -11 -10 -8 -7 -8 -10 -9 -10 -10 -9
-4 -4 -3 -3 -3 -3 -3 -3 -3 -4 -6 -13 -14 -13 -13 -15 -18 -20 -19 -17 -15 -14 -13 -13 -12 -12 -12 -12 -11 -10 -10 -10 -10 -9 -9 -9 -9 -7 -8 -8 -8 -10 -10 -9
-3 -3 -4 -4 -3 -3 -3 -3 -5 -9 -14 -14 -13 -13 -17 -21 -21 -17 -15 -15 -16 -16 -15 -15 -14 -13 -12 -11 -10 -10 -11 -11 -10 -9 -9 -9 -8 -8 -7 -8 -8 -8 -9 -9
-3 -3 -3 -3 -3 -3 -4 -6 -11 -14 -14 -12 -14 -20 -22 -18 -16 -16 -16 -16 -16 -16 -15 -14 -13 -12 -12 -11 -11 -11 -11 -11 -9 -9 -9 -9 -8 -8 -7 -7 -8 -9 -9 -9
-3 -3 -3 -3 -3 -5 -8 -11 -13 -13 -12 -15 -22 -21 -17 -17 -17 -17 -16 -16 -15 -15 -14 -13 -13 -13 -12 -11 -11 -11 -11 -10 -9 -9 -9 -8 -8 -8 -8 -8 -9 -9 -9 -10
-4 -4 -4 -4 -5 -8 -10 -12 -13 -13 -17 -23 -19 -17 -17 -18 -17 -17 -17 -16 -15 -14 -13 -13 -12 -11 -12 -12 -11 -11 -10 -10 -11 -11 -11 -10 -9 -9 -9 -9 -9 -8 -9 -9
-4 -6 -6 -6 -8 -10 -12 -13 -12 -20 -25 -18 -17 -17 -18 -17 -16 -16 -15 -15 -14 -14 -14 -13 -14 -13 -12 -11 -11 -11 -10 -10 -10 -10 -10 -10 -10 -10 -9 -9 -9 -9 -9 -9
-6 -7 -8 -9 -12 -13 -12 -15 -24 -24 -18 -17 -17 -18 -17 -17 -16 -15 -15 -15 -14 -13 -13 -13 -12 -12 -11 -11 -11 -9 -10 -10 -10 -10 -10 -10 -10 -9 -9 -9 -9 -9 -10 -11
-8 -10 -11 -12 -12 -12 -16 -24 -22 -18 -17 -17 -18 -18 -17 -16 -15 -15 -16 -15 -14 -13 -13 -12 -11 -11 -10 -10 -9 -11 -11 -11 -11 -10 -10 -10 -10 -10 -10 -10 -11 -11 -11 -11
-8 -9 -11 -12 -11 -16 -24 -21 -18 -17 -17 -17 -18 -17 -16 -15 -15 -16 -15 -14 -14 -13 -13 -12 -11 -10 -10 -10 -10 -11 -11 -11 -11 -11 -11 -11 -11 -11 -11 -11 -11 -11 -11 -11
-8 -9 -12 -11 -13 -23 -23 -18 -17 -16 -17 -17 -17 -16 -15 -15 -16 -16 -15 -14 -13 -13 -12 -12 -12 -11 -11 -10 -11 -11 -11 -11 -11 -11 -12 -12 -12 -12 -12 -12 -12 -12 -12 -11
-7 -11 -11 -12 -20 -23 -19 -17 -16 -16 -16 -17 -16 -16 -15 -15 -15 -14 -14 -14 -13 -14 -13 -13 -12 -11 -10 -10 -11 -11 -11 -11 -11 -12 -12 -12 -12 -12 -12 -12 -12 -12 -12 -11
-10 -11 -11 -15 -23 -21 -18 -16 -17 -16 -16 -16 -15 -15 -14 -15 -15 -15 -15 -14 -14 -14 -14 -14 -13 -11 -11 -11 -11 -11 -11 -11 -12 -12 -12 -12 -12 -12 -12 -12 -12 -12 -12 -11
-10 -10 -11 -21 -22 -18 -17 -16 -17 -16 -16 -16 -15 -14 -14 -14 -14 -15 -14 -14 -14 -15 -14 -14 -14 -13 -11 -11 -11 -11 -11 -11 -12 -12 -12 -12 -12 -12 -12 -12 -12 -12 -11 -11
-10 -10 -16 -22 -23 -18 -17 -16 -17 -16 -15 -15 -15 -14 -14 -14 -14 -15 -14 -14 -14 -15 -14 -14 -14 -14 -13 -12 -11 -11 -11 -11 -11 -12 -12 -12 -12 -12 -12 -12 -12 -11 -11 -11

GFSNGP_850_dewp_099.txt.gz
Dewpoint
0 -0 0 1 1 -1 2 2 1 2 3 1 1 0 0 -1 -2 -2 -2 -2 -2 -2 -3 -4 -5 -6 -7 -9 -10 -10 -11 -11 -12 -14 -15 -15 -16 -16 -16 -16 -14 -11 -8 -7
0 1 0 1 -0 -1 1 2 1 2 2 -0 0 -1 -2 -2 -2 -2 -2 -2 -2 -2 -4 -5 -6 -8 -8 -9 -10 -12 -14 -15 -15 -15 -16 -18 -19 -19 -19 -19 -20 -20 -20 -19
0 -1 0 1 -0 -1 1 1 1 3 0 -0 -0 -1 -2 -2 -2 -2 -1 -2 -2 -3 -4 -5 -8 -9 -10 -10 -12 -13 -14 -15 -17 -17 -18 -19 -19 -20 -20 -20 -20 -20 -21 -21
1 -2 -3 -3 -4 -2 -1 -0 0 1 1 0 -1 -1 -2 -2 -2 -2 -1 -2 -2 -3 -5 -7 -9 -10 -11 -12 -13 -14 -15 -16 -17 -17 -18 -18 -18 -19 -19 -20 -20 -20 -20 -19
0 -0 -3 -2 -2 -1 0 -1 -1 0 0 -1 -1 -2 -2 -2 -2 -2 -2 -2 -3 -5 -7 -9 -10 -12 -13 -13 -14 -14 -15 -15 -16 -16 -17 -17 -17 -17 -18 -19 -20 -20 -20 -20
1 2 -0 -5 -2 -2 -4 -2 -2 -1 0 -1 -1 1 -0 -1 -2 -2 -2 -3 -5 -7 -9 -10 -12 -13 -14 -14 -15 -15 -16 -16 -18 -20 -21 -21 -20 -20 -19 -17 -17 -19 -20 -18
1 1 0 -4 -2 -3 -3 -8 -2 -1 -1 -1 -1 -1 -1 -2 -2 -2 -3 -5 -7 -8 -11 -12 -13 -14 -15 -15 -15 -17 -20 -23 -24 -25 -24 -23 -22 -21 -20 -18 -17 -15 -13 -14
-1 0 -0 -3 -2 -3 -5 -3 -2 -2 -1 -1 -1 -1 -2 -2 -3 -3 -4 -5 -6 -9 -13 -15 -15 -14 -15 -18 -19 -19 -19 -20 -21 -21 -21 -20 -20 -18 -17 -14 -12 -12 -13 -14
-2 -2 -6 -4 -4 -4 -4 -4 -3 -3 -3 -2 -2 -2 -2 -3 -3 -4 -5 -7 -12 -15 -15 -14 -15 -17 -20 -22 -20 -19 -18 -17 -15 -15 -15 -15 -16 -16 -16 -15 -11 -9 -9 -10
-3 -5 -5 -5 -4 -4 -4 -4 -4 -4 -3 -3 -3 -3 -3 -3 -4 -5 -9 -14 -15 -14 -15 -20 -21 -20 -18 -15 -14 -14 -13 -13 -13 -12 -13 -13 -14 -14 -13 -12 -9 -9 -9 -8
-3 -4 -5 -5 -5 -5 -4 -3 -3 -3 -3 -2 -2 -3 -3 -4 -6 -12 -15 -14 -14 -18 -20 -19 -17 -16 -15 -14 -13 -13 -13 -13 -13 -13 -12 -11 -12 -12 -11 -10 -8 -8 -9 -8
-2 -5 -5 -6 -6 -5 -4 -3 -3 -3 -3 -3 -3 -4 -5 -9 -14 -14 -13 -16 -19 -19 -18 -17 -15 -14 -13 -13 -13 -13 -14 -13 -12 -12 -11 -10 -10 -11 -12 -8 -7 -8 -9 -8
-3 -4 -4 -5 -4 -4 -4 -3 -3 -3 -3 -4 -4 -6 -12 -14 -13 -13 -18 -21 -21 -19 -17 -16 -16 -16 -16 -15 -15 -13 -13 -13 -13 -12 -12 -12 -11 -10 -9 -10 -9 -9 -10 -9
-3 -3 -3 -4 -4 -3 -3 -2 -3 -3 -4 -4 -8 -14 -14 -13 -15 -21 -23 -19 -17 -18 -18 -17 -17 -16 -15 -14 -14 -14 -13 -13 -12 -12 -11 -10 -9 -9 -9 -8 -9 -9 -8 -8
-3 -3 -3 -3 -4 -3 -2 -3 -3 -4 -5 -10 -14 -13 -13 -18 -24 -21 -18 -19 -19 -18 -17 -17 -16 -16 -15 -14 -13 -13 -13 -12 -11 -10 -9 -9 -9 -9 -9 -9 -9 -8 -8 -8
-4 -3 -3 -3 -3 -3 -3 -3 -3 -5 -11 -14 -13 -13 -20 -24 -18 -18 -20 -19 -18 -17 -17 -16 -15 -15 -14 -13 -12 -12 -12 -12 -10 -10 -10 -11 -11 -11 -9 -8 -8 -8 -9 -10
-4 -3 -3 -3 -3 -3 -3 -4 -6 -11 -13 -13 -13 -21 -23 -18 -19 -20 -18 -17 -17 -16 -15 -15 -15 -14 -14 -13 -12 -12 -11 -10 -10 -10 -10 -10 -10 -10 -10 -9 -9 -9 -9 -10
-4 -4 -3 -3 -3 -3 -4 -8 -11 -13 -13 -14 -22 -22 -18 -19 -19 -18 -17 -16 -15 -15 -15 -15 -14 -14 -13 -12 -11 -11 -10 -10 -11 -10 -10 -10 -10 -10 -9 -9 -9 -9 -10 -10
-3 -4 -5 -4 -4 -4 -8 -10 -12 -13 -14 -23 -20 -17 -18 -19 -18 -17 -16 -16 -16 -16 -15 -15 -15 -14 -12 -11 -11 -10 -10 -10 -11 -10 -10 -10 -11 -10 -10 -10 -9 -9 -9 -9
-4 -6 -6 -6 -6 -8 -10 -13 -13 -17 -24 -20 -17 -18 -18 -18 -17 -16 -16 -16 -16 -16 -16 -16 -16 -13 -12 -11 -10 -9 -10 -11 -11 -11 -11 -11 -11 -11 -11 -11 -11 -10 -11 -11
-6 -7 -8 -9 -10 -12 -12 -13 -21 -25 -19 -17 -17 -18 -18 -17 -16 -16 -16 -16 -15 -15 -15 -15 -14 -13 -12 -10 -10 -10 -10 -11 -11 -11 -11 -11 -11 -11 -11 -11 -11 -11 -11 -11
-8 -10 -10 -11 -12 -12 -13 -22 -24 -20 -18 -17 -17 -18 -17 -16 -15 -15 -16 -15 -15 -15 -15 -15 -14 -14 -11 -10 -10 -10 -11 -11 -11 -11 -11 -12 -12 -12 -12 -12 -12 -12 -12 -12
-7 -9 -10 -11 -12 -11 -17 -24 -21 -18 -17 -17 -18 -17 -17 -16 -15 -16 -17 -15 -15 -15 -15 -15 -15 -15 -13 -11 -10 -10 -11 -11 -11 -11 -12 -12 -12 -12 -12 -12 -12 -12 -12 -12
-7 -8 -8 -11 -12 -11 -18 -24 -19 -17 -17 -16 -17 -18 -17 -15 -15 -15 -15 -15 -15 -15 -15 -15 -15 -15 -14 -11 -11 -11 -11 -11 -11 -11 -12 -12 -12 -12 -12 -13 -12 -12 -12 -12
-7 -7 -8 -11 -11 -12 -21 -23 -18 -17 -16 -16 -16 -17 -17 -16 -15 -15 -15 -15 -15 -15 -15 -15 -15 -15 -14 -13 -11 -11 -11 -11 -11 -11 -12 -12 -12 -12 -12 -12 -12 -12 -12 -12
-7 -7 -8 -11 -11 -14 -22 -21 -18 -17 -16 -16 -16 -16 -16 -15 -15 -15 -14 -15 -15 -15 -15 -15 -15 -15 -14 -13 -12 -12 -11 -11 -11 -11 -12 -12 -12 -12 -12 -12 -12 -12 -11 -11
-8 -7 -8 -10 -10 -14 -22 -22 -18 -17 -17 -16 -15 -15 -16 -15 -15 -14 -14 -14 -15 -15 -15 -15 -15 -14 -14 -13 -13 -12 -11 -11 -11 -11 -12 -12 -12 -12 -12 -12 -11 -11 -11 -11

GFSNGP_850_dewp_102.txt.gz
Dewpoint
0 0 -0 1 1 0 1 0 1 -0 2 0 1 1 1 2 -1 -2 -2 -2 -2 -2 -3 -5 -5 -6 -8 -9 -11 -12 -13 -14 -14 -15 -16 -17 -17 -17 -19 -19 -19 -19 -18 -19
0 0 1 1 0 -0 -1 1 1 1 2 -1 -0 -1 -1 -1 -2 -2 -2 -2 -2 -3 -4 -5 -7 -8 -9 -10 -10 -11 -12 -13 -14 -15 -16 -17 -17 -17 -18 -18 -18 -19 -19 -19
1 -1 -1 1 -1 -0 -0 0 0 2 0 -0 -0 -1 -2 -2 -2 -2 -2 -1 -2 -2 -4 -6 -9 -9 -10 -11 -12 -13 -14 -15 -16 -16 -17 -17 -17 -17 -17 -17 -18 -18 -18 -18
1 -1 -3 -5 -4 -3 -1 -1 -0 0 0 -0 -0 -1 -2 -2 -2 -2 -1 -2 -2 -3 -5 -8 -9 -9 -11 -12 -14 -15 -16 -16 -16 -16 -17 -19 -21 -23 -24 -24 -23 -23 -22 -21
0 -0 -2 -5 -3 -2 -1 -2 -2 0 -0 -0 -1 -1 -1 -1 -2 -2 -2 -2 -2 -4 -6 -8 -8 -10 -13 -14 -15 -15 -15 -17 -20 -22 -23 -23 -23 -22 -21 -21 -22 -22 -22 -21
0 1 -3 -10 -3 -2 -4 -3 -5 -1 -0 -1 -1 1 -1 -1 -2 -2 -2 -2 -3 -5 -7 -8 -11 -13 -13 -13 -15 -17 -19 -20 -20 -20 -20 -21 -20 -21 -20 -20 -19 -19 -20 -18
1 1 0 -4 -3 -3 -2 -10 -3 -1 -1 -1 -1 -1 -1 -2 -1 -2 -2 -3 -5 -7 -9 -12 -13 -13 -13 -16 -19 -19 -19 -20 -20 -20 -20 -19 -19 -19 -18 -18 -18 -18 -17 -17
-1 1 0 -3 -2 -3 -6 -4 -3 -2 -1 -1 -1 -1 -1 -2 -2 -2 -3 -5 -7 -9 -12 -13 -13 -14 -18 -21 -20 -19 -19 -20 -20 -19 -18 -17 -15 -15 -15 -15 -15 -14 -13 -12
-3 -3 -6 -4 -3 -5 -4 -4 -4 -4 -3 -2 -1 -1 -2 -2 -3 -3 -5 -6 -9 -13 -14 -14 -17 -21 -21 -21 -20 -19 -17 -16 -16 -16 -16 -17 -16 -16 -14 -14 -13 -12 -11 -8
-3 -5 -5 -6 -6 -5 -4 -4 -4 -4 -4 -3 -3 -3 -3 -3 -3 -4 -6 -9 -14 -14 -15 -21 -23 -21 -20 -18 -16 -16 -16 -17 -17 -16 -16 -14 -14 -13 -11 -11 -12 -9 -8 -7
-3 -4 -5 -6 -6 -6 -5 -5 -4 -3 -3 -3 -3 -3 -3 -3 -4 -5 -9 -14 -14 -15 -23 -25 -22 -19 -18 -18 -18 -18 -17 -16 -15 -15 -14 -14 -13 -12 -12 -12 -10 -8 -7 -7
-2 -5 -5 -5 -5 -5 -5 -5 -4 -3 -3 -3 -3 -3 -3 -4 -5 -10 -14 -13 -17 -24 -23 -19 -20 -20 -19 -18 -17 -16 -15 -15 -15 -14 -13 -13 -12 -12 -13 -12 -11 -10 -10 -8
-3 -4 -3 -3 -3 -4 -4 -4 -4 -3 -3 -3 -3 -3 -4 -6 -12 -14 -13 -19 -25 -20 -19 -21 -20 -18 -17 -17 -16 -15 -14 -14 -14 -13 -13 -12 -12 -10 -9 -12 -11 -12 -11 -8
-3 -3 -3 -3 -3 -3 -4 -4 -3 -3 -3 -3 -4 -5 -8 -13 -13 -14 -20 -24 -18 -20 -21 -19 -18 -17 -17 -16 -15 -15 -14 -14 -13 -13 -12 -11 -10 -9 -10 -11 -9 -9 -10 -9
-3 -4 -4 -4 -3 -3 -3 -3 -3 -3 -3 -4 -4 -8 -13 -13 -14 -22 -22 -18 -20 -20 -19 -18 -17 -16 -16 -15 -15 -15 -14 -13 -13 -12 -11 -10 -10 -11 -10 -10 -9 -9 -9 -10
-4 -6 -6 -4 -3 -3 -3 -3 -3 -3 -4 -4 -9 -13 -13 -14 -23 -21 -18 -20 -20 -19 -18 -17 -16 -16 -16 -15 -15 -14 -13 -12 -11 -11 -11 -11 -10 -10 -10 -10 -10 -10 -10 -10
-5 -5 -4 -3 -3 -3 -3 -3 -3 -3 -4 -8 -13 -13 -14 -24 -21 -18 -20 -19 -18 -18 -18 -16 -16 -16 -15 -15 -14 -13 -12 -12 -11 -11 -11 -11 -11 -11 -11 -11 -10 -10 -10 -10
-4 -4 -4 -4 -3 -3 -3 -3 -3 -5 -9 -12 -13 -14 -24 -22 -18 -20 -19 -18 -18 -17 -16 -16 -16 -15 -15 -14 -12 -12 -11 -11 -11 -11 -11 -11 -11 -11 -11 -11 -11 -11 -10 -10
-4 -4 -4 -4 -4 -3 -3 -4 -5 -10 -12 -13 -14 -24 -22 -18 -19 -20 -19 -18 -18 -17 -16 -16 -16 -16 -15 -14 -11 -11 -10 -10 -10 -11 -11 -11 -11 -11 -12 -12 -12 -12 -11 -11
-4 -4 -5 -5 -5 -4 -4 -6 -10 -11 -13 -14 -25 -22 -18 -18 -19 -18 -18 -17 -17 -16 -15 -15 -15 -15 -15 -14 -12 -11 -10 -10 -11 -11 -11 -12 -12 -12 -12 -12 -12 -12 -12 -12
-5 -5 -6 -7 -6 -6 -8 -10 -12 -13 -19 -26 -21 -18 -18 -19 -19 -18 -17 -17 -16 -15 -15 -15 -15 -16 -16 -16 -13 -11 -11 -11 -11 -11 -11 -12 -12 -12 -13 -13 -13 -13 -12 -12
-6 -6 -8 -9 -9 -9 -11 -12 -13 -21 -27 -23 -19 -17 -17 -19 -18 -17 -16 -17 -17 -15 -15 -16 -16 -16 -16 -12 -15 -13 -11 -11 -11 -11 -11 -12 -12 -13 -13 -13 -13 -13 -13 -12
-6 -6 -8 -10 -10 -11 -12 -12 -17 -26 -25 -19 -18 -17 -18 -18 -17 -17 -16 -16 -16 -15 -15 -15 -16 -16 -15 -16 -15 -14 -12 -11 -11 -11 -11 -12 -12 -13 -13 -12 -12 -12 -12 -12
-9 -8 -7 -8 -10 -11 -12 -11 -14 -25 -23 -18 -17 -17 -17 -18 -17 -16 -16 -16 -16 -16 -15 -15 -15 -15 -15 -15 -15 -14 -13 -12 -11 -11 -11 -12 -12 -12 -12 -12 -12 -12 -12 -12
-9 -8 -7 -8 -8 -8 -10 -11 -14 -23 -22 -18 -17 -17 -17 -17 -16 -16 -15 -15 -15 -15 -15 -15 -15 -15 -14 -14 -14 -14 -13 -12 -11 -11 -11 -12 -12 -12 -12 -12 -12 -12 -11 -11
-9 -9 -8 -8 -8 -7 -9 -11 -12 -21 -20 -18 -17 -17 -17 -17 -16 -15 -15 -15 -15 -15 -15 -15 -15 -15 -14 -14 -14 -13 -13 -12 -11 -11 -11 -12 -12 -12 -12 -11 -11 -11 -11 -11
-8 -8 -8 -8 -7 -7 -10 -11 -12 -20 -22 -18 -17 -16 -16 -16 -16 -15 -15 -15 -15 -15 -14 -14 -14 -14 -14 -13 -13 -13 -12 -11 -11 -11 -11 -11 -11 -11 -11 -11 -11 -11 -10 -10

GFSNGP_850_dewp_108.txt.gz
Dewpoint
2 1 1 1 1 0 2 1 1 -2 -1 -3 -2 1 1 1 1 1 1 -1 -2 -2 -3 -5 -6 -7 -9 -9 -10 -11 -12 -13 -15 -15 -16 -16 -17 -19 -23 -27 -28 -29 -30 -31
3 -1 -0 1 -0 -0 0 -0 -0 -1 -1 -4 -3 -2 0 1 1 1 -1 -2 -2 -2 -3 -4 -6 -8 -8 -9 -10 -12 -14 -15 -15 -16 -18 -23 -26 -27 -27 -27 -26 -25 -25 -25
2 -1 -1 -1 -3 -2 -1 -1 -1 0 -2 -4 -0 -0 -0 1 1 0 -2 -2 -2 -2 -2 -3 -6 -8 -9 -10 -11 -13 -14 -15 -16 -21 -24 -25 -24 -23 -22 -22 -21 -21 -21 -21
4 1 -2 -7 -5 -4 -2 -3 -2 -2 -2 -1 -1 -0 -0 -1 -1 -1 -2 -2 -2 -1 -2 -3 -5 -8 -8 -10 -13 -14 -14 -17 -22 -25 -24 -23 -21 -20 -20 -20 -20 -20 -19 -19
4 1 -4 -7 -3 -2 -2 -4 -4 -3 -3 -2 -1 -1 -0 -1 -1 -1 -2 -2 -2 -2 -2 -3 -7 -8 -9 -11 -14 -14 -17 -24 -24 -22 -20 -19 -18 -18 -19 -19 -19 -19 -19 -18
1 2 -3 -10 -5 -3 -3 -4 -7 -5 -3 -2 -1 1 -3 -1 -1 -1 -2 -2 -2 -2 -2 -5 -7 -8 -11 -13 -14 -18 -23 -22 -19 -18 -18 -19 -19 -19 -19 -18 -19 -19 -19 -18
2 2 0 -4 -4 -3 -3 -8 -6 -2 -2 -1 -0 -2 -1 -2 -2 -1 -1 -2 -2 -2 -4 -6 -7 -9 -12 -14 -18 -25 -21 -19 -19 -19 -19 -19 -18 -18 -17 -17 -17 -17 -18 -17
1 3 3 -4 -2 -4 -6 -7 -6 -4 -4 -1 -1 -1 -1 -1 -2 -2 -2 -2 -2 -4 -5 -6 -7 -12 -14 -20 -23 -19 -18 -19 -19 -18 -18 -18 -18 -18 -17 -16 -17 -16 -16 -16
-3 -3 -5 -4 -4 -5 -5 -4 -4 -4 -4 -4 -3 -3 -2 -1 -1 -2 -2 -2 -3 -5 -6 -8 -12 -14 -20 -23 -19 -19 -19 -19 -18 -18 -17 -17 -17 -17 -16 -15 -13 -11 -9 -8
-4 -7 -6 -7 -6 -6 -6 -5 -5 -5 -5 -4 -4 -3 -3 -1 -1 -2 -2 -3 -4 -6 -8 -13 -14 -21 -22 -19 -20 -19 -18 -18 -18 -17 -17 -17 -16 -16 -15 -11 -9 -8 -8 -8
-4 -5 -5 -5 -5 -5 -4 -4 -3 -3 -3 -4 -4 -4 -3 -2 -2 -2 -2 -4 -5 -7 -12 -14 -21 -20 -20 -20 -19 -18 -17 -17 -17 -18 -17 -16 -15 -14 -13 -12 -9 -8 -8 -9
-3 -5 -5 -6 -6 -5 -3 -3 -4 -3 -3 -3 -3 -3 -3 -3 -3 -3 -3 -4 -7 -12 -14 -22 -20 -21 -20 -18 -17 -17 -17 -16 -17 -17 -15 -14 -13 -13 -11 -11 -12 -12 -10 -9
-5 -5 -5 -5 -4 -3 -3 -4 -5 -4 -3 -3 -3 -3 -3 -3 -3 -3 -4 -6 -12 -13 -22 -20 -20 -19 -18 -18 -17 -17 -17 -17 -17 -16 -14 -12 -10 -9 -10 -14 -13 -12 -10 -10
-4 -4 -3 -3 -3 -3 -3 -5 -6 -8 -3 -3 -3 -3 -3 -3 -3 -4 -7 -12 -13 -22 -20 -20 -20 -19 -18 -17 -17 -17 -17 -17 -16 -15 -13 -10 -10 -9 -10 -10 -10 -11 -12 -10
-4 -4 -4 -3 -3 -3 -4 -8 -8 -5 -3 -3 -3 -3 -3 -4 -5 -8 -12 -13 -21 -20 -20 -21 -19 -18 -17 -17 -17 -17 -17 -16 -15 -13 -10 -10 -10 -10 -10 -10 -10 -10 -10 -10
-4 -4 -3 -3 -4 -7 -6 -6 -4 -3 -3 -3 -3 -3 -4 -5 -9 -12 -13 -21 -21 -19 -20 -19 -18 -17 -17 -17 -17 -17 -17 -16 -14 -12 -10 -10 -10 -10 -10 -10 -10 -10 -11 -11
-3 -4 -6 -8 -5 -5 -4 -4 -3 -3 -3 -3 -3 -4 -5 -8 -12 -13 -20 -22 -19 -20 -20 -19 -18 -17 -17 -17 -17 -17 -17 -17 -14 -11 -11 -10 -11 -11 -11 -11 -11 -11 -11 -11
-5 -6 -9 -6 -6 -4 -4 -4 -3 -3 -3 -3 -4 -5 -7 -11 -13 -17 -24 -19 -20 -20 -19 -18 -18 -17 -17 -17 -17 -17 -17 -15 -13 -12 -11 -11 -11 -11 -11 -11 -11 -11 -12 -12
-11 -11 -6 -6 -5 -4 -4 -4 -3 -3 -3 -3 -4 -6 -11 -12 -14 -23 -19 -19 -20 -19 -18 -18 -18 -17 -16 -16 -17 -17 -15 -14 -13 -12 -12 -11 -11 -11 -12 -12 -12 -12 -12 -12
-12 -10 -6 -5 -5 -6 -6 -5 -4 -3 -4 -4 -6 -11 -12 -13 -21 -21 -18 -19 -19 -18 -18 -18 -17 -16 -16 -16 -16 -16 -15 -14 -15 -14 -13 -11 -11 -11 -12 -12 -12 -12 -12 -12
-12 -11 -8 -6 -5 -5 -6 -6 -4 -4 -4 -7 -10 -12 -13 -22 -22 -18 -18 -19 -19 -19 -17 -17 -17 -17 -16 -16 -16 -15 -15 -15 -15 -15 -13 -12 -11 -12 -12 -13 -12 -12 -12 -12
-13 -12 -11 -8 -6 -6 -6 -6 -5 -5 -8 -10 -12 -13 -23 -25 -20 -18 -18 -19 -19 -18 -17 -17 -17 -17 -16 -16 -16 -15 -16 -15 -15 -14 -13 -12 -11 -12 -12 -12 -12 -12 -12 -11
-12 -12 -11 -11 -9 -7 -7 -8 -8 -9 -9 -12 -13 -20 -27 -22 -18 -18 -18 -18 -18 -18 -17 -17 -17 -16 -16 -16 -16 -16 -16 -15 -14 -13 -12 -11 -11 -12 -12 -12 -12 -11 -11 -11
-11 -11 -12 -10 -9 -9 -9 -9 -9 -9 -11 -12 -13 -19 -25 -23 -19 -18 -17 -18 -18 -18 -17 -17 -17 -16 -16 -16 -16 -16 -15 -14 -14 -13 -11 -11 -11 -12 -12 -12 -11 -11 -11 -11
-11 -11 -10 -10 -10 -10 -9 -9 -9 -9 -10 -11 -11 -12 -18 -23 -20 -17 -17 -17 -17 -17 -17 -17 -17 -16 -16 -16 -16 -15 -15 -14 -13 -12 -11 -11 -11 -12 -12 -12 -11 -11 -10 -10
-12 -12 -10 -10 -8 -8 -8 -9 -9 -9 -9 -9 -10 -11 -12 -20 -20 -17 -17 -17 -17 -17 -16 -17 -17 -16 -15 -15 -16 -15 -14 -13 -13 -12 -11 -11 -11 -11 -12 -11 -11 -11 -10 -10
-12 -9 -7 -9 -8 -8 -6 -8 -8 -8 -8 -8 -8 -9 -11 -17 -20 -18 -17 -17 -17 -16 -16 -16 -16 -15 -15 -16 -15 -15 -14 -13 -13 -12 -11 -11 -11 -11 -12 -11 -11 -10 -10 -10

GFSNGP_850_dewp_111.txt.gz
Dewpoint
1 -0 -1 -1 -1 -1 -0 0 2 -1 -4 -6 -7 -5 -2 0 1 1 1 0 0 -1 -2 -3 -4 -5 -7 -8 -9 -10 -12 -13 -15 -15 -16 -19 -25 -29 -29 -29 -27 -26 -25 -25
3 -1 -2 -1 -2 -2 -2 -1 -1 -1 -1 -5 -6 -6 -4 -3 0 0 0 0 -1 -1 -1 -2 -3 -5 -7 -8 -9 -10 -12 -14 -15 -16 -22 -26 -26 -24 -23 -22 -22 -22 -23 -22
2 -2 -1 -0 -3 -3 -3 -3 -3 -1 -4 -6 -4 -3 -2 -2 -0 -0 0 0 -2 -1 -1 -2 -3 -5 -7 -7 -8 -10 -13 -14 -15 -21 -24 -22 -20 -18 -17 -18 -20 -21 -21 -21
3 1 2 -5 -6 -6 -5 -5 -5 -4 -4 -4 -4 -2 -1 -1 -1 -0 0 -0 -1 -1 -1 -2 -3 -4 -7 -8 -9 -12 -13 -13 -17 -20 -20 -19 -19 -20 -21 -21 -21 -19 -19 -19
3 1 -2 -5 -4 -3 -3 -5 -6 -5 -6 -6 -5 -2 -1 -2 -1 -1 -1 -1 -1 -1 -1 -2 -3 -5 -7 -8 -10 -13 -13 -17 -22 -22 -20 -22 -22 -21 -19 -18 -18 -17 -15 -14
0 2 -1 -8 -4 -4 -3 -2 -6 -6 -6 -4 -2 -2 -4 -1 -1 -1 -1 -1 -1 -1 -2 -3 -4 -5 -7 -9 -12 -13 -15 -22 -20 -19 -20 -20 -18 -17 -17 -16 -15 -15 -15 -12
3 2 -1 -5 -4 -3 -3 -6 -6 -5 -4 -4 -2 -4 -2 -3 -2 -2 -1 -1 -1 -2 -2 -3 -4 -6 -8 -10 -13 -15 -23 -20 -21 -22 -20 -19 -19 -17 -16 -15 -14 -13 -12 -11
1 1 2 -5 -3 -4 -7 -6 -6 -4 -4 -5 -4 -4 -2 -1 -1 -2 -2 -2 -2 -2 -3 -3 -5 -6 -9 -13 -15 -23 -21 -23 -22 -20 -20 -19 -16 -15 -14 -13 -13 -12 -11 -12
-3 -1 -5 -4 -7 -5 -4 -4 -5 -5 -5 -4 -4 -3 -3 -1 -1 -1 -2 -2 -2 -3 -3 -4 -5 -7 -12 -15 -24 -21 -23 -22 -20 -19 -19 -18 -16 -16 -14 -13 -11 -10 -10 -9
-6 -7 -7 -7 -6 -6 -6 -6 -5 -4 -4 -4 -3 -3 -3 -3 -1 -1 -2 -3 -3 -3 -4 -5 -7 -11 -14 -23 -20 -23 -21 -20 -19 -19 -19 -17 -16 -15 -13 -13 -11 -10 -9 -9
-4 -6 -6 -6 -6 -6 -6 -5 -4 -4 -3 -3 -3 -3 -3 -2 -1 -1 -2 -3 -3 -4 -5 -7 -10 -14 -23 -21 -23 -21 -20 -19 -18 -17 -17 -15 -15 -13 -12 -11 -10 -9 -9 -9
-3 -6 -6 -6 -6 -6 -4 -4 -3 -3 -4 -5 -3 -2 -2 -2 -1 -2 -3 -3 -3 -4 -6 -10 -13 -22 -21 -22 -21 -19 -18 -18 -17 -17 -16 -14 -12 -12 -11 -10 -10 -10 -9 -9
-5 -5 -5 -5 -4 -4 -4 -3 -3 -4 -6 -6 -4 -2 -2 -2 -3 -3 -3 -3 -4 -6 -10 -13 -22 -20 -22 -21 -19 -18 -17 -17 -16 -16 -14 -13 -11 -9 -11 -11 -11 -11 -9 -9
-4 -4 -4 -4 -3 -3 -3 -3 -3 -3 -5 -8 -4 -3 -3 -3 -3 -3 -3 -4 -6 -11 -13 -22 -21 -21 -21 -19 -18 -17 -17 -17 -17 -17 -15 -12 -10 -9 -9 -10 -10 -10 -10 -10
-4 -3 -4 -4 -4 -3 -3 -3 -4 -7 -7 -6 -3 -3 -3 -3 -3 -4 -4 -6 -11 -13 -22 -21 -21 -20 -19 -18 -17 -17 -17 -17 -17 -16 -14 -10 -9 -9 -10 -10 -10 -10 -11 -11
-4 -4 -4 -4 -3 -3 -5 -6 -6 -6 -4 -3 -3 -3 -3 -4 -4 -5 -7 -12 -13 -22 -21 -21 -21 -20 -19 -18 -17 -17 -17 -17 -18 -16 -12 -10 -10 -10 -10 -10 -10 -10 -11 -11
-4 -4 -4 -5 -7 -8 -6 -5 -4 -4 -3 -3 -3 -3 -4 -4 -5 -7 -12 -13 -21 -23 -20 -21 -20 -19 -18 -17 -17 -17 -17 -17 -16 -12 -12 -11 -10 -10 -10 -10 -10 -11 -11 -11
-5 -5 -5 -6 -9 -7 -6 -4 -4 -3 -3 -3 -3 -3 -4 -5 -6 -11 -12 -17 -24 -20 -20 -21 -19 -19 -18 -17 -17 -17 -17 -17 -15 -14 -13 -12 -11 -10 -10 -11 -11 -11 -11 -12
-5 -5 -6 -10 -7 -6 -6 -4 -5 -4 -3 -3 -3 -3 -4 -6 -10 -12 -13 -23 -22 -19 -21 -20 -19 -19 -18 -17 -17 -17 -17 -16 -15 -14 -14 -13 -11 -11 -11 -11 -11 -12 -12 -12
-8 -10 -12 -10 -6 -5 -5 -6 -6 -4 -3 -3 -3 -4 -5 -8 -11 -12 -17 -23 -19 -19 -21 -20 -19 -18 -18 -17 -17 -17 -17 -16 -16 -16 -15 -14 -11 -11 -12 -12 -12 -12 -12 -12
-13 -12 -12 -10 -8 -6 -5 -5 -6 -5 -4 -4 -4 -4 -6 -11 -12 -16 -24 -21 -19 -19 -20 -19 -18 -18 -18 -17 -17 -17 -16 -16 -16 -16 -15 -14 -12 -11 -12 -12 -12 -12 -12 -11
-13 -13 -13 -11 -10 -8 -7 -6 -6 -6 -5 -4 -5 -7 -10 -12 -14 -24 -23 -19 -18 -19 -19 -19 -18 -18 -17 -17 -16 -16 -16 -16 -16 -15 -15 -13 -12 -11 -11 -12 -12 -12 -11 -11
-14 -13 -12 -11 -12 -11 -9 -8 -8 -7 -6 -6 -7 -9 -11 -13 -21 -25 -22 -19 -18 -19 -19 -19 -18 -17 -17 -16 -16 -16 -16 -16 -16 -15 -14 -13 -11 -11 -12 -12 -12 -11 -11 -10
-14 -13 -12 -11 -11 -11 -11 -10 -10 -9 -8 -8 -9 -10 -12 -14 -22 -25 -22 -19 -18 -18 -18 -18 -18 -17 -17 -16 -16 -16 -16 -16 -15 -14 -14 -12 -11 -11 -11 -12 -12 -11 -11 -10
-14 -14 -13 -11 -11 -11 -10 -10 -9 -9 -9 -9 -9 -10 -12 -13 -15 -19 -22 -19 -17 -17 -18 -18 -18 -17 -17 -17 -16 -16 -16 -16 -15 -14 -13 -12 -11 -11 -11 -12 -11 -11 -10 -10
-12 -13 -14 -12 -11 -10 -9 -8 -7 -3 -2 -6 -9 -10 -11 -11 -12 -14 -20 -20 -17 -17 -17 -17 -17 -17 -17 -16 -16 -16 -16 -16 -14 -13 -13 -12 -11 -11 -11 -12 -11 -11 -10 -10
-9 -11 -13 -12 -11 -10 -7 -2 -1 -1 -2 -1 -4 -8 -9 -10 -11 -12 -16 -20 -18 -17 -17 -17 -17 -17 -16 -16 -16 -17 -16 -15 -14 -13 -12 -12 -11 -11 -12 -12 -11 -10 -10 -10

GFSNGP_850_dewp_114.txt.gz
Dewpoint
2 1 1 1 0 -0 0 1 2 -0 -1 -3 -4 -4 -4 -1 1 2 2 1 1 1 0 -2 -3 -3 -5 -7 -8 -8 -10 -11 -13 -15 -18 -25 -27 -25 -23 -22 -23 -23 -24 -25
1 0 0 1 -0 -1 -1 -1 -1 -1 -1 -4 -4 -5 -4 -3 -2 1 1 1 1 0 -0 -1 -2 -3 -4 -6 -7 -8 -10 -12 -14 -15 -23 -25 -23 -22 -22 -23 -23 -23 -23 -22
3 1 1 2 -1 -2 -2 -3 -2 0 -2 -5 -4 -3 -3 -2 -2 -1 0 0 0 0 -1 -1 -1 -3 -3 -5 -7 -7 -9 -12 -14 -19 -27 -24 -22 -23 -23 -23 -22 -22 -21 -21
2 1 3 -1 -7 -6 -4 -4 -4 -4 -4 -4 -4 -5 -4 -2 -1 -1 -1 -0 0 -0 -1 -1 -1 -2 -3 -4 -6 -7 -10 -13 -14 -23 -24 -22 -25 -24 -22 -21 -20 -20 -20 -20
2 2 1 -2 -5 -4 -3 -4 -5 -5 -5 -6 -5 -3 -5 -2 -2 -2 -1 -1 -0 -1 -1 -1 -1 -2 -3 -4 -6 -7 -11 -13 -20 -26 -22 -25 -23 -21 -21 -20 -20 -19 -19 -18
1 3 2 -4 -4 -4 -3 -1 -6 -6 -6 -5 -3 -1 -4 -3 -4 -3 -1 -1 -1 -1 -1 -1 -1 -2 -3 -6 -7 -9 -12 -16 -25 -21 -23 -22 -21 -21 -20 -19 -18 -17 -16 -13
2 2 1 -4 -4 -3 -4 -6 -7 -6 -6 -4 -2 -3 -4 -4 -4 -4 -2 -2 -1 -1 -1 -1 -2 -3 -4 -6 -8 -10 -14 -23 -22 -24 -22 -20 -21 -20 -19 -18 -16 -14 -13 -11
1 2 2 -3 -3 -4 -6 -7 -7 -5 -5 -5 -4 -5 -5 -4 -2 -2 -2 -2 -2 -1 -2 -2 -3 -4 -5 -7 -9 -13 -21 -23 -23 -22 -20 -21 -21 -21 -19 -16 -14 -13 -13 -13
-0 -0 -4 -4 -5 -6 -5 -5 -5 -5 -4 -4 -5 -4 -4 -4 -3 -1 -2 -2 -2 -2 -2 -3 -3 -5 -6 -8 -13 -18 -23 -23 -22 -20 -21 -21 -20 -20 -18 -15 -13 -12 -11 -11
-5 -6 -7 -7 -5 -6 -5 -5 -6 -5 -5 -5 -4 -4 -4 -3 -3 -2 -1 -2 -2 -3 -3 -3 -4 -5 -7 -12 -16 -23 -23 -23 -20 -21 -20 -20 -20 -19 -16 -14 -12 -11 -11 -10
-4 -5 -6 -6 -7 -7 -7 -6 -6 -5 -5 -4 -4 -4 -3 -3 -3 -2 -1 -2 -2 -3 -3 -4 -4 -5 -9 -14 -24 -23 -24 -21 -20 -19 -19 -19 -19 -17 -15 -12 -10 -9 -8 -9
-3 -6 -6 -6 -6 -6 -6 -7 -5 -5 -4 -3 -4 -6 -5 -3 -2 -2 -1 -2 -3 -3 -4 -4 -5 -7 -13 -22 -23 -23 -21 -19 -19 -19 -19 -20 -18 -17 -14 -11 -9 -8 -9 -9
-5 -5 -5 -5 -5 -5 -5 -5 -5 -4 -3 -3 -4 -5 -5 -3 -2 -2 -2 -3 -3 -3 -4 -5 -7 -12 -21 -23 -23 -22 -20 -19 -19 -19 -19 -18 -17 -15 -13 -13 -11 -11 -11 -9
-4 -4 -4 -4 -4 -4 -4 -4 -3 -4 -4 -3 -4 -7 -5 -3 -2 -2 -3 -3 -3 -4 -5 -7 -12 -20 -22 -22 -22 -20 -19 -18 -19 -19 -19 -18 -16 -13 -11 -10 -11 -12 -11 -11
-5 -5 -5 -4 -4 -4 -4 -4 -4 -3 -4 -6 -7 -6 -3 -3 -3 -3 -3 -3 -4 -5 -8 -12 -19 -23 -22 -22 -20 -19 -18 -18 -18 -19 -18 -17 -13 -11 -11 -11 -10 -11 -11 -11
-4 -5 -4 -4 -4 -4 -4 -4 -5 -7 -6 -6 -6 -4 -3 -3 -3 -3 -4 -4 -5 -9 -12 -19 -23 -21 -22 -21 -19 -19 -18 -18 -18 -19 -18 -15 -13 -13 -12 -11 -11 -11 -11 -12
-3 -4 -5 -4 -5 -6 -8 -9 -7 -5 -5 -4 -4 -3 -3 -3 -4 -4 -4 -5 -10 -12 -16 -24 -21 -21 -21 -20 -19 -19 -18 -18 -18 -19 -17 -14 -13 -12 -11 -11 -11 -11 -11 -12
-4 -4 -5 -6 -6 -6 -9 -8 -6 -4 -4 -4 -3 -3 -3 -4 -4 -4 -5 -8 -12 -13 -24 -22 -20 -21 -21 -19 -19 -19 -18 -18 -18 -18 -16 -15 -14 -12 -11 -11 -11 -11 -12 -12
-4 -4 -4 -5 -5 -9 -8 -7 -6 -5 -5 -3 -3 -3 -3 -3 -4 -5 -7 -11 -12 -16 -25 -20 -20 -21 -20 -19 -19 -18 -18 -18 -18 -18 -16 -16 -15 -14 -12 -11 -11 -11 -12 -12
-4 -4 -4 -5 -6 -11 -8 -6 -5 -6 -6 -4 -3 -3 -3 -4 -4 -6 -9 -12 -12 -21 -22 -20 -20 -20 -20 -19 -18 -18 -17 -17 -18 -17 -16 -16 -16 -14 -13 -11 -11 -12 -12 -12
-11 -9 -9 -11 -12 -11 -9 -7 -6 -6 -6 -5 -4 -4 -4 -4 -5 -7 -10 -12 -16 -24 -20 -19 -20 -20 -19 -19 -18 -17 -17 -18 -17 -16 -16 -16 -15 -14 -12 -11 -11 -12 -12 -11
-13 -13 -13 -12 -12 -12 -10 -9 -7 -7 -7 -6 -5 -4 -4 -5 -5 -9 -11 -13 -23 -24 -20 -19 -20 -20 -19 -18 -18 -17 -18 -18 -17 -17 -16 -16 -15 -13 -12 -11 -12 -12 -11 -11
-10 -11 -13 -14 -12 -11 -11 -11 -10 -8 -8 -8 -6 -5 -5 -6 -8 -10 -12 -18 -26 -24 -19 -19 -19 -19 -19 -18 -18 -17 -17 -17 -17 -16 -16 -15 -14 -12 -11 -11 -12 -12 -11 -11
-7 -7 -7 -13 -14 -11 -11 -12 -11 -10 -10 -9 -10 -8 -8 -8 -9 -11 -12 -18 -25 -23 -20 -18 -18 -19 -18 -18 -18 -17 -17 -17 -17 -16 -15 -14 -14 -12 -11 -11 -12 -12 -11 -10
-7 -8 -8 -10 -12 -14 -13 -11 -10 -9 -9 -9 -8 -3 -1 -3 -9 -10 -12 -15 -19 -21 -21 -18 -18 -18 -18 -18 -18 -17 -17 -16 -17 -16 -15 -14 -13 -12 -11 -11 -12 -11 -11 -10
-6 -7 -8 -8 -12 -12 -13 -11 -11 -10 -9 -8 -5 -3 -0 -0 -6 -10 -11 -12 -15 -18 -20 -18 -18 -18 -18 -18 -17 -17 -16 -16 -17 -15 -14 -13 -13 -12 -11 -12 -12 -11 -11 -11
-5 -6 -6 -6 -6 -7 -9 -12 -11 -10 -9 -7 -1 0 0 -0 -1 -7 -10 -11 -12 -14 -18 -19 -17 -17 -17 -17 -17 -16 -16 -17 -17 -15 -14 -13 -12 -11 -11 -12 -12 -11 -11 -11

GFSNGP_850_dewp_117.txt.gz
Dewpoint
1 1 1 2 2 1 1 0 2 -2 -1 -3 -4 -4 -4 -4 -3 -0 1 1 1 1 1 1 -1 -2 -3 -4 -6 -7 -7 -7 -9 -13 -15 -25 -28 -24 -24 -28 -28 -27 -26 -25
0 1 1 1 0 0 0 0 -0 -1 -1 -4 -4 -4 -5 -4 -3 -1 0 1 1 1 1 1 0 -1 -2 -3 -4 -7 -8 -8 -10 -13 -17 -27 -23 -23 -25 -23 -21 -21 -20 -20
2 0 0 1 -1 -2 -2 -1 -1 1 -2 -4 -4 -4 -5 -4 -4 -2 -1 -0 1 1 0 0 -0 -1 -1 -2 -4 -6 -7 -8 -10 -13 -22 -24 -22 -24 -22 -21 -20 -20 -20 -19
1 0 1 -5 -5 -7 -3 -3 -3 -4 -4 -5 -5 -5 -5 -5 -3 -2 -1 -1 -0 0 0 0 -1 -1 -1 -2 -3 -6 -7 -8 -11 -15 -25 -22 -24 -22 -21 -20 -20 -19 -19 -18
1 1 -1 -1 -4 -5 -5 -5 -5 -3 -4 -5 -5 -4 -6 -7 -3 -4 -3 -1 -1 -0 0 -0 -1 -1 -1 -2 -3 -5 -6 -8 -12 -21 -23 -23 -23 -21 -21 -20 -20 -18 -17 -17
1 2 3 -4 -5 -4 -6 -5 -8 -6 -6 -6 -3 -4 -5 -8 -3 -4 -5 -3 -2 -1 -1 -1 -1 -1 -1 -2 -3 -5 -6 -10 -14 -24 -23 -24 -21 -21 -21 -20 -19 -18 -17 -16
2 2 1 -3 -4 -4 -4 -6 -6 -6 -6 -5 -3 -6 -8 -4 -4 -4 -3 -4 -2 -1 -1 -1 -1 -1 -2 -3 -4 -6 -7 -12 -21 -23 -24 -21 -22 -22 -22 -21 -20 -18 -16 -15
1 1 2 -4 -3 -4 -5 -7 -7 -8 -8 -7 -6 -6 -4 -5 -5 -4 -2 -2 -2 -2 -1 -1 -1 -2 -3 -3 -5 -7 -11 -16 -23 -24 -22 -21 -21 -21 -20 -20 -19 -17 -15 -14
-0 -0 -4 -4 -5 -6 -6 -8 -7 -7 -7 -5 -5 -4 -5 -5 -4 -4 -3 -2 -2 -2 -2 -2 -2 -3 -3 -4 -6 -8 -13 -23 -23 -23 -20 -20 -19 -19 -20 -19 -18 -16 -13 -13
-4 -4 -4 -4 -5 -5 -5 -5 -6 -5 -5 -5 -6 -6 -5 -5 -4 -3 -3 -3 -2 -2 -2 -2 -3 -3 -4 -5 -7 -12 -20 -22 -23 -21 -20 -19 -19 -20 -19 -18 -17 -14 -12 -11
-4 -6 -6 -6 -7 -7 -6 -6 -7 -7 -5 -5 -5 -5 -4 -4 -6 -5 -3 -3 -2 -2 -2 -3 -3 -4 -4 -6 -10 -16 -23 -23 -22 -20 -19 -19 -20 -21 -20 -17 -14 -10 -9 -8
-2 -5 -6 -6 -6 -6 -6 -6 -6 -6 -6 -5 -5 -4 -4 -4 -7 -5 -3 -2 -1 -2 -2 -3 -3 -4 -5 -7 -13 -22 -23 -23 -21 -19 -19 -19 -20 -21 -18 -17 -15 -13 -10 -9
-4 -5 -5 -6 -6 -5 -5 -5 -5 -6 -5 -5 -4 -4 -4 -5 -5 -4 -2 -2 -2 -2 -3 -3 -4 -5 -6 -11 -20 -23 -23 -22 -20 -19 -19 -20 -20 -21 -22 -19 -16 -15 -12 -11
-4 -4 -3 -4 -4 -4 -4 -4 -4 -4 -4 -4 -4 -4 -3 -4 -6 -5 -3 -3 -2 -3 -3 -3 -4 -5 -10 -17 -23 -23 -23 -21 -19 -19 -19 -20 -20 -19 -18 -17 -16 -15 -13 -11
-5 -5 -4 -4 -5 -5 -4 -4 -4 -4 -4 -4 -4 -5 -7 -8 -6 -3 -3 -2 -3 -3 -3 -4 -5 -10 -15 -23 -22 -22 -21 -20 -19 -19 -19 -20 -20 -18 -16 -16 -15 -13 -12 -12
-5 -4 -4 -4 -5 -4 -3 -3 -4 -5 -6 -8 -7 -7 -7 -5 -3 -3 -3 -3 -3 -3 -4 -5 -10 -13 -23 -22 -22 -22 -20 -20 -19 -19 -19 -18 -18 -17 -17 -16 -15 -12 -11 -11
-4 -4 -4 -3 -4 -5 -4 -5 -7 -9 -9 -6 -5 -5 -4 -3 -3 -3 -3 -3 -4 -5 -6 -11 -13 -23 -22 -21 -22 -21 -20 -19 -18 -19 -18 -17 -17 -17 -16 -16 -14 -12 -12 -12
-7 -5 -5 -4 -4 -5 -6 -6 -9 -8 -7 -5 -4 -4 -3 -3 -3 -3 -4 -4 -5 -6 -9 -12 -18 -24 -21 -21 -21 -20 -19 -19 -18 -18 -18 -17 -16 -17 -16 -15 -14 -12 -12 -12
-7 -5 -4 -4 -4 -4 -5 -5 -9 -7 -6 -5 -5 -4 -3 -3 -3 -4 -4 -5 -6 -7 -10 -13 -21 -22 -20 -21 -20 -19 -19 -18 -18 -18 -18 -17 -16 -16 -16 -16 -13 -11 -12 -12
-12 -10 -5 -5 -4 -4 -4 -5 -9 -6 -5 -5 -5 -5 -4 -3 -3 -4 -4 -5 -5 -8 -12 -14 -22 -21 -20 -20 -20 -19 -19 -18 -18 -18 -17 -17 -17 -16 -16 -15 -12 -11 -12 -12
-6 -7 -8 -10 -12 -13 -12 -11 -10 -8 -7 -6 -6 -5 -4 -3 -3 -4 -4 -5 -5 -8 -12 -15 -23 -20 -20 -20 -19 -19 -18 -18 -18 -18 -17 -17 -17 -16 -15 -14 -12 -11 -12 -12
-8 -6 -6 -7 -8 -7 -9 -12 -11 -10 -9 -7 -7 -6 -4 -5 -3 -3 -5 -5 -6 -9 -12 -20 -24 -19 -19 -19 -19 -18 -18 -18 -18 -17 -17 -17 -16 -16 -15 -13 -12 -12 -12 -11
-8 -8 -6 -8 -7 -7 -7 -9 -13 -11 -11 -10 -8 -8 -6 -6 -7 -4 -1 -4 -8 -10 -13 -24 -24 -18 -18 -19 -19 -18 -18 -18 -17 -17 -17 -16 -16 -15 -14 -12 -12 -11 -12 -11
-6 -6 -7 -7 -6 -7 -7 -8 -9 -11 -11 -10 -9 -9 -7 -6 -5 -3 -1 -1 -8 -11 -14 -24 -23 -19 -18 -18 -19 -18 -18 -17 -17 -17 -17 -17 -16 -15 -13 -12 -11 -12 -12 -11
-6 -6 -6 -6 -6 -6 -5 -6 -9 -10 -12 -11 -11 -10 -10 -9 -6 -4 -2 -0 -5 -11 -12 -13 -13 -19 -18 -18 -18 -17 -17 -17 -17 -17 -17 -17 -16 -14 -13 -11 -11 -12 -12 -11
-5 -5 -5 -5 -5 -5 -5 -5 -6 -7 -8 -9 -11 -11 -10 -9 -7 -4 -1 0 -3 -6 -6 -11 -8 -18 -19 -18 -18 -17 -17 -17 -17 -16 -17 -17 -15 -14 -12 -11 -12 -12 -12 -11
-4 -4 -4 -4 -4 -4 -4 -4 -4 -5 -5 -5 -6 -10 -10 -9 -7 -3 -0 0 -1 -4 -5 -7 -6 -14 -19 -17 -17 -17 -17 -17 -16 -17 -17 -16 -15 -13 -12 -11 -12 -12 -12 -12

GFSNGP_850_dewp_120.txt.gz
Dewpoint
1 1 1 1 1 1 1 2 2 -3 -2 -5 -5 -5 -5 -5 -4 -4 -4 -1 -1 0 -0 -0 1 0 -1 -2 -3 -5 -6 -7 -7 -8 -11 -15 -27 -24 -25 -25 -24 -22 -22 -21
1 1 1 2 0 1 1 1 0 -0 -0 -3 -4 -4 -4 -5 -5 -4 -4 -3 -2 -1 1 0 0 0 0 -1 -2 -3 -4 -6 -7 -8 -11 -16 -26 -23 -26 -23 -21 -21 -20 -20
2 -0 -0 0 -2 -3 -1 -1 -1 1 -2 -4 -4 -4 -5 -5 -5 -5 -4 -2 -1 -1 -0 1 0 0 0 -1 -2 -2 -3 -5 -7 -8 -12 -19 -24 -25 -22 -21 -20 -20 -19 -19
2 -0 -2 -6 -5 -5 -3 -3 -2 -2 -3 -4 -4 -5 -5 -5 -5 -7 -4 -2 -1 -1 -1 0 1 0 0 -1 -2 -2 -3 -5 -7 -8 -12 -23 -23 -23 -20 -20 -19 -19 -18 -17
1 0 -2 -3 -5 -5 -4 -6 -6 -4 -5 -5 -5 -5 -5 -6 -8 -5 -5 -6 -5 -4 -2 -1 0 0 -0 -1 -2 -2 -3 -5 -6 -9 -13 -23 -24 -21 -20 -20 -19 -19 -17 -16
0 2 -0 -7 -5 -4 -6 -5 -9 -6 -6 -6 -4 -3 -5 -7 -9 -6 -4 -4 -5 -5 -5 -1 0 0 -1 -1 -2 -2 -3 -5 -6 -11 -18 -23 -24 -21 -22 -21 -21 -21 -19 -17
2 2 1 -3 -4 -5 -3 -9 -8 -7 -8 -7 -3 -5 -8 -7 -6 -4 -4 -5 -4 -3 -3 -2 -1 -1 -1 -2 -2 -2 -4 -6 -7 -12 -22 -23 -22 -21 -21 -20 -21 -21 -20 -17
1 2 2 -4 -4 -3 -6 -7 -8 -7 -7 -6 -6 -7 -7 -6 -5 -5 -5 -5 -4 -3 -3 -2 -1 -1 -1 -2 -2 -3 -5 -6 -11 -19 -23 -23 -21 -20 -20 -20 -20 -20 -19 -17
-0 -0 -5 -4 -5 -6 -6 -6 -6 -7 -8 -8 -8 -7 -6 -6 -5 -6 -5 -5 -3 -2 -2 -2 -1 -1 -2 -2 -3 -4 -6 -8 -13 -22 -23 -20 -19 -18 -19 -19 -19 -18 -18 -16
-2 -4 -4 -4 -5 -6 -6 -5 -6 -5 -6 -6 -5 -5 -5 -5 -6 -5 -5 -6 -4 -2 -2 -2 -2 -2 -2 -3 -4 -5 -6 -11 -20 -23 -21 -19 -18 -18 -19 -18 -18 -18 -16 -15
-4 -5 -6 -6 -6 -6 -6 -6 -6 -6 -6 -6 -6 -5 -5 -5 -5 -5 -4 -6 -5 -3 -2 -2 -2 -2 -3 -3 -4 -6 -9 -16 -22 -22 -20 -19 -18 -18 -19 -18 -17 -16 -15 -12
-2 -5 -5 -5 -5 -5 -5 -6 -6 -5 -6 -5 -6 -6 -6 -5 -4 -4 -4 -6 -5 -3 -2 -2 -2 -3 -4 -4 -5 -7 -12 -21 -22 -21 -20 -19 -18 -19 -18 -18 -16 -16 -15 -13
-4 -5 -4 -4 -4 -5 -4 -4 -4 -5 -5 -5 -5 -5 -4 -4 -4 -4 -4 -4 -5 -3 -2 -2 -2 -3 -4 -4 -5 -9 -17 -22 -22 -21 -19 -18 -19 -19 -20 -19 -18 -17 -16 -13
-5 -5 -4 -5 -4 -4 -4 -4 -4 -4 -4 -4 -4 -4 -4 -4 -4 -4 -4 -6 -5 -2 -2 -2 -3 -3 -4 -5 -7 -13 -22 -22 -22 -20 -19 -18 -19 -19 -20 -20 -20 -19 -16 -12
-5 -5 -5 -4 -6 -6 -4 -4 -5 -4 -4 -4 -4 -4 -4 -5 -6 -7 -8 -5 -2 -2 -2 -3 -3 -4 -4 -6 -11 -20 -22 -22 -21 -20 -19 -19 -19 -19 -18 -18 -18 -18 -16 -13
-7 -7 -7 -5 -5 -5 -4 -4 -4 -3 -3 -4 -6 -8 -7 -7 -7 -7 -4 -3 -3 -3 -3 -3 -4 -4 -5 -10 -16 -22 -21 -21 -20 -20 -19 -19 -18 -18 -18 -18 -18 -18 -15 -12
-6 -7 -6 -5 -4 -4 -4 -4 -4 -5 -7 -8 -8 -7 -5 -5 -4 -4 -3 -3 -3 -3 -4 -4 -4 -6 -10 -14 -23 -21 -21 -20 -20 -19 -19 -18 -18 -18 -17 -17 -18 -17 -14 -12
-8 -8 -8 -7 -5 -4 -4 -4 -4 -4 -5 -8 -7 -5 -5 -4 -3 -3 -3 -4 -4 -4 -4 -4 -5 -9 -12 -20 -22 -21 -21 -20 -19 -19 -18 -18 -18 -17 -17 -18 -17 -16 -13 -12
-10 -7 -7 -7 -8 -8 -5 -4 -5 -7 -6 -8 -6 -5 -4 -4 -3 -3 -4 -3 -3 -3 -3 -5 -7 -11 -13 -22 -21 -20 -20 -19 -19 -19 -18 -18 -18 -17 -17 -17 -17 -16 -12 -12
-15 -12 -7 -7 -8 -7 -7 -6 -5 -7 -10 -11 -7 -7 -6 -6 -4 -2 -2 -2 -2 -3 -4 -6 -9 -12 -14 -22 -20 -20 -20 -19 -18 -18 -18 -18 -17 -17 -17 -17 -16 -14 -12 -12
-11 -9 -9 -6 -6 -7 -6 -7 -7 -7 -7 -10 -9 -10 -7 -7 -5 -3 -3 -3 -5 -4 -3 -5 -8 -11 -13 -21 -20 -19 -19 -19 -18 -18 -18 -17 -17 -17 -17 -16 -15 -13 -12 -12
-11 -8 -7 -6 -6 -6 -6 -6 -6 -6 -6 -7 -10 -11 -10 -10 -7 -4 -4 -4 -3 1 -1 -4 -7 -11 -15 -21 -20 -19 -19 -18 -18 -18 -18 -17 -17 -17 -17 -16 -15 -12 -12 -12
-9 -8 -6 -5 -6 -6 -6 -5 -6 -5 -5 -5 -6 -9 -9 -10 -8 -6 -6 -6 -2 0 -1 -3 -7 -10 -18 -20 -20 -18 -19 -18 -18 -17 -17 -17 -17 -17 -17 -16 -14 -12 -12 -12
-8 -7 -6 -6 -6 -6 -5 -5 -5 -5 -5 -5 -5 -7 -10 -9 -9 -9 -9 -7 -3 -1 -0 -1 -4 -10 -20 -11 -17 -18 -18 -18 -17 -17 -17 -17 -17 -17 -17 -15 -13 -12 -11 -12
-6 -6 -6 -5 -5 -5 -4 -4 -4 -4 -4 -4 -4 -5 -7 -10 -9 -9 -8 -7 -6 -3 -1 -0 -1 -5 -8 -7 -11 -18 -18 -18 -17 -17 -17 -17 -17 -17 -16 -14 -13 -11 -12 -12
-6 -5 -5 -4 -4 -4 -4 -4 -3 -3 -3 -3 -4 -4 -4 -4 -5 -6 -9 -8 -7 -5 -2 -0 -2 -4 -6 -5 -6 -17 -17 -17 -17 -17 -17 -17 -17 -17 -16 -14 -12 -11 -12 -12
-5 -4 -4 -4 -4 -3 -3 -3 -3 -3 -3 -3 -3 -3 -4 -4 -5 -5 -6 -9 -8 -7 -4 -1 -2 -4 -6 -6 -5 -15 -17 -16 -16 -17 -17 -17 -17 -17 -15 -14 -12 -11 -12 -12

GFSNGP_850_dewp_123.txt.gz
Dewpoint
0 -0 -0 -0 -0 0 3 3 3 -3 -2 -4 -6 -6 -6 -6 -5 -5 -5 -5 -5 -4 -3 -1 0 -1 -1 -0 -1 -2 -3 -4 -6 -7 -7 -8 -12 -22 -24 -26 -23 -21 -20 -19
1 1 1 2 1 1 1 -0 0 0 0 -3 -4 -4 -4 -4 -4 -4 -5 -6 -7 -4 -3 -2 -1 0 -0 -0 0 -1 -2 -3 -5 -6 -7 -8 -12 -23 -24 -24 -22 -21 -21 -20
2 -0 -0 -1 -2 -1 -1 -0 -0 1 -2 -4 -4 -4 -4 -5 -5 -5 -5 -8 -7 -4 -2 -1 -0 0 0 -0 0 0 -2 -3 -4 -5 -6 -8 -12 -23 -24 -23 -22 -21 -21 -19
2 -1 -5 -8 -6 -4 -3 -3 -2 -2 -3 -4 -4 -5 -4 -5 -5 -5 -6 -8 -6 -4 -4 -3 -2 0 1 1 1 -0 -2 -2 -3 -5 -6 -8 -13 -23 -24 -22 -22 -22 -21 -19
0 -0 -2 -5 -5 -3 -3 -5 -5 -4 -4 -5 -6 -5 -6 -7 -5 -6 -7 -7 -5 -5 -6 -6 -5 -1 0 1 1 -0 -2 -2 -3 -5 -6 -8 -14 -24 -25 -22 -22 -21 -21 -19
0 2 -2 -10 -6 -5 -7 -5 -9 -6 -7 -8 -5 -4 -7 -9 -6 -8 -8 -6 -5 -4 -5 -5 -6 -3 0 0 1 -0 -2 -2 -3 -5 -7 -10 -19 -24 -23 -22 -21 -21 -21 -19
2 2 1 -3 -5 -5 -4 -9 -10 -7 -7 -7 -5 -6 -7 -8 -8 -7 -6 -5 -5 -6 -5 -4 -4 -2 -0 0 0 -1 -2 -3 -4 -6 -7 -12 -23 -24 -21 -21 -20 -21 -21 -20
1 2 2 -4 -4 -4 -6 -7 -7 -7 -6 -7 -6 -7 -7 -6 -7 -7 -6 -6 -6 -5 -5 -4 -3 -2 -1 -1 -1 -2 -2 -3 -4 -6 -9 -17 -23 -22 -21 -20 -20 -20 -20 -19
0 -0 -4 -5 -5 -6 -5 -5 -5 -5 -6 -5 -5 -6 -7 -8 -7 -5 -5 -6 -5 -5 -5 -4 -3 -3 -2 -1 -2 -2 -2 -4 -5 -7 -12 -22 -23 -21 -20 -19 -20 -20 -20 -19
-3 -6 -4 -5 -6 -6 -6 -6 -6 -5 -5 -6 -6 -6 -5 -5 -6 -6 -5 -5 -5 -5 -6 -5 -3 -2 -2 -2 -2 -3 -3 -4 -6 -9 -17 -23 -22 -20 -19 -19 -20 -20 -20 -18
-4 -5 -6 -6 -5 -5 -5 -5 -4 -5 -4 -5 -5 -5 -6 -5 -6 -6 -5 -5 -4 -4 -5 -6 -2 -2 -2 -2 -3 -3 -4 -5 -7 -12 -22 -22 -21 -19 -19 -19 -20 -20 -19 -18
-2 -4 -4 -4 -4 -5 -5 -5 -5 -5 -4 -4 -4 -5 -5 -5 -5 -5 -4 -4 -3 -4 -5 -5 -3 -2 -2 -2 -3 -4 -5 -6 -9 -17 -22 -21 -20 -18 -19 -19 -19 -18 -17 -17
-4 -4 -3 -5 -6 -6 -5 -6 -6 -6 -4 -4 -4 -5 -5 -4 -4 -4 -4 -4 -4 -4 -4 -4 -2 -2 -2 -3 -4 -4 -5 -7 -13 -21 -22 -20 -19 -18 -18 -18 -19 -17 -18 -18
-4 -5 -7 -9 -6 -5 -4 -5 -4 -4 -4 -4 -3 -4 -3 -3 -4 -4 -5 -6 -6 -7 -6 -3 -2 -2 -2 -3 -4 -5 -5 -9 -17 -21 -21 -19 -18 -18 -18 -19 -19 -18 -18 -18
-8 -8 -7 -6 -5 -4 -4 -5 -4 -5 -5 -5 -6 -6 -7 -7 -8 -6 -7 -7 -7 -4 -3 -2 -2 -2 -3 -4 -4 -5 -5 -11 -20 -21 -21 -19 -18 -18 -18 -18 -18 -19 -19 -19
-8 -8 -7 -6 -7 -6 -5 -5 -6 -6 -6 -5 -5 -7 -7 -7 -5 -5 -5 -4 -4 -3 -2 -2 -2 -3 -4 -4 -5 -6 -9 -17 -20 -20 -20 -18 -18 -18 -18 -18 -18 -18 -19 -19
-10 -10 -9 -8 -7 -7 -7 -6 -5 -4 -5 -5 -8 -9 -8 -6 -5 -4 -3 -3 -3 -3 -2 -2 -3 -4 -4 -4 -5 -9 -13 -20 -20 -20 -19 -18 -18 -18 -18 -18 -18 -18 -19 -18
-11 -13 -11 -8 -8 -7 -7 -8 -7 -7 -7 -7 -8 -9 -10 -8 -7 -2 -2 -2 -2 -3 -3 -3 -3 -4 -4 -6 -8 -12 -19 -21 -19 -20 -19 -18 -18 -18 -18 -18 -17 -18 -18 -18
-10 -13 -15 -10 -9 -7 -6 -6 -6 -6 -7 -7 -7 -7 -10 -10 -10 -7 -3 -2 -2 -3 -3 -3 -3 -4 -5 -6 -10 -13 -20 -21 -19 -19 -18 -18 -17 -18 -18 -17 -17 -18 -18 -17
-8 -9 -13 -14 -10 -8 -6 -6 -6 -6 -6 -6 -6 -6 -6 -7 -9 -7 -6 -7 -5 -4 -3 -2 -3 -5 -5 -7 -11 -13 -20 -20 -19 -19 -18 -18 -17 -18 -17 -17 -18 -18 -18 -16
-7 -8 -8 -11 -13 -9 -9 -8 -7 -7 -7 -6 -5 -5 -5 -6 -6 -7 -8 -6 -10 -6 -3 -4 -3 -2 -4 -3 -9 -12 -18 -20 -19 -19 -19 -18 -17 -17 -17 -17 -17 -18 -17 -15
-13 -16 -12 -11 -13 -10 -11 -11 -9 -7 -6 -6 -5 -5 -5 -5 -5 -5 -7 -9 -9 -7 -4 -2 0 -0 -1 -3 -6 -11 -16 -20 -18 -18 -18 -18 -17 -17 -17 -17 -17 -18 -17 -14
-16 -10 -10 -10 -9 -9 -9 -9 -6 -5 -5 -4 -4 -4 -4 -4 -4 -4 -6 -9 -10 -8 -6 -3 -0 -0 -1 -4 -6 -7 -18 -19 -18 -18 -18 -18 -17 -17 -17 -17 -18 -17 -16 -13
-9 -9 -9 -8 -7 -6 -7 -8 -5 -4 -4 -4 -4 -3 -3 -3 -4 -4 -5 -8 -10 -9 -8 -5 -2 -0 -1 -2 -5 -6 -15 -7 -14 -18 -18 -17 -17 -17 -17 -17 -18 -16 -15 -12
-8 -8 -7 -7 -6 -5 -5 -5 -4 -4 -3 -3 -3 -3 -3 -3 -4 -4 -4 -4 -5 -7 -9 -8 -5 -1 -1 -2 -4 -5 -10 -5 -12 -17 -18 -17 -17 -17 -17 -17 -18 -16 -14 -12
-7 -7 -6 -6 -5 -5 -5 -4 -3 -3 -3 -3 -3 -3 -3 -3 -3 -4 -4 -4 -5 -5 -6 -7 -8 -6 -4 -1 -3 -4 -6 -5 -9 -17 -17 -17 -17 -17 -17 -18 -17 -15 -13 -12
-6 -5 -5 -5 -5 -4 -4 -3 -2 -1 -1 -1 -2 -2 -2 -3 -3 -3 -4 -4 -4 -5 -7 -7 -7 -6 -5 -2 -3 -4 -5 -6 -9 -14 -17 -17 -17 -17 -17 -18 -16 -14 -13 -12

GFSNGP_850_dewp_129.txt.gz
Dewpoint
-1 -1 -2 -2 -1 1 2 1 0 -4 -2 -5 -5 -4 -4 -4 -7 -7 -8 -8 -6 -6 -6 -6 -8 -8 -6 -4 -3 -1 -0 -0 -1 -2 -3 -4 -5 -5 -6 -7 -11 -23 -25 -23
1 -0 0 1 0 -1 -1 1 1 1 1 -3 -3 -4 -5 -6 -7 -7 -8 -9 -6 -6 -6 -9 -9 -7 -4 -3 -1 -1 0 -0 -0 -1 -2 -3 -4 -5 -6 -7 -11 -23 -25 -23
1 -1 -1 -3 -3 -1 -0 -1 -1 0 -2 -4 -4 -4 -5 -6 -7 -7 -7 -8 -6 -6 -7 -8 -8 -6 -6 -6 -4 -0 -0 0 -0 0 -0 -2 -3 -4 -5 -7 -10 -23 -24 -24
1 -2 -5 -9 -6 -4 -1 -2 -1 -2 -2 -3 -4 -6 -6 -7 -7 -7 -6 -7 -6 -6 -8 -7 -7 -6 -5 -5 -6 -5 -0 0 0 0 1 0 -3 -3 -5 -6 -11 -23 -24 -23
-0 -1 -3 -8 -5 -4 -3 -6 -5 -2 -3 -5 -6 -6 -6 -6 -6 -5 -6 -6 -7 -8 -7 -6 -6 -5 -6 -6 -6 -5 -5 -1 1 1 1 1 -2 -3 -5 -6 -11 -23 -23 -22
-0 1 -3 -10 -7 -6 -7 -5 -9 -6 -6 -7 -6 -3 -5 -5 -5 -5 -6 -5 -6 -6 -6 -6 -5 -4 -5 -6 -6 -6 -5 -3 1 1 1 1 -3 -3 -5 -7 -12 -23 -22 -22
1 1 -0 -4 -6 -5 -4 -5 -7 -6 -5 -5 -5 -5 -5 -5 -6 -5 -5 -5 -5 -6 -6 -6 -5 -5 -5 -5 -6 -6 -4 -1 1 1 1 -1 -3 -3 -5 -8 -15 -23 -21 -21
1 2 1 -4 -4 -5 -6 -5 -5 -5 -5 -5 -4 -4 -5 -6 -7 -5 -4 -4 -5 -5 -5 -5 -5 -5 -5 -5 -5 -5 -3 -1 0 1 -0 -3 -3 -4 -6 -9 -18 -23 -21 -20
-0 -1 -4 -4 -4 -5 -4 -4 -5 -5 -5 -4 -5 -5 -5 -5 -5 -5 -4 -5 -5 -5 -5 -5 -5 -5 -4 -4 -4 -4 -3 -2 -0 -1 -3 -3 -3 -5 -6 -11 -21 -23 -20 -20
-4 -5 -4 -5 -4 -4 -7 -6 -5 -5 -5 -5 -4 -4 -4 -4 -4 -4 -4 -4 -4 -4 -4 -4 -4 -4 -3 -4 -4 -4 -2 -2 -2 -3 -3 -3 -4 -5 -7 -12 -22 -22 -20 -20
-4 -5 -5 -4 -4 -7 -6 -5 -5 -5 -5 -5 -4 -5 -4 -5 -6 -7 -6 -5 -5 -6 -6 -7 -6 -5 -4 -4 -4 -5 -2 -2 -3 -3 -3 -3 -5 -6 -8 -17 -22 -21 -20 -20
-2 -4 -3 -3 -9 -6 -6 -7 -6 -6 -5 -5 -5 -5 -5 -6 -7 -8 -8 -8 -7 -7 -7 -7 -8 -9 -8 -5 -4 -4 -2 -2 -3 -3 -3 -5 -6 -7 -10 -20 -21 -20 -19 -20
-3 -4 -6 -8 -7 -7 -9 -10 -10 -9 -8 -7 -7 -7 -7 -7 -7 -8 -8 -6 -5 -5 -5 -5 -5 -5 -6 -8 -5 -3 -2 -2 -3 -3 -5 -5 -6 -9 -7 -20 -20 -19 -19 -19
-7 -7 -8 -10 -10 -11 -11 -12 -12 -12 -11 -10 -9 -10 -7 -7 -7 -7 -7 -8 -6 -3 -3 -4 -4 -4 -3 -3 -3 -2 -2 -3 -4 -4 -5 -5 -4 -2 -16 -21 -20 -19 -18 -19
-13 -13 -12 -12 -13 -14 -16 -16 -17 -18 -18 -17 -15 -11 -7 -7 -7 -7 -7 -7 -7 -8 -4 -2 -3 -3 -3 -3 -3 -2 -2 -3 -4 -5 -4 -2 -2 -8 -19 -20 -20 -19 -18 -19
-9 -10 -10 -11 -12 -14 -16 -17 -16 -18 -20 -21 -21 -18 -13 -10 -8 -8 -8 -7 -6 -6 -7 -7 -2 -2 -3 -3 -3 -2 -1 -2 -2 -3 -3 -2 -2 -12 -19 -20 -19 -19 -18 -18
-9 -10 -10 -11 -11 -11 -11 -13 -15 -15 -13 -13 -15 -14 -12 -12 -13 -14 -13 -12 -9 -6 -5 -6 -7 -5 -2 -2 -2 -3 -2 -3 -2 -2 -2 -2 -7 -14 -20 -19 -18 -19 -18 -18
-12 -12 -12 -12 -13 -14 -14 -16 -16 -14 -11 -11 -11 -11 -11 -10 -11 -13 -14 -9 -7 -7 -8 -8 -6 -6 -7 -3 -2 -3 -3 -4 -5 -4 -4 -6 -9 -17 -19 -19 -19 -18 -18 -17
-16 -15 -15 -13 -13 -12 -12 -12 -13 -13 -12 -13 -12 -12 -12 -13 -12 -10 -8 -5 -5 -5 -7 -5 -6 -5 -5 -6 -5 -3 -3 -4 -4 -5 -6 -8 -11 -18 -17 -18 -18 -18 -18 -17
-22 -20 -15 -13 -13 -13 -14 -16 -15 -14 -17 -15 -13 -12 -13 -14 -10 -7 -5 -4 -4 -4 -4 -4 -4 -4 -5 -5 -6 -4 -3 -4 -5 -6 -5 -7 -11 -13 -18 -18 -18 -17 -17 -17
-16 -13 -13 -15 -17 -18 -15 -14 -12 -13 -13 -11 -11 -11 -10 -9 -7 -5 -4 -3 -4 -4 -4 -3 -3 -4 -4 -6 -6 -5 -3 -4 -5 -5 -6 -5 -4 -8 -18 -18 -18 -18 -17 -17
-13 -13 -15 -17 -16 -15 -13 -9 -8 -8 -7 -7 -7 -7 -6 -6 -5 -4 -3 -3 -3 -3 -3 -3 -3 -4 -4 -6 -7 -5 -4 -4 -4 -2 -3 -3 -6 -13 -18 -18 -18 -18 -17 -17
-13 -14 -16 -16 -13 -11 -8 -7 -7 -7 -6 -6 -6 -6 -5 -5 -4 -3 -3 -3 -2 -2 -2 -3 -3 -4 -4 -6 -7 -6 -4 -4 -4 -2 -2 -2 -4 -8 -15 -18 -17 -17 -17 -17
-15 -15 -14 -14 -12 -9 -7 -7 -7 -6 -5 -6 -6 -5 -5 -4 -4 -3 -3 -3 -2 -2 -2 -2 -3 -3 -4 -5 -7 -6 -5 -4 -3 -3 -2 -3 -4 -5 -13 -14 -9 -13 -16 -17
-13 -13 -12 -12 -10 -9 -7 -7 -5 -5 -5 -5 -5 -5 -5 -4 -4 -3 -3 -3 -3 -3 -3 -2 -2 -2 -3 -5 -5 -6 -6 -5 -4 -2 -2 -3 -3 -5 -10 -7 -8 -8 -16 -17
-12 -12 -12 -11 -9 -9 -8 -5 -4 -4 -4 -4 -4 -4 -4 -4 -4 -4 -4 -4 -4 -3 -3 -3 -3 -2 -3 -3 -5 -6 -6 -6 -5 -4 -4 -4 -4 -5 -6 -7 -7 -14 -16 -16
-12 -13 -10 -10 -11 -9 -6 -5 -4 -5 -4 -4 -4 -4 -4 -4 -4 -4 -4 -4 -4 -4 -4 -4 -4 -3 -3 -3 -3 -5 -6 -6 -5 -5 -5 -5 -5 -6 -6 -7 -8 -11 -16 -16

GFSNGP_850_dewp_132.txt.gz
Dewpoint
-2 -3 -4 -4 -4 1 2 -1 -3 -8 -7 -8 -8 -6 -5 -5 -6 -6 -6 -6 -6 -6 -6 -6 -7 -9 -9 -7 -6 -4 -3 -2 -1 -0 -0 -1 -3 -3 -4 -5 -5 -6 -9 -20
2 -1 -0 0 -1 -2 -2 -1 -2 -2 -2 -5 -5 -5 -5 -6 -6 -6 -6 -6 -5 -6 -6 -6 -8 -8 -7 -7 -7 -5 -3 -1 -0 -0 0 -0 -1 -2 -3 -4 -5 -5 -8 -18
0 -2 -2 -3 -5 -3 -2 -2 -2 -1 -3 -5 -5 -5 -5 -5 -5 -6 -6 -5 -5 -5 -6 -6 -7 -7 -7 -6 -6 -6 -5 -5 -1 0 0 0 -0 -1 -3 -4 -4 -5 -7 -17
2 -2 -1 -8 -6 -4 -3 -3 -3 -3 -4 -4 -5 -5 -5 -5 -6 -5 -5 -5 -5 -5 -6 -6 -7 -6 -6 -5 -5 -5 -6 -6 -5 -1 0 1 1 -0 -1 -3 -4 -5 -7 -16
1 -1 -5 -6 -4 -4 -4 -5 -6 -3 -5 -5 -5 -5 -5 -5 -5 -5 -5 -6 -5 -5 -5 -6 -6 -6 -6 -5 -4 -5 -6 -6 -5 -4 -1 1 1 1 -0 -3 -4 -5 -7 -17
-1 0 -2 -9 -6 -6 -6 -4 -6 -5 -5 -5 -5 -3 -5 -5 -5 -5 -5 -5 -4 -4 -5 -5 -6 -6 -6 -6 -5 -5 -5 -5 -5 -4 -3 0 1 1 0 -3 -4 -6 -7 -16
0 1 -2 -4 -5 -5 -2 -3 -4 -5 -5 -5 -5 -5 -5 -5 -5 -5 -4 -4 -4 -5 -5 -5 -5 -5 -5 -5 -5 -5 -5 -5 -5 -4 -2 0 1 1 0 -4 -4 -6 -9 -19
1 2 2 -4 -4 -4 -4 -4 -5 -5 -5 -4 -4 -4 -4 -4 -4 -5 -5 -5 -4 -4 -4 -4 -4 -4 -4 -5 -5 -4 -4 -4 -4 -3 -1 1 1 1 -2 -5 -5 -7 -12 -20
-1 -1 -4 -4 -4 -4 -5 -5 -4 -4 -4 -4 -4 -5 -5 -5 -6 -8 -8 -8 -8 -8 -8 -9 -8 -7 -6 -6 -4 -4 -4 -4 -4 -3 -2 0 1 -0 -5 -5 -6 -7 -12 -21
-3 -4 -4 -4 -4 -6 -5 -5 -5 -5 -5 -5 -5 -5 -5 -5 -6 -6 -7 -9 -8 -6 -6 -6 -6 -6 -7 -8 -7 -6 -4 -4 -4 -3 -2 -1 -1 -4 -5 -5 -6 -8 -15 -22
-4 -5 -4 -4 -4 -6 -7 -8 -9 -10 -9 -8 -8 -8 -8 -8 -8 -8 -7 -7 -8 -7 -5 -4 -4 -5 -6 -5 -6 -8 -6 -4 -4 -3 -2 -3 -4 -4 -3 -4 -7 -11 -19 -21
-2 -4 -3 -4 -5 -7 -11 -11 -11 -12 -14 -13 -12 -13 -12 -13 -11 -9 -9 -8 -7 -7 -8 -8 -5 -3 -4 -4 -4 -5 -7 -5 -3 -3 -3 -4 -4 -4 -4 -6 -8 -7 -16 -20
-3 -3 -4 -6 -7 -12 -14 -16 -17 -18 -19 -19 -20 -20 -19 -16 -18 -19 -21 -17 -11 -8 -8 -7 -7 -7 -3 -4 -4 -3 -3 -4 -3 -3 -3 -4 -4 -4 -6 -7 -3 -4 -19 -20
-6 -7 -8 -12 -12 -15 -16 -17 -18 -19 -19 -20 -19 -20 -19 -18 -20 -21 -20 -18 -16 -14 -12 -10 -8 -7 -7 -3 -3 -3 -3 -2 -2 -2 -3 -3 -4 -4 -6 -3 -3 -14 -20 -19
-12 -12 -12 -13 -14 -15 -16 -15 -15 -17 -19 -20 -19 -17 -16 -15 -16 -15 -16 -18 -16 -15 -15 -13 -11 -12 -8 -7 -4 -2 -3 -2 -2 -2 -3 -2 -3 -4 -3 -3 -4 -18 -19 -18
-10 -11 -12 -13 -13 -14 -14 -15 -12 -16 -17 -18 -18 -21 -21 -20 -18 -16 -16 -16 -15 -16 -16 -13 -10 -10 -9 -6 -6 -6 -3 -2 -2 -2 -3 -1 -2 -3 -3 -3 -8 -16 -19 -19
-13 -14 -14 -15 -14 -14 -14 -15 -16 -18 -19 -19 -20 -20 -16 -15 -15 -18 -19 -17 -15 -14 -11 -10 -9 -6 -5 -6 -6 -5 -6 -3 -2 -3 -2 -2 -2 -2 -2 -3 -6 -9 -19 -19
-17 -16 -14 -12 -12 -14 -17 -18 -20 -20 -18 -17 -16 -12 -12 -11 -12 -13 -15 -13 -11 -10 -10 -8 -6 -4 -4 -5 -5 -5 -5 -5 -3 -3 -3 -4 -4 -3 -2 -4 -9 -17 -14 -17
-19 -18 -17 -15 -16 -16 -17 -18 -18 -16 -14 -11 -8 -8 -8 -7 -7 -8 -8 -7 -6 -5 -7 -4 -3 -3 -3 -4 -4 -4 -4 -5 -4 -3 -4 -4 -5 -5 -6 -7 -11 -17 -17 -18
-20 -18 -16 -16 -17 -18 -19 -19 -17 -15 -10 -7 -7 -7 -7 -7 -6 -6 -6 -5 -5 -5 -3 -3 -2 -3 -3 -3 -4 -4 -4 -5 -5 -5 -4 -5 -5 -5 -6 -7 -11 -17 -17 -18
-17 -14 -16 -17 -18 -18 -18 -17 -16 -13 -10 -10 -8 -6 -6 -6 -6 -6 -5 -5 -5 -4 -3 -3 -3 -2 -2 -3 -4 -4 -4 -6 -6 -5 -5 -5 -5 -4 -3 -7 -10 -10 -14 -18
-14 -14 -15 -15 -16 -18 -19 -17 -14 -11 -11 -9 -6 -5 -5 -5 -5 -5 -5 -5 -5 -4 -3 -3 -3 -3 -3 -3 -3 -4 -5 -6 -6 -6 -5 -5 -6 -5 -3 -5 -5 -7 -17 -17
-12 -13 -14 -13 -14 -15 -16 -15 -12 -12 -10 -8 -5 -5 -5 -5 -5 -5 -5 -5 -4 -4 -4 -4 -4 -4 -4 -3 -3 -4 -5 -5 -6 -6 -5 -5 -5 -4 -3 -4 -5 -13 -17 -17
-11 -13 -12 -13 -13 -14 -14 -13 -13 -13 -11 -9 -5 -5 -5 -5 -5 -5 -4 -4 -4 -4 -4 -4 -4 -4 -4 -3 -3 -3 -3 -5 -5 -6 -5 -5 -5 -5 -4 -4 -5 -7 -16 -14
-11 -11 -11 -12 -13 -15 -12 -12 -12 -13 -12 -9 -6 -5 -5 -4 -4 -4 -4 -4 -4 -4 -5 -4 -4 -4 -4 -4 -3 -3 -3 -4 -5 -6 -6 -5 -5 -5 -5 -5 -5 -6 -12 -7
-10 -10 -10 -11 -13 -14 -14 -15 -13 -13 -9 -7 -5 -5 -6 -6 -4 -4 -4 -4 -4 -4 -4 -4 -4 -4 -5 -5 -4 -4 -4 -4 -4 -5 -5 -5 -5 -5 -5 -5 -5 -6 -7 -7
-11 -11 -11 -12 -16 -15 -15 -14 -12 -12 -10 -7 -5 -5 -4 -4 -4 -4 -4 -4 -4 -4 -4 -4 -5 -5 -5 -5 -5 -5 -4 -4 -4 -5 -6 -6 -5 -6 -6 -6 -6 -7 -7 -8